[[[{"header":{"parameterUnit":"kt","parameterCategory":2,"dx":1,"dy":1,"la1":29.285339999999998,"la2":30.599998999999997,"lo1":-89.70041500000002,"lo2":-87.6738589999976,"nx":112,"ny":82,"refTime":"2022-09-22T06:00:00:Z","depth":0,"parameterNumber":1,"parameterNumberName":"U-component_of_WINDS"},"data":[0.3678,0.4346,0.4562,0.3982,0.4265,0.4345,0.2991,0.3044,0.3251,0.2663,0.257,0.2892,0.4008,0.3472,0.3254,0.4272,0.5313,0.6586,0.0,0.9789,1.1392,1.2708,1.3685,1.5218,1.7615,1.7917,1.8638,2.0271,2.0805,2.1214,2.1379,2.2382,2.3097,2.3471,2.5601,2.7275,2.817,2.9728,3.0175,2.9397,2.9287,2.8873,2.836,2.9386,3.0539,3.1756,3.2894,3.4158,3.538,3.5454,3.5647,3.5815,3.5719,3.6497,3.7588,3.6775,3.6556,3.6931,3.7573,3.7835,3.7898,3.8165,3.8512,3.8995,3.9668,4.0163,4.0421,4.0421,4.0421,4.0421,4.0387,4.0357,4.0451,4.0802,4.0802,4.0833,4.1299,4.1144,4.0958,4.0896,4.0833,4.0677,4.0583,4.0519,4.055,4.0645,4.0581,4.0231,3.9572,3.9341,3.9072,3.8701,3.8661,3.8523,3.8344,3.7779,3.742,3.7218,3.6084,3.5068,3.4183,3.3597,3.3068,3.2737,3.2311,3.2311,3.2701,3.2311,3.2115,3.2115,3.2115,3.2115,0.0816,0.1499,0.2057,0.1404,0.1916,0.2303,0.1241,0.1304,0.1441,0.1128,0.1588,0.2055,0.2312,0.2805,0.3335,0.394,0.4912,0.6143,0.0,0.9441,1.1201,1.2987,1.4659,1.6446,1.8521,1.9025,1.949,2.0147,2.0643,2.0811,2.0421,2.1467,2.2367,2.2757,2.46,2.6221,2.7566,2.8697,2.911,2.8643,2.8536,2.8124,2.7591,2.8294,2.9497,3.0975,3.1782,3.3061,3.4433,3.462,3.4875,3.4968,3.4782,3.5456,3.6457,3.5608,3.5207,3.5275,3.6661,3.713,3.7275,3.8204,3.872,3.8995,3.9902,4.0292,4.0421,4.0421,4.0421,4.0421,4.0421,4.0421,4.0548,4.099,4.1145,4.1361,4.1755,4.1783,4.1692,4.1632,4.1479,4.1479,4.1419,4.1779,4.193,4.1421,4.1206,4.0865,4.0295,4.0071,3.9781,3.9415,3.9415,3.9177,3.8632,3.8175,3.7579,3.6798,3.5906,3.4913,3.3837,3.3542,3.3,3.2223,3.2223,3.214,3.2115,3.2115,3.2115,3.2115,3.2115,3.2115,-0.0492,-0.038,-0.0092,-0.2033,-0.1704,-0.1118,-0.2059,-0.1791,-0.1586,-0.1881,-0.0565,0.0416,-0.033,0.1504,0.3183,0.3204,0.4475,0.0,0.0,0.9337,1.0436,1.2687,1.5564,1.8018,1.9881,2.1248,2.158,2.0541,2.0924,2.0933,2.0452,2.1001,2.1162,2.0832,2.3045,2.4495,2.4834,2.6126,2.7052,2.776,2.776,2.7741,2.7721,2.803,2.9314,3.1358,3.1455,3.2711,3.4847,3.4847,3.4847,3.4847,3.4847,3.4268,3.3541,3.4301,3.5198,3.6064,3.6836,3.713,3.7202,3.775,3.8344,3.8995,3.9475,4.0002,4.0421,4.0421,4.0485,4.0485,4.0485,4.0485,4.0485,4.0548,4.0864,4.1269,4.13,4.1603,4.1839,4.1692,4.1692,4.1632,4.1479,4.2543,4.3368,4.3148,4.318,4.3059,4.2761,4.2673,4.2389,4.1692,4.1571,4.0989,3.9415,3.9281,3.8573,3.6944,3.5879,3.4913,3.4128,3.3351,3.2746,3.2414,3.2414,3.2331,3.2115,3.2115,3.2115,3.2115,3.2115,3.2115,-0.3219,-0.2047,-0.101,-0.1515,-0.0791,0.0086,0.0329,0.0477,0.0687,0.1145,0.1693,0.0,0.0,0.0,0.398,0.4904,0.0,0.7851,0.952,1.0602,1.2226,1.4898,1.6548,1.843,2.089,2.1612,2.1897,2.1841,2.1395,2.0933,2.0452,2.1001,2.1372,2.1267,2.3258,2.4371,2.4479,2.5473,2.6132,2.6419,2.6155,2.6135,2.6321,2.7065,2.8175,2.9468,3.0307,3.1402,3.2736,3.2822,3.2908,3.2908,3.2908,3.3078,3.3534,3.4312,3.5198,3.6064,3.6836,3.713,3.7275,3.8303,3.8965,3.9572,4.0068,4.0357,4.0485,4.0802,4.099,4.1176,4.1358,4.1632,4.1898,4.23,4.2446,4.2592,4.3072,4.3214,4.316,4.3027,4.3027,4.2971,4.2859,4.3756,4.4183,4.3312,4.3149,4.2729,4.1624,4.1505,4.1356,4.0927,4.0865,4.0708,4.0132,4.0132,3.971,3.8642,3.7793,3.6559,3.4913,3.455,3.3729,3.2199,3.2199,3.2115,3.2115,3.2115,3.2115,3.2115,3.2779,3.3106,-0.3916,-0.2791,-0.1344,-0.1401,-0.0523,0.0345,0.0825,0.128,0.1703,0.2134,0.0,0.0,0.0,0.0,0.0,0.0,0.7787,0.9231,1.0766,1.2136,1.3771,1.6204,1.7202,1.8546,2.0475,2.1198,2.1532,2.1444,2.1313,2.0834,2.0038,2.0825,2.1247,2.0939,2.2126,2.2839,2.3357,2.3787,2.4175,2.4689,2.4903,2.5052,2.5245,2.6344,2.7625,2.8969,2.9609,3.0651,3.1948,3.2032,3.2115,3.2115,3.2199,3.2779,3.3623,3.434,3.5198,3.6064,3.6836,3.7391,3.7821,3.8454,3.9207,3.9872,4.0292,4.0612,4.0927,4.1176,4.1543,4.1811,4.2074,4.2249,4.2479,4.2941,4.3028,4.3138,4.3996,4.4132,4.4114,4.4149,4.42,4.4132,4.3856,4.4233,4.4265,4.3473,4.3291,4.2929,4.21,4.1984,4.1866,4.1568,4.1508,4.1358,4.0864,4.0864,4.0518,3.9776,3.8944,3.7848,3.6374,3.5582,3.4602,3.33,3.33,3.3219,3.3163,3.3,3.2836,3.2696,3.3188,3.3432,-0.3507,-0.2605,-0.1219,-0.1304,-0.061,0.0259,0.0665,0.0,0.2338,0.2409,0.0,0.5535,0.5358,0.0,0.0,0.7728,0.898,1.0519,1.2191,1.3744,1.528,1.6846,1.7724,1.8563,1.9568,2.0389,2.0688,2.0244,2.0688,2.0521,1.9436,2.0337,2.0735,2.0237,2.0253,2.0735,2.1723,2.1526,2.2017,2.2991,2.3936,2.4489,2.4584,2.59,2.7555,2.9367,2.9367,3.0392,3.2115,3.2115,3.2115,3.2115,3.2414,3.3025,3.3732,3.4392,3.5275,3.6261,3.7028,3.7863,3.8671,3.874,3.9415,4.02,4.0518,4.1021,4.1543,4.1692,4.2106,4.2511,4.2681,4.2625,4.2649,4.3017,4.3105,4.3353,4.4265,4.4514,4.4645,4.4971,4.511,4.5064,4.4804,4.4626,4.4299,4.3856,4.3732,4.3625,4.3551,4.3498,4.3356,4.2951,4.2929,4.2536,4.1723,4.1603,4.1267,4.0645,3.972,3.8864,3.8058,3.6336,3.5252,3.4966,3.4966,3.4811,3.4497,3.4208,3.3809,3.3432,3.3432,3.3351,-0.3655,-0.1999,-0.0174,-0.1132,0.0,0.1737,0.0,0.0,0.0,0.6462,0.6817,0.7046,0.773,0.7912,0.8303,0.928,1.0285,1.1586,1.3274,1.5277,1.6877,1.779,1.8242,1.916,2.0729,2.0553,2.0291,2.0244,1.9962,1.9478,1.889,1.899,1.9105,1.899,1.9422,1.9737,1.9923,2.0437,2.1131,2.2213,2.3307,2.4244,2.483,2.6178,2.7667,2.9367,2.9367,3.0392,3.2115,3.2307,3.2414,3.2414,3.2663,3.3269,3.4023,3.4758,3.6002,3.735,3.8128,3.8915,3.968,4.0071,4.0552,4.1081,4.1448,4.1839,4.2281,4.2649,4.284,4.3116,4.3539,4.3732,4.3804,4.3908,4.3875,4.396,4.4166,4.4517,4.481,4.4776,4.504,4.5505,4.6289,4.6371,4.6131,4.5505,4.5416,4.5235,4.4783,4.4563,4.435,4.4065,4.3841,4.3625,4.3302,4.2873,4.2389,4.1747,4.0552,3.9421,3.8583,3.6899,3.5609,3.4654,3.4654,3.4524,3.4128,3.4049,3.3809,3.3432,3.3131,3.2968,-0.3044,-0.1567,0.0087,-0.0523,0.0087,0.0,0.0,0.3963,0.5171,0.7021,0.7969,0.8683,0.9123,0.9373,0.9711,1.0294,1.1426,1.2593,1.3633,1.4795,1.603,1.7452,1.7746,1.8395,1.982,1.9584,1.9292,1.9076,1.9076,1.8789,1.8297,1.8789,1.8976,1.8688,1.8904,1.9005,1.9005,1.9923,2.0521,2.1115,2.2842,2.3804,2.4299,2.5713,2.7191,2.8457,2.8814,2.9674,3.097,3.172,3.2331,3.2803,3.3462,3.4261,3.5121,3.5776,3.677,3.7934,3.8603,3.9385,4.0105,4.0615,4.1234,4.1688,4.187,4.2048,4.2332,4.3138,4.3599,4.3996,4.4533,4.4679,4.4824,4.5304,4.5132,4.504,4.546,4.5583,4.5653,4.5827,4.6305,4.6736,4.699,4.699,4.6734,4.6084,4.5885,4.5754,4.541,4.5302,4.5121,4.4914,4.4796,4.4626,4.4316,4.398,4.334,4.2527,4.1716,4.0615,3.905,3.8157,3.7089,3.5886,3.5658,3.5352,3.4811,3.4707,3.4471,3.41,3.3941,3.378,-0.2438,-0.1395,0.0,0.0,0.0264,0.0,0.2479,0.4079,0.5733,0.7226,0.8903,1.018,1.0325,1.068,1.104,1.1123,1.2185,1.316,1.3518,1.3791,1.4625,1.639,1.6716,1.7101,1.813,1.8353,1.8182,1.7701,1.8196,1.8297,1.7803,1.8486,1.8789,1.8385,1.8486,1.8486,1.8486,1.9407,2.0007,2.0306,2.2374,2.3456,2.3762,2.5507,2.6896,2.7806,2.8681,2.9476,3.0283,3.1443,3.2282,3.3,3.405,3.4913,3.5658,3.6549,3.7378,3.8274,3.9072,3.9942,4.0803,4.1324,4.1925,4.2486,4.2518,4.2479,4.2696,4.3671,4.4267,4.4824,4.5475,4.5564,4.5618,4.633,4.6096,4.5894,4.6577,4.6573,4.6573,4.7169,4.7683,4.7911,4.7509,4.7331,4.7089,4.6558,4.6376,4.6299,4.6093,4.6048,4.5967,4.5796,4.5711,4.554,4.5222,4.4809,4.4215,4.3374,4.264,4.1477,3.965,3.9348,3.8563,3.7348,3.6955,3.6438,3.5685,3.5175,3.4655,3.4021,3.3915,3.3915,-0.2612,-0.1395,0.0,0.0,0.1435,0.0,0.3771,0.6045,0.8413,0.9625,1.0351,1.1025,1.1641,1.1572,1.1545,1.1817,1.2119,1.2285,1.2684,1.3711,1.4477,1.4925,1.5381,1.5801,1.648,1.7036,1.7165,1.687,1.7586,1.7715,1.7217,1.7319,1.7319,1.7319,1.7701,1.8007,1.8007,1.85,1.9392,2.062,2.2031,2.321,2.4259,2.6456,2.7806,2.8592,3.0109,3.1164,3.184,3.2861,3.2893,3.2432,3.3597,3.4128,3.4445,3.6036,3.7278,3.8524,3.9976,4.1266,4.2389,4.2886,4.3419,4.3784,4.4114,4.4318,4.4418,4.4418,4.4804,4.5336,4.6013,4.6089,4.5971,4.5971,4.5809,4.568,4.5645,4.6265,4.7097,4.8068,4.8226,4.8179,4.811,4.8094,4.8012,4.7824,4.7894,4.7865,4.762,4.7364,4.713,4.688,4.658,4.6349,4.631,4.54,4.4796,4.4701,4.251,4.1081,4.0834,3.9578,3.8552,3.7821,3.7721,3.7174,3.5919,3.4392,3.2779,3.1188,3.0823,3.0651,-0.2595,-0.1045,0.0789,0.0988,0.0,0.0,0.4485,0.6466,0.843,0.957,1.0778,1.1775,1.2236,1.2308,1.2326,1.2637,1.25,1.24,1.2555,1.2819,1.3314,1.4161,1.4298,1.4768,1.5709,1.595,1.6023,1.5738,1.6048,1.6048,1.5658,1.6279,1.6896,1.7306,1.7715,1.7905,1.7905,1.9292,2.0291,2.0902,2.2648,2.384,2.4355,2.6251,2.7332,2.7673,2.9323,3.0392,3.0946,3.3137,3.4049,3.4182,3.5222,3.5478,3.5505,3.7247,3.8005,3.8337,4.0329,4.1266,4.1834,4.2696,4.3182,4.3605,4.4149,4.448,4.477,4.5201,4.561,4.6113,4.6774,4.7022,4.7156,4.7393,4.7324,4.7259,4.719,4.7476,4.7952,4.8619,4.8855,4.8892,4.8913,4.8879,4.8848,4.8722,4.873,4.8685,4.8411,4.8273,4.8205,4.8077,4.7926,4.7681,4.7265,4.6703,4.5897,4.489,4.3608,4.2285,4.0803,3.9846,3.8779,3.7579,3.7291,3.6411,3.5019,3.3969,3.3106,3.2506,3.2067,3.1708,-0.2676,0.0,0.0,0.0,0.0,0.0,0.4983,0.6631,0.8087,0.8936,1.0281,1.1582,1.2169,1.236,1.2485,1.2789,1.248,1.2139,1.2257,1.19,1.1797,1.251,1.2606,1.2912,1.3625,1.4032,1.4147,1.3949,1.4147,1.4262,1.4388,1.5117,1.5945,1.6883,1.7395,1.7715,1.7715,1.9407,2.039,2.0787,2.2745,2.3936,2.4355,2.6159,2.6967,2.7058,2.8969,2.9936,3.03,3.2924,3.4366,3.5019,3.5707,3.5783,3.581,3.7905,3.8435,3.8514,4.0803,4.1628,4.1893,4.305,4.3599,4.3911,4.4681,4.5108,4.5419,4.6013,4.6476,4.6883,4.7453,4.7857,4.8201,4.8546,4.8542,4.8445,4.8398,4.8579,4.8827,4.8988,4.9243,4.9379,4.9422,4.9389,4.9351,4.9243,4.9258,4.9168,4.8888,4.8846,4.8867,4.8808,4.8811,4.8596,4.8114,4.765,4.6811,4.5471,4.4728,4.3485,4.1711,4.0459,3.9228,3.7889,3.6871,3.5734,3.4445,3.3648,3.3325,3.3325,3.2811,3.2482,0.0,0.0,0.0,0.1649,0.3331,0.4837,0.5215,0.6763,0.8114,0.8227,0.8984,0.9944,1.1274,1.1451,1.1689,1.2074,1.1297,1.0932,1.1389,1.0781,0.9992,0.967,0.9633,0.9626,0.9732,1.0773,1.1391,1.1391,1.2119,1.2853,1.3824,1.3521,1.3939,1.5404,1.6575,1.7114,1.7114,1.7905,1.8976,2.0244,2.1607,2.2904,2.4355,2.6344,2.715,2.7332,2.9936,3.0838,3.0635,3.2374,3.3513,3.4049,3.4128,3.4128,3.4392,3.7122,3.8454,3.9222,4.1679,4.2938,4.3625,4.4688,4.5098,4.5427,4.659,4.6883,4.6811,4.6949,4.7187,4.7516,4.7894,4.8394,4.8792,4.88,4.868,4.8568,4.8411,4.9111,4.9598,4.9224,4.9274,4.9401,4.9529,4.9455,4.9367,4.9355,4.9455,4.9425,4.9042,4.9098,4.9074,4.882,4.877,4.8792,4.8792,4.7838,4.7229,4.7161,4.5349,4.4314,4.4215,4.1611,3.9888,3.9211,3.692,3.5375,3.4445,3.3517,3.2729,3.2115,3.172,3.1382,-0.1986,-0.0266,0.1647,0.2661,0.3852,0.5125,0.6152,0.7318,0.812,0.812,0.9039,0.9992,1.0438,1.0116,1.0113,1.1016,1.0655,1.0362,1.0588,1.0044,0.9649,0.9533,0.9519,0.9519,0.9519,0.9832,1.0144,1.0144,1.0356,1.0667,1.0993,1.1945,1.2787,1.3406,1.5324,1.66,1.7114,1.889,2.0046,2.0443,2.2242,2.3534,2.4355,2.5226,2.586,2.6324,2.8903,2.9845,2.9516,3.1215,3.3062,3.4835,3.4835,3.5325,3.6261,3.7706,3.8631,3.9478,4.1611,4.2897,4.3862,4.4983,4.5522,4.5886,4.688,4.724,4.7502,4.8136,4.8374,4.8519,4.8811,4.9044,4.922,4.9376,4.9375,4.9299,4.8992,4.9167,4.9316,4.9214,4.922,4.927,4.9294,4.9291,4.9245,4.9249,4.9367,4.9411,4.927,4.9355,4.9414,4.9313,4.9301,4.9252,4.9054,4.8717,4.8201,4.742,4.6594,4.5292,4.3474,4.2042,4.021,3.8,3.6843,3.5528,3.4156,3.2974,3.2258,3.2032,3.1273,3.1188,-0.1583,0.0,0.1592,0.2662,0.3861,0.5112,0.615,0.7056,0.7702,0.7702,0.8384,0.8986,0.9548,0.8654,0.8107,0.8969,0.8722,0.8497,0.8725,0.8679,0.8569,0.8569,0.8569,0.8569,0.8569,0.8569,0.8669,0.877,0.877,0.8877,0.9205,1.0372,1.1328,1.1848,1.3552,1.4816,1.575,1.8053,1.9348,1.9762,2.1559,2.2551,2.2842,2.3863,2.4528,2.4905,2.6661,2.7144,2.7124,2.9817,3.1847,3.3472,3.4392,3.5451,3.6605,3.7777,3.8631,3.9603,4.2106,4.3378,4.4199,4.5789,4.6484,4.6867,4.7654,4.8088,4.8357,4.8914,4.9025,4.9032,4.922,4.9232,4.9266,4.9317,4.9465,4.9329,4.8507,4.8433,4.837,4.8069,4.8055,4.8157,4.8185,4.8185,4.8293,4.8537,4.8632,4.8787,4.9107,4.922,4.9331,4.9473,4.9503,4.9422,4.9273,4.9167,4.8791,4.8049,4.7454,4.6305,4.4479,4.3029,4.1188,3.8842,3.7321,3.5619,3.3597,3.2589,3.2115,3.2032,3.1382,3.1188,-0.1464,0.0,0.1421,0.173,0.3313,0.4808,0.5067,0.6084,0.6856,0.6856,0.6975,0.7371,0.8479,0.6937,0.5746,0.6211,0.5639,0.5423,0.6178,0.663,0.6856,0.6856,0.6856,0.6856,0.6964,0.6964,0.7067,0.7379,0.7379,0.781,0.8676,0.8897,0.9541,1.0822,1.1345,1.2184,1.3322,1.5519,1.7075,1.8196,1.9463,2.0145,2.0244,2.2289,2.3061,2.2948,2.326,2.332,2.3681,2.8067,2.9851,3.0193,3.2661,3.4183,3.5164,3.7262,3.8537,3.9705,4.3225,4.4461,4.4851,4.7057,4.7958,4.8273,4.8863,4.9123,4.9194,4.913,4.9018,4.8877,4.8896,4.8916,4.8863,4.8584,4.8867,4.8716,4.7231,4.6881,4.6612,4.5748,4.5897,4.6166,4.6329,4.6365,4.664,4.7239,4.7288,4.7563,4.8445,4.8493,4.8594,4.8986,4.8984,4.9009,4.9085,4.8926,4.884,4.8849,4.7888,4.7254,4.7026,4.4594,4.2668,4.1311,3.8521,3.5765,3.3106,3.2589,3.2316,3.2258,3.1948,3.178,0.0274,0.0675,0.0808,0.2571,0.2847,0.2802,0.3689,0.489,0.5647,0.5647,0.6535,0.7064,0.6282,0.5059,0.4388,0.5431,0.467,0.402,0.4236,0.4348,0.4348,0.4348,0.4348,0.4781,0.5868,0.5976,0.6408,0.7272,0.7601,0.7708,0.7702,0.781,0.8455,0.9847,1.0151,1.0993,1.2376,1.3667,1.5013,1.6422,1.8155,1.9277,1.9663,2.0688,1.9946,1.8072,2.009,2.0956,2.1151,2.4341,2.6246,2.7362,2.8682,2.9822,3.1107,3.5918,3.8039,3.9248,4.4201,4.6413,4.7111,4.7213,4.75,4.7738,4.7397,4.7334,4.7493,4.8146,4.7793,4.7334,4.7722,4.7819,4.7783,4.772,4.8083,4.8349,4.7955,4.4549,4.1706,4.219,4.3575,4.4681,4.4705,4.5445,4.6083,4.6233,4.5416,4.4903,4.513,4.4301,4.3911,4.4546,4.4132,4.4219,4.5113,4.6078,4.677,4.6959,4.8047,4.8132,4.6961,4.5581,4.3168,3.9437,4.0492,3.9563,3.6438,3.6382,3.5864,3.4961,3.5359,3.5435,0.0822,0.1466,0.1556,0.1896,0.2253,0.2504,0.2722,0.3588,0.4453,0.4453,0.507,0.544,0.4579,0.348,0.2939,0.3588,0.3154,0.2722,0.2722,0.3154,0.348,0.348,0.348,0.3806,0.4673,0.4781,0.5215,0.5976,0.6305,0.6521,0.6404,0.6512,0.6943,0.7798,0.8442,0.9191,1.0045,1.1328,1.2586,1.3594,1.5781,1.724,1.8081,1.8371,1.6997,1.4393,1.5307,1.5994,1.6614,1.8021,1.906,1.9946,2.083,2.4351,2.9291,3.2495,3.5222,3.7805,4.1706,4.1768,4.0204,4.0597,4.1712,4.2844,4.25,4.3144,4.419,4.4582,4.472,4.4732,4.4914,4.4951,4.488,4.4723,4.4546,4.4008,4.2313,3.9869,3.8057,3.8118,3.9514,4.069,4.0626,4.1159,4.169,4.1971,4.1426,4.1111,4.1471,4.0966,4.0729,4.1196,4.0929,4.1,4.1641,4.2877,4.3821,4.4262,4.628,4.7168,4.6557,4.6536,4.4738,4.098,3.7603,3.3628,2.9061,2.9195,2.8885,2.8284,2.8778,2.8847,0.0551,0.2048,0.3003,0.0971,0.1741,0.272,0.1744,0.2395,0.3263,0.3263,0.3154,0.3046,0.3263,0.2286,0.1526,0.1745,0.1636,0.1526,0.1526,0.2395,0.3046,0.3046,0.3046,0.3154,0.3371,0.348,0.3697,0.4243,0.4572,0.4893,0.5102,0.5427,0.5647,0.5647,0.6512,0.7051,0.7158,0.887,0.9931,1.0348,1.2558,1.4136,1.5301,1.4589,1.2982,1.0779,0.981,0.9525,0.9633,0.9594,0.9215,0.8555,0.9462,1.5507,2.375,2.5164,2.8254,3.2195,3.5039,3.2758,2.8869,3.0296,3.273,3.5074,3.5103,3.6948,3.8968,3.8856,3.9681,4.0539,4.0355,4.0593,4.0755,4.0424,3.8569,3.6025,3.3002,3.317,3.3738,3.3062,3.3899,3.47,3.4861,3.4851,3.5012,3.5403,3.5283,3.5451,3.6253,3.6278,3.6456,3.7203,3.7187,3.738,3.7979,3.9098,3.9801,3.9779,4.2634,4.4259,4.4108,4.6473,4.5351,4.0167,3.1387,2.3664,1.7114,1.7404,1.7537,1.7452,1.7742,1.7791,0.019,0.1956,0.341,0.2999,0.1741,0.0545,0.0327,0.1199,0.207,0.207,0.1307,0.0871,0.1853,0.109,0.0654,0.1636,0.0981,0.0327,0.0327,0.0653,0.0871,0.0653,0.098,0.1632,0.2609,0.2173,0.239,0.3808,0.4016,0.4122,0.4446,0.499,0.5427,0.5647,0.5427,0.5531,0.5953,0.6492,0.7351,0.8543,0.8416,0.8823,0.9764,0.6403,0.4584,0.4162,0.4669,0.18,-0.3084,-0.1502,-0.3688,-0.7867,-0.7054,-0.5322,-0.221,0.633,0.973,1.1238,1.9443,2.1643,2.0792,2.09,2.2903,2.5369,2.5587,2.745,2.9562,3.0281,3.1373,3.2446,3.2689,3.4278,3.5834,3.5754,2.892,2.268,2.3393,2.3375,2.3649,2.5133,2.5616,2.6271,2.794,2.8184,2.7748,2.685,2.5634,2.4941,2.5115,2.4051,2.4464,2.7647,2.7517,2.8627,3.2181,3.3756,3.3005,2.9478,3.5592,3.7702,3.4161,4.281,3.9283,2.138,2.3121,2.0195,1.2111,1.259,1.2608,1.2209,1.2672,1.2325,0.1918,0.2054,0.2289,0.3952,0.2611,0.0763,0.0109,0.0436,0.0872,0.0872,0.0436,0.0218,0.0763,-0.0109,-0.0763,-0.0218,-0.1089,-0.185,-0.185,-0.1741,-0.1415,-0.0763,-0.098,-0.0653,0.1088,0.0435,0.0435,0.1523,0.1957,0.2173,0.239,0.2935,0.3371,0.3808,0.3911,0.38,0.3575,0.4662,0.5203,0.5191,0.6047,0.6462,0.6214,0.207,-0.1067,-0.343,-0.6482,-0.9224,-1.1691,-1.1617,-1.3226,-1.5763,-1.6494,-1.2742,-0.6452,-0.2207,0.1008,0.4045,0.9714,1.0049,0.8035,0.8954,1.2223,1.5832,1.5973,1.8191,2.0931,2.2446,2.3609,2.4659,2.5943,2.6908,2.7598,2.7935,2.1864,1.6271,1.7171,1.7951,1.8607,1.8939,1.9811,2.07,2.108,2.1429,2.1461,2.0702,2.0016,1.9585,1.9585,1.8973,1.9182,2.1014,2.0351,2.0662,2.2736,2.3486,2.3117,2.1376,2.5775,2.7598,2.5773,2.1762,1.5735,0.7649,0.7333,0.5952,0.3376,0.3268,0.3136,0.2864,0.2435,0.1887,0.3132,0.2432,0.159,0.381,0.3245,0.1744,0.0327,0.0,0.0,0.0,0.0,0.0109,0.0,-0.0872,-0.1526,-0.1636,-0.2613,-0.3371,-0.3265,-0.3263,-0.2828,-0.1744,-0.2178,-0.1959,-0.0436,-0.1199,-0.1525,-0.0871,-0.0653,-0.0435,0.0,0.0871,0.1417,0.1636,0.2487,0.2474,0.1505,0.2563,0.287,0.2224,0.3696,0.331,0.1292,-0.3814,-0.8124,-1.1981,-1.6957,-1.9352,-1.989,-2.1185,-2.2384,-2.3522,-2.4938,-1.9512,-1.0951,-1.086,-0.8099,-0.4061,-0.1502,-0.2679,-0.495,-0.3292,0.1233,0.5951,0.6053,0.843,1.1575,1.3022,1.4504,1.6045,1.774,1.8504,1.8658,1.7745,1.403,1.082,1.1537,1.2812,1.354,1.2861,1.3864,1.4561,1.379,1.3615,1.3855,1.4543,1.4638,1.4471,1.3928,1.3852,1.4156,1.5108,1.3891,1.3594,1.4971,1.4282,1.3573,1.315,1.4925,1.5635,1.4667,0.0684,-0.5823,-0.3186,-0.7038,-0.812,-0.6214,-0.7106,-0.7368,-0.7187,-0.8476,-0.9228,0.2024,0.2765,0.2962,0.1956,0.2553,0.272,0.0545,0.0,0.0,0.0,0.0218,0.0327,0.0,-0.0436,-0.0981,-0.1308,-0.2393,-0.3046,-0.2617,-0.2613,-0.2609,-0.2399,-0.1526,-0.109,-0.1199,-0.2502,-0.2937,-0.2064,-0.3147,-0.3364,-0.2283,0.0,0.0979,0.0218,0.1481,0.1768,0.0832,0.0,0.0099,0.1281,-0.0394,-0.3455,-0.7859,-1.5935,-2.0402,-2.1829,-2.1824,-2.5039,-3.0316,-3.0346,-3.3131,-3.7342,-3.6487,-3.466,-3.1989,-2.7369,-2.5353,-2.4295,-2.0395,-1.7407,-1.5254,-1.4332,-0.9961,-0.4978,-0.4658,-0.2527,-0.0314,-0.0627,0.2282,0.5475,0.5685,0.8887,1.0701,0.4658,0.2355,0.2257,0.4937,0.4819,0.4549,0.5719,0.5404,0.5105,0.5471,0.3326,0.2728,0.6141,0.6712,0.5864,0.3596,0.3336,0.4747,0.8561,0.6905,0.7887,1.3815,1.1262,0.7469,0.3043,0.4131,0.2281,-0.3718,-0.7688,-1.0247,-1.1153,-1.2443,-1.3691,-1.5034,-1.6468,-1.6739,-1.6027,-1.7057,-1.8332,0.2835,0.2471,0.1875,0.2662,0.2229,0.1416,0.0436,0.0109,0.0,0.0,0.0218,0.0327,0.0,-0.098,-0.1959,-0.2393,-0.3806,-0.4781,-0.4677,-0.4351,-0.4134,-0.3914,-0.3806,-0.348,-0.2939,-0.4023,-0.4348,-0.3263,-0.3586,-0.3448,-0.2643,-0.1161,-0.0523,-0.1127,-0.0202,-0.2102,-0.7015,-0.6804,-0.8579,-1.2175,-1.2324,-1.5731,-2.1961,-2.1654,-2.5527,-3.2293,-2.8433,-2.9845,-3.4849,-3.3456,-3.4098,-3.5905,-3.5273,-3.3517,-3.109,-2.982,-2.8332,-2.6551,-2.3546,-2.0979,-1.8939,-1.7642,-1.4186,-1.0608,-1.0992,-0.9785,-0.7964,-0.6279,-0.48,-0.3025,-0.0315,0.1365,0.1471,-0.2555,-0.3745,-0.332,-0.0751,-0.0211,-0.0,0.0794,0.105,0.101,0.062,0.0261,0.0517,0.1984,0.1986,0.1296,-0.0086,-0.0258,0.0257,0.1774,0.0844,0.1176,0.374,0.2408,0.0501,-0.1692,-0.2195,-0.4156,-0.8211,-0.9587,-1.0501,-1.1068,-1.2477,-1.3861,-1.4993,-1.6461,-1.733,-1.7647,-1.896,-1.9971,0.3154,0.2337,0.1358,0.2985,0.2179,0.0859,0.0429,0.0433,0.0327,0.0218,0.0218,0.0109,-0.0218,-0.1523,-0.2609,-0.3043,-0.4348,-0.5327,-0.5327,-0.5006,-0.4897,-0.489,-0.4998,-0.489,-0.4243,-0.5106,-0.5323,-0.4456,-0.4416,-0.4242,-0.3936,-0.2765,-0.2213,-0.245,-0.3404,-0.6373,-1.1706,-1.3004,-1.6091,-2.1008,-2.0385,-2.4679,-3.2915,-2.8631,-3.1016,-3.8364,-3.3924,-3.3919,-3.6917,-3.4922,-3.3983,-3.3621,-3.3029,-3.1379,-2.9453,-3.0121,-2.9056,-2.7085,-2.5341,-2.3295,-2.1142,-1.9628,-1.6857,-1.4297,-1.5035,-1.4835,-1.3795,-1.198,-1.1095,-0.9881,-0.6847,-0.6758,-0.7836,-0.8708,-0.8728,-0.7872,-0.5813,-0.4865,-0.4214,-0.3739,-0.316,-0.3064,-0.3915,-0.3455,-0.2848,-0.2679,-0.3107,-0.3534,-0.3706,-0.3527,-0.3527,-0.3699,-0.3963,-0.4139,-0.3967,-0.459,-0.5031,-0.5365,-0.639,-0.8095,-1.0475,-1.1072,-1.1405,-1.1478,-1.2908,-1.3961,-1.4744,-1.615,-1.7211,-1.7916,-1.9536,-2.0473,0.2354,0.2515,0.2409,0.2223,0.216,0.1865,0.0621,0.0851,0.1199,0.0872,0.0109,-0.0436,-0.0763,-0.1741,-0.2609,-0.3043,-0.3588,-0.3808,-0.3588,-0.3697,-0.4134,-0.4792,-0.4246,-0.4134,-0.4792,-0.5327,-0.5647,-0.5647,-0.6214,-0.6615,-0.661,-0.4993,-0.3914,-0.3716,-0.8182,-1.0627,-1.0681,-1.7494,-2.0938,-2.0989,-2.1741,-2.7924,-3.8606,-3.8553,-3.8527,-3.8446,-3.7597,-3.7115,-3.6818,-3.5389,-3.4238,-3.329,-3.188,-3.127,-3.1148,-3.0273,-2.9499,-2.8915,-2.8602,-2.6087,-2.2678,-2.1414,-1.8844,-1.6447,-1.7224,-1.7611,-1.8123,-1.9354,-1.7526,-1.5103,-1.5012,-1.6411,-1.7086,-1.4522,-1.3179,-1.1839,-1.0029,-0.9463,-0.8984,-0.808,-0.7882,-0.8162,-0.8907,-0.9377,-0.948,-0.8967,-0.9336,-0.9267,-0.8422,-0.7772,-0.7313,-0.7313,-0.7471,-0.7364,-0.7015,-0.7784,-0.8474,-0.8891,-0.8891,-1.0056,-1.2531,-1.3496,-1.4096,-1.434,-1.4747,-1.5299,-1.5896,-1.7319,-1.7977,-1.7916,-1.9743,-2.0957,0.305,0.2512,0.1942,0.2776,0.2159,0.1431,0.136,0.1439,0.1408,0.0528,0.0214,0.0,-0.0654,-0.2067,-0.3263,-0.3588,-0.5002,-0.5985,-0.5872,-0.5435,-0.5431,-0.6516,-0.5435,-0.5114,-0.6738,-0.6305,-0.6024,-0.6308,-0.6337,-0.7836,-1.1211,-1.0443,-1.19,-1.6192,-1.7334,-2.003,-2.4476,-2.6769,-2.979,-3.3486,-3.3576,-3.5392,-3.8653,-3.832,-3.793,-3.7542,-3.7114,-3.6384,-3.5428,-3.5015,-3.415,-3.308,-3.2045,-3.0701,-2.9245,-2.8963,-2.7925,-2.6641,-2.6319,-2.4807,-2.3048,-2.2872,-2.1748,-2.0495,-2.0703,-2.1054,-2.1178,-2.0362,-1.9803,-1.9428,-1.9239,-1.896,-1.8297,-1.6655,-1.5586,-1.4572,-1.3227,-1.241,-1.1789,-1.1055,-1.043,-0.9867,-0.9662,-0.9408,-0.9172,-0.9002,-0.9341,-0.9605,-0.9359,-0.9511,-0.9756,-1.0,-1.0056,-1.0037,-0.9943,-0.9775,-0.9785,-1.013,-1.1384,-1.2649,-1.3811,-1.461,-1.508,-1.5146,-1.6199,-1.7067,-1.7848,-1.8715,-1.9497,-2.0177,-2.0923,-2.1586,0.3828,0.2928,0.2079,0.2897,0.2469,0.1864,0.2152,0.188,0.1354,0.0408,0.0417,0.0321,-0.0962,-0.2481,-0.3588,-0.3697,-0.5006,-0.6094,-0.6516,-0.6188,-0.6183,-0.7368,-0.6619,-0.6408,-0.7391,-0.6851,-0.7346,-0.9684,-0.9435,-1.1596,-1.7081,-1.6662,-1.8151,-2.2191,-2.385,-2.6708,-3.079,-3.2961,-3.5665,-3.8879,-3.8753,-3.852,-3.8283,-3.7895,-3.7466,-3.7032,-3.6523,-3.5833,-3.5041,-3.4414,-3.3728,-3.2933,-3.2054,-3.076,-2.9363,-2.9273,-2.8188,-2.6725,-2.6284,-2.5284,-2.414,-2.3943,-2.3328,-2.2715,-2.2852,-2.2971,-2.2867,-2.1664,-2.1564,-2.1567,-2.1329,-2.0564,-1.9683,-1.91,-1.8005,-1.684,-1.5942,-1.4805,-1.3732,-1.3167,-1.2361,-1.1561,-1.1061,-1.0727,-1.0318,-0.9906,-1.0159,-1.0327,-0.9981,-1.0495,-1.0915,-1.1166,-1.1311,-1.1467,-1.1561,-1.129,-1.1384,-1.1727,-1.3389,-1.4557,-1.499,-1.543,-1.5881,-1.6278,-1.7083,-1.802,-1.9021,-1.9439,-2.0274,-2.1668,-2.214,-2.2885,0.4604,0.3655,0.2873,0.2873,0.2876,0.2961,0.2953,0.2285,0.1273,0.0391,0.0704,0.0413,-0.1655,-0.2761,-0.3469,-0.3694,-0.4249,-0.5009,-0.6066,-0.6277,-0.6604,-0.7685,-0.7685,-0.7476,-0.7072,-0.7419,-0.9771,-1.4936,-1.513,-1.7707,-2.3932,-2.3444,-2.3242,-2.3749,-2.8588,-3.1203,-3.1278,-3.6333,-3.8668,-3.8259,-3.8247,-3.8055,-3.7691,-3.7415,-3.7132,-3.68,-3.594,-3.5553,-3.5319,-3.3728,-3.308,-3.2982,-3.1928,-3.1395,-3.1148,-3.0737,-2.9826,-2.8636,-2.795,-2.6944,-2.5666,-2.4585,-2.3853,-2.3424,-2.359,-2.3489,-2.3314,-2.3234,-2.2686,-2.2103,-2.17,-2.1387,-2.1218,-2.1444,-2.0043,-1.8549,-1.8067,-1.6625,-1.5235,-1.4763,-1.3974,-1.3237,-1.3003,-1.3073,-1.2814,-1.1749,-1.1772,-1.1594,-1.081,-1.1061,-1.1322,-1.1322,-1.1655,-1.1904,-1.2176,-1.259,-1.3123,-1.3886,-1.5171,-1.5967,-1.6193,-1.6273,-1.6721,-1.7682,-1.7811,-1.853,-1.9837,-1.9893,-2.0791,-2.2455,-2.3242,-2.4601,0.5127,0.4431,0.4084,0.4084,0.3773,0.3493,0.3653,0.2617,0.1458,0.066,0.029,-0.0401,-0.206,-0.271,-0.3696,-0.5837,-0.7641,-0.8705,-0.8487,-0.8455,-0.8354,-0.8139,-0.7385,-0.7061,-0.7498,-1.1501,-1.482,-1.6781,-2.0514,-2.5128,-3.0819,-2.9798,-3.103,-3.5374,-3.6724,-3.7254,-3.6982,-3.825,-3.8616,-3.8147,-3.7936,-3.7687,-3.7388,-3.7145,-3.6591,-3.5864,-3.5744,-3.5149,-3.417,-3.3792,-3.3591,-3.3369,-3.224,-3.1875,-3.1762,-3.0029,-2.8944,-2.8215,-2.7566,-2.6803,-2.6046,-2.5357,-2.4884,-2.436,-2.3436,-2.3358,-2.3329,-2.2086,-2.2202,-2.2589,-2.1881,-2.106,-2.0453,-2.0553,-1.9744,-1.8891,-1.8807,-1.8222,-1.7692,-1.7508,-1.7051,-1.6405,-1.5736,-1.5481,-1.5146,-1.4272,-1.4448,-1.4529,-1.4353,-1.3892,-1.3729,-1.4029,-1.3553,-1.3402,-1.3974,-1.4055,-1.5429,-1.8474,-1.9139,-1.9227,-1.875,-1.94,-1.9692,-1.9458,-2.0674,-2.1548,-2.186,-2.2695,-2.3297,-2.3683,-2.4274,-2.4924,0.6916,0.6064,0.5553,0.5295,0.4775,0.403,0.3417,0.2256,0.0925,-0.0542,-0.0743,-0.1255,-0.3207,-0.3525,-0.4049,-0.6061,-0.771,-0.8861,-0.924,-0.9105,-0.8897,-0.8689,-1.1027,-1.2566,-1.2398,-1.8112,-2.2974,-2.5713,-2.8488,-3.2489,-3.7957,-3.6725,-3.7216,-4.0274,-3.9492,-3.8879,-3.8587,-3.9706,-4.0119,-3.9725,-3.9366,-3.9137,-3.9003,-3.8542,-3.8086,-3.7624,-3.7189,-3.6246,-3.4931,-3.4597,-3.3924,-3.3014,-3.2158,-3.1792,-3.155,-3.0057,-2.9301,-2.8944,-2.8092,-2.7429,-2.6815,-2.6375,-2.598,-2.5472,-2.4635,-2.436,-2.4083,-2.2887,-2.2744,-2.2815,-2.2075,-2.1241,-2.0615,-2.079,-2.0165,-1.9533,-1.9771,-1.9252,-1.8715,-1.8792,-1.8603,-1.8123,-1.7162,-1.6831,-1.653,-1.588,-1.5939,-1.6208,-1.659,-1.6481,-1.6411,-1.665,-1.6396,-1.6396,-1.6819,-1.6904,-1.7892,-2.0147,-2.0373,-2.0356,-2.0108,-2.0695,-2.101,-2.0968,-2.2052,-2.2773,-2.3197,-2.3744,-2.4273,-2.4764,-2.5544,-2.6426,0.8874,0.794,0.71,0.642,0.5472,0.4348,0.2957,0.1568,0.0087,-0.1914,-0.1978,-0.2339,-0.4373,-0.5335,-0.6405,-0.7732,-0.9255,-1.0839,-1.2337,-1.224,-1.2046,-1.2163,-1.7505,-2.0776,-1.9579,-2.5859,-3.1711,-3.5769,-3.6883,-3.9397,-4.4088,-4.2683,-4.1732,-4.1742,-4.0095,-3.9086,-3.8786,-4.0906,-4.1824,-4.1532,-4.1075,-4.0835,-4.0835,-4.0204,-3.985,-3.976,-3.8929,-3.7698,-3.6417,-3.5814,-3.4542,-3.302,-3.2473,-3.2126,-3.177,-3.1149,-3.0803,-3.0482,-2.9611,-2.8698,-2.7881,-2.7329,-2.6893,-2.6465,-2.603,-2.5563,-2.5071,-2.4917,-2.4329,-2.3662,-2.3009,-2.222,-2.1738,-2.2079,-2.1381,-2.0676,-2.1038,-2.0407,-1.9849,-1.9966,-1.9966,-1.9658,-1.8487,-1.8425,-1.8232,-1.7533,-1.7542,-1.7745,-1.8395,-1.8667,-1.8876,-1.8965,-1.9159,-1.9336,-1.9601,-1.9601,-2.0054,-2.1001,-2.1001,-2.1072,-2.1266,-2.1405,-2.1817,-2.2541,-2.293,-2.3581,-2.444,-2.4667,-2.5224,-2.6054,-2.7009,-2.8284,0.9306,0.8798,0.8288,0.6586,0.5208,0.3998,0.3221,0.0957,-0.1044,-0.1217,-0.2425,-0.3739,-0.4667,-0.9963,-1.5062,-1.7978,-2.233,-2.5454,-2.6088,-2.6384,-2.6356,-2.5819,-2.682,-2.7258,-2.6521,-3.2653,-3.6896,-3.7539,-4.1968,-4.5075,-4.6049,-4.4368,-4.3377,-4.3392,-4.276,-4.2031,-4.1117,-4.1576,-4.1606,-4.1075,-4.0504,-4.0204,-4.017,-3.9517,-3.906,-3.8731,-3.8664,-3.8044,-3.7028,-3.6997,-3.6514,-3.5716,-3.5321,-3.5118,-3.5001,-3.4585,-3.3609,-3.2591,-3.2647,-3.133,-2.926,-2.7614,-2.7021,-2.67,-2.5539,-2.5294,-2.5771,-2.7675,-2.7661,-2.7055,-2.6979,-2.5797,-2.4611,-2.4691,-2.3988,-2.3336,-2.3336,-2.3254,-2.3172,-2.3152,-2.3418,-2.3254,-2.2269,-2.2556,-2.2448,-2.1061,-2.1061,-2.1286,-2.1068,-2.0373,-2.0111,-2.0286,-1.9655,-1.9375,-1.9639,-1.9639,-2.0907,-2.3893,-2.4266,-2.436,-2.436,-2.3866,-2.3827,-2.409,-2.5142,-2.6113,-2.7043,-2.8068,-2.8639,-2.8793,-2.9122,-2.9451,1.0149,0.9644,0.9137,0.6757,0.4767,0.3038,0.1913,-0.0261,-0.3047,-0.6737,-0.8867,-1.1325,-1.5382,-1.9682,-2.3157,-2.4675,-2.7339,-2.933,-2.9739,-2.987,-2.9863,-2.9563,-3.2036,-3.3684,-3.3366,-3.9658,-4.3692,-4.3512,-4.5798,-4.7178,-4.7205,-4.5456,-4.4469,-4.4478,-4.3472,-4.3184,-4.3795,-4.35,-4.3245,-4.2981,-4.2277,-4.1922,-4.1922,-4.1385,-4.1074,-4.0862,-4.0407,-3.9458,-3.8255,-3.8052,-3.7183,-3.6046,-3.6017,-3.5812,-3.5422,-3.456,-3.3989,-3.348,-3.2781,-3.2048,-3.1141,-3.0017,-2.9389,-2.8873,-2.8086,-2.7876,-2.8171,-2.9338,-2.8719,-2.7775,-2.7775,-2.6558,-2.5277,-2.5337,-2.4626,-2.4007,-2.4338,-2.4338,-2.4235,-2.4482,-2.4667,-2.4482,-2.38,-2.3924,-2.3918,-2.3257,-2.2946,-2.2939,-2.3263,-2.257,-2.2093,-2.2185,-2.1799,-2.1689,-2.1891,-2.2351,-2.3246,-2.4792,-2.5038,-2.5133,-2.5341,-2.5453,-2.5741,-2.6124,-2.7309,-2.8135,-2.8589,-2.9057,-2.9367,-2.9367,-2.9936,-3.026,1.1788,0.0,1.0133,0.7546,0.4951,0.2171,0.0,-0.3273,-0.6773,-1.3476,-1.6342,-1.9193,-2.4378,-2.8205,-3.0715,-3.1086,-3.2724,-3.4388,-3.5519,-3.5254,-3.501,-3.5001,-3.8173,-4.0308,-4.0219,-4.52,-4.8298,-4.807,-4.7967,-4.793,-4.7801,-4.6419,-4.5607,-4.5506,-4.4225,-4.4165,-4.5549,-4.512,-4.4776,-4.4582,-4.3889,-4.3551,-4.3411,-4.2984,-4.2729,-4.2616,-4.1811,-4.0702,-3.9401,-3.9007,-3.7966,-3.6596,-3.6809,-3.6687,-3.6193,-3.5236,-3.4945,-3.4916,-3.3708,-3.3267,-3.3115,-3.2621,-3.1903,-3.1013,-3.0605,-3.0629,-3.089,-3.089,-2.9933,-2.8818,-2.8818,-2.7738,-2.6661,-2.6743,-2.6084,-2.5439,-2.5711,-2.5627,-2.546,-2.5565,-2.5627,-2.5544,-2.5144,-2.5144,-2.5136,-2.5084,-2.4536,-2.4314,-2.4924,-2.4336,-2.3858,-2.4032,-2.3858,-2.3858,-2.4164,-2.5114,-2.5678,-2.5678,-2.5659,-2.5846,-2.6052,-2.6712,-2.7241,-2.7716,-2.8903,-2.9521,-2.9609,-2.9871,-2.9958,-3.0045,-3.0713,-3.1032,0.0,1.336,1.16,0.9414,0.626,0.1744,-0.5365,-0.9533,0.0,-1.9069,-2.2454,-2.4395,-2.4404,-3.1354,-3.7526,-3.8983,-4.3311,-4.7683,-5.1013,-5.0175,-4.9297,-4.9442,-4.8288,-4.7358,-4.7113,-4.7553,-4.7739,-4.7522,-4.7679,-4.7838,-4.7811,-4.7437,-4.7129,-4.6737,-4.6018,-4.5549,-4.5362,-4.5408,-4.5001,-4.4148,-4.387,-4.3485,-4.3006,-4.2592,-4.2165,-4.1692,-4.1632,-4.0896,-3.9816,-4.0041,-3.9589,-3.8871,-3.9102,-3.9198,-3.9198,-3.9198,-3.8737,-3.8132,-3.7674,-3.6508,-3.5224,-3.4639,-3.3446,-3.2199,-3.1577,-3.2283,-3.3203,-3.3203,-3.2529,-3.1788,-3.1788,-3.1204,-3.0697,-3.0673,-3.0052,-2.9274,-2.8463,-2.8286,-2.8041,-2.7228,-2.7297,-2.7457,-2.7367,-2.7547,-2.7499,-2.6763,-2.658,-2.6396,-2.5973,-2.5264,-2.4981,-2.5507,-2.4981,-2.4735,-2.4944,-2.6476,-2.7464,-2.7464,-2.7555,-2.7625,-2.7625,-2.7716,-2.7875,-2.8102,-2.9212,-2.9913,-3.03,-3.1395,-3.1864,-3.1864,-3.1924,-3.1948,1.7125,1.4473,1.1494,0.6841,0.3452,-0.0538,-0.8084,-1.2442,-1.7353,-2.5851,-3.0061,-3.3227,-3.6629,-4.0892,-4.4179,-4.51,-4.6879,-4.936,-5.2738,-5.1687,-5.0937,-5.1809,-4.9272,-4.7448,-4.7448,-4.7448,-4.731,-4.6952,-4.7025,-4.6989,-4.673,-4.6538,-4.6295,-4.5913,-4.5697,-4.5419,-4.494,-4.46,-4.425,-4.387,-4.3214,-4.2794,-4.2592,-4.2454,-4.2281,-4.2165,-4.1358,-4.0802,0.0,-3.974,-3.9371,-3.9072,-3.9401,-3.9334,-3.9093,-3.8592,-3.8245,-3.7892,-3.7319,-3.6791,-3.6496,-3.6281,-3.5829,-3.5224,-3.4475,-3.4198,-3.4049,-3.3703,-3.3081,-3.2556,-3.2556,-3.19,-3.1178,-3.1178,-3.0581,-2.989,-2.9693,-2.919,-2.8792,-2.8568,-2.8209,-2.7848,-2.7848,-2.7939,-2.7848,-2.7597,-2.712,-2.6753,-2.6569,-2.59,-2.5507,-2.6086,-2.5919,-2.5846,-2.5939,-2.6825,-2.7353,-2.7353,-2.7625,-2.7896,-2.7987,-2.8703,-2.9146,-2.9411,-3.0455,-3.114,-3.131,-3.184,-3.2115,-3.2115,-3.2115,-3.2115,1.7319,1.1569,0.5762,0.1155,-0.3588,-0.8908,-1.5912,-1.9849,-2.4458,-3.3049,-3.711,-4.0218,-4.3896,-4.6152,-4.744,-4.7734,-4.7832,-4.9055,-5.2362,-5.1344,-5.0777,-5.2175,-4.9757,-4.7779,-4.7205,-4.7097,-4.6914,-4.6689,-4.6609,-4.6411,-4.6013,-4.5921,-4.5609,-4.5001,-4.5083,-4.4892,-4.4368,-4.3941,-4.3625,-4.3485,-4.285,-4.2511,-4.2371,-4.2223,-4.2106,-4.1957,-4.0927,-4.0423,-4.0359,-3.9542,-3.9169,-3.9169,-3.9266,-3.9131,-3.8789,-3.8145,-3.7963,-3.785,-3.7247,-3.7174,-3.7319,-3.7202,-3.6983,-3.6661,-3.6139,-3.5734,-3.5352,-3.4628,-3.3863,-3.3213,-3.2886,-3.2316,-3.1851,-3.1851,-3.1431,-3.1032,-3.0923,-3.0346,-2.9936,-2.9784,-2.9257,-2.8792,-2.8792,-2.8657,-2.8389,-2.8389,-2.7758,-2.7212,-2.7212,-2.6548,-2.6178,-2.6661,-2.6456,-2.6733,-2.7716,-2.8077,-2.8346,-2.8346,-2.8614,-2.8792,-2.8991,-2.9696,-3.0132,-3.0415,-3.1188,-3.1696,-3.1864,-3.1948,-3.2032,-3.2115,-3.2115,-3.2115,1.4881,0.4038,-0.6342,-0.7474,-1.5076,-2.3951,-3.0084,-3.2914,-3.5618,-4.0594,-4.3168,-4.431,-4.366,-4.5356,-4.6766,-4.6491,-4.6719,-4.8014,-5.1392,-5.0541,-5.0187,-5.1843,-5.0767,-4.9145,-4.7204,-4.6763,-4.6644,-4.6644,-4.6411,-4.6172,-4.5851,-4.5851,-4.5406,-4.4351,-4.4351,-4.4148,-4.3765,-4.3765,-4.3485,-4.2951,-4.2951,-4.2761,-4.2371,-4.1811,-4.1297,-4.0834,-4.0421,-3.9963,-3.9468,-3.9468,-3.9468,-3.9401,-3.8995,-3.8887,-3.8858,-3.8563,-3.8465,-3.8395,-3.8005,-3.7863,-3.7821,-3.7348,-3.6587,-3.5961,-3.5961,-3.6661,-3.7275,-3.6364,-3.5121,-3.3809,-3.305,-3.2968,-3.305,-3.305,-3.3269,-3.3188,-3.2282,-3.2115,-3.184,-3.0861,-3.069,-3.069,-3.069,-2.9936,-2.9367,-2.9367,-2.8568,-2.8029,-2.8029,-2.7324,-2.6957,-2.7253,-2.6569,-2.7353,-3.0415,-3.0697,-3.0697,-3.0697,-3.0697,-3.0697,-3.0697,-3.0697,-3.0869,-3.1079,-3.1079,-3.1358,-3.1864,-3.1864,-3.1948,-3.2115,-3.2115,-3.2115,1.4697,0.1938,-1.1382,-1.5452,-1.8674,-2.278,-3.0102,-3.3106,-3.5758,-4.0758,-4.332,-4.4689,-4.4767,-4.5452,-4.6102,-4.627,-4.7574,-4.8723,-4.9379,-4.9043,-4.8924,-4.9438,-4.8076,-4.6817,-4.6153,-4.6076,-4.5948,-4.5599,-4.5643,-4.5554,-4.5108,-4.4872,-4.4631,-4.4351,-4.4045,-4.387,-4.3765,-4.3345,-4.3149,-4.2951,-4.2249,-4.187,-4.1811,-4.1175,-4.0989,-4.1051,-4.0515,-4.0193,-4.0098,-3.9735,-3.9535,-3.9468,-3.9505,-3.8936,-3.8034,-3.8075,-3.7507,-3.6763,-3.6882,-3.6955,-3.6955,-3.713,-3.6983,-3.6661,-3.6139,-3.5734,-3.5352,-3.4602,-3.405,-3.3597,-3.305,-3.2886,-3.2886,-3.305,-3.3131,-3.3131,-3.3025,-3.2506,-3.2032,-3.1756,-3.114,-3.069,-3.069,-3.0432,-3.0283,-3.0283,-2.9871,-2.9367,-2.9014,-2.8747,-2.8657,-2.8747,-2.8209,-2.8209,-2.9102,-2.9894,-3.0329,-3.0329,-3.0525,-3.0697,-3.0697,-3.0697,-3.0784,-3.0869,-3.1017,-3.1164,-3.1358,-3.1696,-3.1864,-3.1948,-3.2032,-3.2115,0.7217,-0.6156,-1.9624,-2.3236,-2.5946,-2.9192,-3.4769,-3.6344,-3.7568,-4.1075,-4.2797,-4.4012,-4.5092,-4.5111,-4.5282,-4.6401,-4.7204,-4.7796,-4.8237,-4.7756,-4.7564,-4.829,-4.6908,-4.5827,-4.574,-4.587,-4.574,-4.527,-4.527,-4.4988,-4.4351,-4.4148,-4.396,-4.377,-4.3559,-4.3323,-4.3192,-4.2906,-4.2705,-4.2705,-4.2106,-4.1692,-4.1571,-4.0989,-4.074,-4.0802,-4.0193,-3.9998,-4.0033,-3.9735,-3.9334,-3.8965,-3.9004,-3.8285,-3.7291,-3.7363,-3.6882,-3.6269,-3.6689,-3.6735,-3.6808,-3.7057,-3.713,-3.7057,-3.6587,-3.6139,-3.5658,-3.5402,-3.5041,-3.4809,-3.4576,-3.4366,-3.4049,-3.3729,-3.3674,-3.3674,-3.3513,-3.3025,-3.2614,-3.2614,-3.215,-3.1792,-3.1792,-3.1455,-3.1225,-3.1225,-3.0479,-2.9719,-2.9367,-2.9014,-2.8836,-2.8836,-2.8836,-2.8925,-2.9191,-2.9807,-3.0155,-3.0329,-3.0588,-3.0697,-3.0697,-3.0697,-3.0697,-3.0697,-3.0846,-3.1017,-3.1079,-3.1443,-3.1612,-3.172,-3.1804,-3.2022,-0.4161,-1.7181,-2.8968,-3.0112,-3.4488,-3.909,-4.1212,-4.0645,-3.9994,-4.1347,-4.1861,-4.2777,-4.4816,-4.452,-4.4617,-4.6803,-4.6349,-4.627,-4.7886,-4.6764,-4.6382,-4.7894,-4.6708,-4.5766,-4.5766,-4.5886,-4.5793,-4.5453,-4.5083,-4.4517,-4.3765,-4.3712,-4.3432,-4.3006,-4.2896,-4.2761,-4.2371,-4.2371,-4.2339,-4.2396,-4.2223,-4.193,-4.1571,-4.0958,-4.0487,-4.0159,-3.9668,-3.9401,-3.9334,-3.9401,-3.8897,-3.8204,-3.7793,-3.7218,-3.6513,-3.6587,-3.6513,-3.6513,-3.691,-3.7057,-3.7057,-3.713,-3.7214,-3.7299,-3.7299,-3.7461,-3.7521,-3.7593,-3.7174,-3.6752,-3.6882,-3.6438,-3.5658,-3.4733,-3.4524,-3.4287,-3.3593,-3.3432,-3.3432,-3.3432,-3.3432,-3.3432,-3.3432,-3.2779,-3.2174,-3.2174,-3.0737,-2.9631,-2.9631,-2.8836,-2.8364,-2.8626,-2.9457,-3.0144,-3.0605,-3.067,-3.0844,-3.1237,-3.1237,-3.1151,-3.1064,-3.1064,-3.1064,-3.0977,-3.0977,-3.1151,-3.1386,-3.1386,-3.1472,-3.1777,-3.1777,-3.2279,-0.5192,-1.7949,-3.0097,-3.195,-3.34,-3.4774,-3.6354,-3.7459,-3.864,-4.0081,-4.1112,-4.228,-4.416,-4.5026,-4.5931,-4.7579,-4.8401,-4.8401,-4.7295,-4.6985,-4.6569,-4.576,-4.5348,-4.5108,-4.5108,-4.5142,-4.5142,-4.5036,-4.4699,-4.425,-4.3765,-4.3345,-4.3094,-4.2951,-4.2649,-4.2454,-4.2371,-4.1989,-4.2048,-4.2511,-4.1051,-4.0708,-4.1267,-4.0037,-3.9475,-3.9602,-3.9468,-3.9101,-3.8552,-3.8661,-3.8145,-3.7391,-3.7521,-3.719,-3.6587,-3.6679,-3.6438,-3.6119,-3.6513,-3.6661,-3.6735,-3.7057,-3.7835,-3.8653,-3.8748,-3.8216,-3.7448,-3.691,-3.6735,-3.6411,-3.5755,-3.5501,-3.5145,-3.434,-3.3729,-3.3432,-3.3432,-3.3432,-3.3432,-3.3432,-3.3432,-3.3432,-3.3432,-3.3269,-3.3106,-3.3106,-3.2531,-3.1948,-3.1527,-3.0713,-3.0947,-3.3094,-3.3856,-3.431,-3.4424,-3.4646,-3.4914,-3.5028,-3.5028,-3.467,-3.4086,-3.411,-3.3812,-3.3191,-3.3191,-3.3191,-3.3284,-3.3492,-3.3608,-3.3608,-3.386,-3.4071,-1.0323,-1.9096,-2.7175,-2.9445,-3.0091,-3.1013,-3.4178,-3.5068,-3.5994,-3.8512,-3.9241,-4.0185,-4.2773,-4.3934,-4.4948,-4.6294,-4.7366,-4.7359,-4.5594,-4.5752,-4.568,-4.4717,-4.4796,-4.4892,-4.4892,-4.4713,-4.465,-4.465,-4.425,-4.4436,-4.5388,-4.4961,-4.4726,-4.4726,-4.4246,-4.397,-4.397,-4.3436,-4.3372,-4.3689,-4.2724,-4.2423,-4.2556,-4.1812,-4.1396,-4.1356,-4.1356,-4.1074,-4.0687,-4.034,-3.9708,-3.8907,-3.8593,-3.8156,-3.7713,-3.7972,-3.8,-3.8083,-3.8445,-3.8572,-3.8649,-3.8831,-3.9436,-4.0129,-4.0178,-3.9905,-3.9391,-3.9135,-3.906,-3.8879,-3.8051,-3.7788,-3.7552,-3.6697,-3.6012,-3.548,-3.5648,-3.5286,-3.5032,-3.5032,-3.5032,-3.5032,-3.5032,-3.5032,-3.5032,-3.5032,-3.4606,-3.415,-3.389,-3.3341,-3.3575,-3.505,-3.5147,-3.5147,-3.5538,-3.5811,-3.5967,-3.6147,-3.6147,-3.5967,-3.5562,-3.5562,-3.5355,-3.492,-3.4573,-3.441,-3.441,-3.4152,-3.3963,-3.4058,-3.4316,-3.4671,-1.4829,-1.927,-2.2694,-2.5414,-2.657,-2.8221,-3.2794,-3.36,-3.4314,-3.7422,-3.8088,-3.8974,-4.2245,-4.337,-4.4226,-4.5323,-4.599,-4.5812,-4.4276,-4.4333,-4.4452,-4.425,-4.4468,-4.4699,-4.4699,-4.4401,-4.43,-4.4535,-4.4416,-4.5077,-4.7021,-4.681,-4.6589,-4.6461,-4.5974,-4.5611,-4.5544,-4.5001,-4.4825,-4.4932,-4.4724,-4.4475,-4.415,-4.4079,-4.379,-4.332,-4.332,-4.3246,-4.3098,-4.2131,-4.1354,-4.0503,-3.9711,-3.921,-3.9015,-3.9407,-3.9932,-4.0397,-4.0665,-4.0826,-4.0882,-4.1333,-4.1495,-4.1486,-4.1486,-4.1503,-4.1597,-4.1754,-4.1832,-4.1675,-4.1065,-4.0906,-4.0637,-3.9794,-3.9072,-3.8591,-3.8446,-3.7816,-3.7177,-3.7,-3.6823,-3.676,-3.676,-3.676,-3.676,-3.676,-3.6287,-3.5901,-3.5901,-3.6158,-3.6497,-3.6748,-3.6147,-3.5962,-3.6564,-3.6656,-3.6748,-3.7087,-3.7087,-3.6996,-3.6905,-3.6905,-3.6814,-3.6723,-3.6035,-3.5687,-3.5687,-3.5027,-3.4647,-3.4575,-3.4837,-3.5288,-1.2627,-1.6259,-1.886,-2.2799,-2.5303,-2.7543,-3.0107,-3.3777,-3.6965,-3.8473,-4.0654,-4.3007,-4.4996,-4.6573,-4.7605,-4.7872,-4.7764,-4.7079,-4.5478,-4.4475,-4.387,-4.3818,-4.3837,-4.3889,-4.3889,-4.387,-4.4316,-4.558,-4.6032,-4.636,-4.6684,-4.6653,-4.6332,-4.5643,-4.5678,-4.5477,-4.5032,-4.4475,-4.4545,-4.5039,-4.4018,-4.3832,-4.4303,-4.3687,-4.3394,-4.332,-4.332,-4.2919,-4.2237,-4.1354,-4.0503,-3.9711,-3.921,-3.9099,-3.9463,-3.9959,-4.0369,-4.0745,-4.0797,-4.0826,-4.1164,-4.328,-4.3365,-4.2574,-4.2683,-4.2055,-4.131,-4.1675,-4.1832,-4.1832,-4.1909,-4.1987,-4.1754,-4.0986,-4.0745,-4.0394,-3.9629,-3.938,-3.9045,-3.8248,-3.7379,-3.676,-3.676,-3.676,-3.676,-3.676,-3.6645,-3.6645,-3.6645,-3.8833,-4.0513,-4.0795,-4.0675,-4.0675,-4.0795,-4.0795,-4.0795,-4.0889,-4.0889,-4.0581,-3.9892,-3.9892,-3.9509,-3.8881,-3.8783,-3.8685,-3.8685,-3.8587,-3.8193,-3.7497,-3.7597,-3.7291,-1.1913,-1.5606,-1.8933,-2.2235,-2.5051,-2.7925,-3.0846,-3.3658,-3.6362,-3.861,-3.9734,-4.0986,-4.3266,-4.5461,-4.6542,-4.5517,-4.7199,-4.7821,-4.5385,-4.5628,-4.5954,-4.576,-4.5898,-4.601,-4.601,-4.5841,-4.5932,-4.659,-4.7198,-4.7835,-4.8634,-4.8223,-4.7771,-4.7518,-4.7487,-4.7271,-4.6791,-4.6118,-4.5966,-4.6314,-4.5736,-4.5689,-4.5966,-4.5659,-4.5534,-4.5534,-4.4956,-4.4609,-4.4126,-4.2716,-4.206,-4.186,-4.1099,-4.1275,-4.1946,-4.226,-4.2517,-4.2942,-4.2942,-4.2942,-4.3026,-4.4152,-4.4385,-4.4159,-4.4243,-4.404,-4.3857,-4.3992,-4.4073,-4.3992,-4.3581,-4.3498,-4.3249,-4.2348,-4.1745,-4.1397,-4.1457,-4.1133,-4.0806,-4.0868,-4.0574,-4.0034,-3.954,-3.9879,-3.9879,-3.8826,-3.929,-3.954,-3.9105,-4.0169,-4.1075,-4.136,-4.136,-4.1455,-4.1549,-4.1643,-4.1643,-4.1643,-4.1643,-4.1455,-4.1118,-4.1144,-4.0954,-4.0571,-4.0184,-3.9697,-3.923,-3.8833,-3.8433,-3.8131,-3.8208,-3.8409,-1.1814,-1.5417,-1.9323,-2.2222,-2.575,-2.9127,-3.2003,-3.431,-3.655,-3.8919,-3.956,-4.031,-4.2401,-4.4936,-4.6145,-4.4353,-4.7005,-4.8295,-4.555,-4.6495,-4.739,-4.7119,-4.7423,-4.763,-4.763,-4.7423,-4.7506,-4.8257,-4.8748,-4.9434,-5.0276,-4.9917,-4.9342,-4.8743,-4.8969,-4.8667,-4.7955,-4.748,-4.7239,-4.7239,-4.7239,-4.7239,-4.7239,-4.7239,-4.7239,-4.7159,-4.6559,-4.6115,-4.578,-4.4346,-4.3726,-4.3671,-4.3005,-4.3214,-4.396,-4.4049,-4.4226,-4.449,-4.449,-4.449,-4.4519,-4.4606,-4.484,-4.5186,-4.5243,-4.5471,-4.5696,-4.5809,-4.5809,-4.5641,-4.5014,-4.4841,-4.4668,-4.3909,-4.3222,-4.2859,-4.3643,-4.3312,-4.295,-4.3374,-4.3526,-4.3194,-4.2336,-4.252,-4.2217,-4.0596,-4.117,-4.1549,-4.098,-4.0884,-4.098,-4.1265,-4.1265,-4.136,-4.1549,-4.1643,-4.1643,-4.1643,-4.1643,-4.1643,-4.1643,-4.1643,-4.1643,-4.1643,-4.1049,-4.0449,-3.9918,-3.9304,-3.8908,-3.8709,-3.8685,-3.8908,-1.2127,-1.5271,-1.8402,-2.2558,-2.7283,-3.1183,-3.2385,-3.615,-3.9449,-3.9597,-4.2002,-4.4183,-4.4842,-4.7277,-4.8716,-4.7277,-4.8119,-4.8362,-4.6621,-4.6589,-4.678,-4.6873,-4.6873,-4.6998,-4.7245,-4.7278,-4.8357,-5.106,-5.132,-5.1045,-5.0411,-5.0972,-5.0276,-4.7955,-4.8818,-4.859,-4.7138,-4.7189,-4.7239,-4.7239,-4.7239,-4.7239,-4.7239,-4.7239,-4.7239,-4.7239,-4.7159,-4.6641,-4.5864,-4.5386,-4.4581,-4.376,-4.3815,-4.3843,-4.396,-4.4314,-4.449,-4.449,-4.449,-4.449,-4.4606,-4.4781,-4.4868,-4.4955,-4.5243,-4.5329,-4.5414,-4.5613,-4.5698,-4.5669,-4.5809,-4.578,-4.578,-4.5696,-4.5696,-4.5696,-4.6061,-4.6061,-4.578,-4.5129,-4.4957,-4.4698,-4.376,-4.2977,-4.2018,-4.098,-4.0814,-4.098,-4.117,-4.117,-4.1265,-4.1549,-4.1549,-4.1549,-4.1643,-4.1643,-4.1643,-4.1643,-4.1643,-4.1643,-4.1643,-4.1643,-4.1643,-4.1643,-4.1549,-4.1549,-4.1455,-4.1455,-4.1049,-4.0352,-3.9599,-3.8833,-1.3897,-1.7696,-2.169,-2.5199,-2.9135,-3.266,-3.4536,-3.6964,-3.9082,-4.0781,-4.207,-4.3347,-4.5157,-4.6826,-4.7624,-4.6402,-4.778,-4.848,-4.7124,-4.7622,-4.8188,-4.8227,-4.8711,-4.9155,-4.9222,-4.9986,-5.0735,-5.132,-5.0839,-5.0418,-5.0133,-4.9225,-4.8391,-4.748,-4.7767,-4.7719,-4.7189,-4.7269,-4.7239,-4.7239,-4.7239,-4.7239,-4.7239,-4.7239,-4.7239,-4.7159,-4.5948,-4.5442,-4.5386,-4.3965,-4.3637,-4.3904,-4.3932,-4.4049,-4.4314,-4.4402,-4.449,-4.4519,-4.4694,-4.4781,-4.4781,-4.51,-4.5272,-4.5472,-4.55,-4.5585,-4.5725,-4.5809,-4.5809,-4.5809,-4.5864,-4.5864,-4.5864,-4.5864,-4.5442,-4.5186,-4.5894,-4.5527,-4.5271,-4.5527,-4.5157,-4.4639,-4.4493,-4.3159,-4.1831,-4.098,-4.1075,-4.136,-4.1455,-4.1455,-4.1549,-4.1549,-4.1643,-4.1643,-4.1643,-4.1643,-4.1643,-4.1643,-4.1643,-4.1643,-4.1643,-4.1643,-4.1643,-4.1643,-4.1643,-4.1334,-4.0832,-4.0832,-4.0737,-4.0423,-4.0159,-4.0352,-1.4902,-1.8924,-2.3339,-2.6667,-3.0353,-3.37,-3.5907,-3.7373,-3.8809,-4.0615,-4.1631,-4.2741,-4.4406,-4.6199,-4.7259,-4.6587,-4.8005,-4.8882,-4.8049,-4.8558,-4.9119,-4.9531,-5.0062,-5.045,-5.0662,-5.1282,-5.1418,-5.1045,-5.0316,-4.9886,-4.9594,-4.859,-4.7767,-4.7239,-4.745,-4.753,-4.7239,-4.7239,-4.7239,-4.7239,-4.7239,-4.7239,-4.7239,-4.7239,-4.7269,-4.7269,-4.6061,-4.5471,-4.53,-4.4142,-4.3815,-4.396,-4.4049,-4.4314,-4.449,-4.449,-4.4606,-4.4694,-4.4868,-4.4955,-4.51,-4.5329,-4.5528,-4.5698,-4.5754,-4.5809,-4.5864,-4.5864,-4.5864,-4.5864,-4.5977,-4.5977,-4.6061,-4.6145,-4.5641,-4.5471,-4.6145,-4.5809,-4.5556,-4.6228,-4.5864,-4.5442,-4.5641,-4.4378,-4.3068,-4.2151,-4.2084,-4.227,-4.252,-4.2612,-4.2428,-4.2204,-4.2111,-4.2018,-4.1643,-4.1643,-4.1643,-4.1643,-4.1643,-4.1643,-4.1643,-4.1643,-4.1643,-4.1643,-4.1643,-4.1334,-4.0832,-4.0832,-4.0832,-4.0832,-4.0711,-4.1187,-1.5065,-1.8885,-2.3076,-2.6575,-3.0774,-3.4445,-3.594,-3.7553,-3.8858,-3.8958,-4.0902,-4.2649,-4.2923,-4.558,-4.7785,-4.8081,-4.8818,-4.9342,-4.9342,-4.9088,-4.9384,-5.0501,-5.0495,-5.0699,-5.1218,-5.0699,-5.034,-5.0308,-5.0062,-4.9594,-4.8849,-4.9237,-4.8787,-4.7239,-4.7973,-4.7973,-4.7239,-4.7239,-4.7239,-4.7239,-4.7239,-4.7239,-4.7239,-4.7239,-4.735,-4.762,-4.762,-4.6834,-4.5498,-4.5977,-4.5329,-4.396,-4.4314,-4.449,-4.449,-4.449,-4.4694,-4.4868,-4.4955,-4.51,-4.5329,-4.5613,-4.5698,-4.5698,-4.5809,-4.5864,-4.5864,-4.5864,-4.5864,-4.5977,-4.6228,-4.6257,-4.634,-4.6618,-4.6618,-4.67,-4.6975,-4.7005,-4.7056,-4.7189,-4.7159,-4.7159,-4.7159,-4.6394,-4.5527,-4.4668,-4.3815,-4.3547,-4.4406,-4.4493,-4.417,-4.3304,-4.3214,-4.2731,-4.1737,-4.1643,-4.1643,-4.1643,-4.1643,-4.1643,-4.1643,-4.1643,-4.1643,-4.1643,-4.1643,-4.1643,-4.1643,-4.1643,-4.1643,-4.1643,-4.1376,-4.1281,-1.6006,-1.8925,-2.1529,-2.5653,-2.8899,-3.1657,-3.4437,-3.6458,-3.8184,-3.9965,-4.0997,-4.1911,-4.2741,-4.4583,-4.589,-4.5974,-4.6989,-4.7846,-4.7846,-4.7767,-4.7925,-4.8391,-4.8925,-4.9489,-5.0006,-5.0316,-5.0276,-4.9854,-4.9604,-4.9342,-4.8969,-4.8468,-4.7876,-4.7239,-4.748,-4.745,-4.7239,-4.7239,-4.7239,-4.7239,-4.7239,-4.7239,-4.7239,-4.743,-4.759,-4.7719,-4.6529,-4.6032,-4.5977,-4.4956,-4.4462,-4.4314,-4.449,-4.449,-4.4519,-4.4694,-4.4868,-4.4955,-4.5358,-4.5528,-4.5585,-4.5725,-4.5809,-4.5809,-4.5864,-4.5864,-4.5864,-4.6145,-4.6145,-4.6228,-4.6506,-4.6535,-4.6535,-4.6618,-4.6618,-4.67,-4.67,-4.6812,-4.6782,-4.6782,-4.6199,-4.5751,-4.5919,-4.5243,-4.4581,-4.4493,-4.4841,-4.5014,-4.4581,-4.4493,-4.4406,-4.4142,-4.4142,-4.3726,-4.2849,-4.2758,-4.2363,-4.1643,-4.1643,-4.1643,-4.1643,-4.1643,-4.1643,-4.1643,-4.1643,-4.1643,-4.1643,-4.1643,-4.1831,-4.2204,-4.2084,-4.2428,-1.5001,-1.8576,-2.1482,-2.5444,-2.7823,-3.0145,-3.3982,-3.5934,-3.7528,-3.9741,-4.0832,-4.1751,-4.3014,-4.4262,-4.5299,-4.5919,-4.6723,-4.7239,-4.7239,-4.735,-4.759,-4.8111,-4.8422,-4.8728,-4.9119,-4.9521,-4.9594,-4.9193,-4.9,-4.8849,-4.8652,-4.8033,-4.7669,-4.748,-4.743,-4.735,-4.735,-4.7269,-4.7239,-4.7239,-4.7239,-4.7269,-4.743,-4.754,-4.77,-4.7798,-4.6723,-4.6311,-4.634,-4.5129,-4.455,-4.449,-4.449,-4.449,-4.4606,-4.4781,-4.5042,-4.5272,-4.5613,-4.5669,-4.5754,-4.5894,-4.5864,-4.5864,-4.5864,-4.5864,-4.5864,-4.6061,-4.6145,-4.634,-4.6618,-4.67,-4.6782,-4.6864,-4.6945,-4.6945,-4.6945,-4.6945,-4.6945,-4.6945,-4.6364,-4.6003,-4.6199,-4.578,-4.5527,-4.5612,-4.6145,-4.6228,-4.5696,-4.5612,-4.5612,-4.5612,-4.5271,-4.4755,-4.3815,-4.3726,-4.3277,-4.227,-4.227,-4.2018,-4.1643,-4.1643,-4.1643,-4.1643,-4.1643,-4.1643,-4.1643,-4.1643,-4.1737,-4.2111,-4.2455,-4.3123,-1.3082,-1.7543,-2.1779,-2.5121,-2.7044,-2.9396,0.0,-3.5562,-3.6633,-3.8637,-4.0097,-4.1407,-4.29,-4.404,-4.5183,-4.6597,-4.7069,-4.7239,-4.7239,-4.743,-4.7907,-4.8818,-4.8529,-4.8328,-4.8529,-4.8606,-4.8606,-4.8683,-4.8406,-4.825,-4.822,-4.7985,-4.7876,-4.7798,-4.7669,-4.762,-4.762,-4.743,-4.732,-4.732,-4.732,-4.743,-4.762,-4.77,-4.7779,-4.7798,-4.748,-4.7078,-4.6618,-4.5696,-4.5043,-4.449,-4.449,-4.4519,-4.4606,-4.4868,-4.53,-4.5698,-4.5698,-4.5754,-4.5864,-4.5864,-4.5864,-4.5864,-4.5864,-4.5864,-4.5864,-4.5977,-4.6145,-4.634,-4.67,-4.6893,-4.7056,-4.7189,-4.7239,-4.7239,-4.7239,-4.7239,-4.7239,-4.7239,-4.7239,-4.7239,-4.7239,-4.7239,-4.7239,-4.7239,-4.7239,-4.7239,-4.7239,-4.7239,-4.7239,-4.7239,-4.6476,-4.5696,-4.4928,-4.4755,-4.423,-4.3394,-4.3214,-4.2758,-4.1831,-4.1643,-4.1643,-4.1643,-4.1643,-4.1643,-4.1643,-4.1643,-4.1643,-4.1737,-4.2666,-4.3394,0.0,0.0,0.0,0.0,0.0,0.0,0.0,-3.3754,-3.512,-3.7552,-3.771,-3.7897,-3.9117,-4.1141,-4.2998,-4.405,-4.5961,-4.7239,-4.7239,-4.743,-4.7779,-4.8298,-4.8452,-4.8529,-4.8606,-4.8606,-4.8683,-4.9018,-4.8683,-4.8529,-4.8652,-4.8298,-4.8064,-4.7798,-4.7828,-4.7798,-4.7798,-4.7719,-4.7719,-4.7719,-4.7719,-4.7719,-4.7798,-4.8016,-4.8094,-4.8142,-4.8298,-4.7749,-4.6535,-4.5243,-4.4666,-4.449,-4.449,-4.4694,-4.4868,-4.5358,-4.5613,-4.5698,-4.5809,-4.5894,-4.5864,-4.5864,-4.5864,-4.5864,-4.5864,-4.5864,-4.5977,-4.634,-4.6535,-4.667,-4.6997,-4.7189,-4.7159,-4.7269,-4.7239,-4.7239,-4.7239,-4.7239,-4.7239,-4.7239,-4.7239,-4.7239,-4.7239,-4.7239,-4.7239,-4.7239,-4.7239,-4.7239,-4.7239,-4.7239,-4.7239,-4.7239,-4.7078,-4.6916,-4.6723,-4.6032,-4.5186,-4.4318,-4.3547,-4.3032,-4.2849,-4.2018,-4.1643,-4.1643,-4.1643,-4.1643,-4.1643,-4.1643,-4.1831,-4.227,-4.2849,-4.3214,0.0,0.0,0.0,0.0,0.0,0.0,0.0,0.0,0.0,0.0,0.0,-3.6874,-3.8169,0.0,-4.1566,-4.3367,-4.5142,-4.6492,-4.734,-4.759,-4.7828,-4.8172,-4.8483,-4.8606,-4.8606,-4.8759,-4.8987,-4.9168,-4.9212,-4.9181,-4.9256,-4.8911,-4.8606,-4.8529,-4.822,-4.7985,-4.7985,-4.7876,-4.7798,-4.7798,-4.7798,-4.7876,-4.7985,-4.8172,-4.825,-4.8375,-4.8529,-4.7907,-4.6618,-4.5867,-4.5186,-4.4519,-4.4694,-4.4955,-4.53,-4.5613,-4.5669,-4.5809,-4.5894,-4.5864,-4.5864,-4.5864,-4.5864,-4.5864,-4.6061,-4.6061,-4.6145,-4.6535,-4.67,-4.6893,-4.7108,-4.7189,-4.7239,-4.7239,-4.7239,-4.7239,-4.7239,-4.7239,-4.7239,-4.7239,-4.7239,-4.7239,-4.7239,-4.7239,-4.7239,-4.7239,-4.7239,-4.7239,-4.7239,-4.7239,-4.7239,-4.7239,-4.7239,-4.7239,-4.7239,-4.6804,-4.6145,-4.5271,-4.3904,-4.2941,-4.2363,-4.1925,-4.1643,-4.1643,-4.1643,-4.1643,-4.1643,-4.1643,-4.1737,-4.2018,-4.2547,-4.2941,0.0,0.0,0.0,0.0,0.0,0.0,0.0,0.0,0.0,0.0,0.0,0.0,0.0,0.0,0.0,-4.2957,-4.4405,-4.5851,-4.736,-4.7749,-4.7907,-4.8172,-4.8483,-4.8606,-4.8606,-4.8866,-4.9168,-4.9287,-4.951,-4.973,-4.9845,-4.951,-4.9243,-4.9168,-4.8637,-4.8328,-4.825,-4.8064,-4.7955,-4.7955,-4.7955,0.0,-4.825,-4.825,-4.8406,-4.8606,-4.8606,-4.7907,-4.6618,-4.6618,-4.5783,-4.4606,-4.4868,-4.5272,-4.5698,-4.5669,-4.5809,-4.5864,-4.5864,-4.5864,-4.5864,-4.5864,-4.5864,-4.5977,-4.6228,-4.634,0.0,-4.6618,-4.6893,-4.7056,-4.7056,-4.7189,-4.7239,-4.7239,-4.7239,-4.7239,-4.7239,-4.7239,-4.7239,-4.7239,-4.7239,-4.7239,-4.7239,-4.7239,-4.7239,-4.7239,-4.7239,-4.7239,-4.7239,-4.7239,-4.7239,-4.7239,-4.7239,-4.7239,-4.7239,-4.7239,-4.6834,-4.5948,-4.4493,-4.3186,-4.1925,-4.1737,-4.1643,-4.1643,-4.1643,-4.1643,-4.1643,-4.1643,-4.1643,-4.1643,-4.2111,-4.2666,0.0,0.0,0.0,0.0,0.0,0.0,0.0,0.0,0.0,0.0,0.0,0.0,0.0,0.0,0.0,0.0,-4.3796,-4.5725,-4.736,-4.7749,-4.7907,-4.8172,-4.8483,-4.8606,-4.8606,-4.8606,-4.8987,-4.9626,-4.9436,-4.951,-5.0237,-4.9908,0.0,0.0,0.0,-4.8942,-4.8529,-4.8529,-4.8529,-4.8529,-4.8529,-4.8529,-4.8529,-4.8529,-4.8529,-4.8606,-4.8606,-4.7907,-4.6618,-4.6618,-4.5783,-4.4606,-4.51,-4.5443,-4.5698,-4.5809,-4.5864,-4.5864,-4.5864,0.0,0.0,-4.5864,-4.6061,-4.6228,-4.6257,-4.6423,-4.67,-4.6893,-4.7005,-4.7056,-4.7189,-4.7239,-4.7239,-4.7239,-4.7239,-4.7239,-4.7239,-4.7239,-4.7239,-4.7239,-4.7239,-4.7239,-4.7239,-4.7239,-4.7239,-4.7239,-4.7239,-4.7239,-4.7239,-4.7239,-4.7239,-4.7239,-4.7239,0.0,-4.7239,-4.7239,-4.6834,-4.5948,-4.5696,-4.4755,-4.3032,-4.2111,-4.1643,-4.1643,-4.1643,-4.1643,-4.1643,-4.1643,-4.1643,-4.1643,-4.2111,-4.2666,0.0,0.0,0.0,0.0,0.0,0.0,0.0,0.0,0.0,0.0,0.0,0.0,0.0,0.0,0.0,0.0,-4.2704,-4.4514,-4.6031,-4.7157,-4.7907,-4.8172,-4.8483,-4.8606,-4.8606,-4.879,-4.9137,-4.9762,-4.9835,-5.0125,-5.0655,-5.0269,-4.9908,-4.9541,-4.9318,-4.9018,-4.8606,-4.8606,-4.8606,-4.8606,-4.8606,-4.8606,-4.8606,-4.8606,-4.8606,-4.8529,-4.8142,-4.751,-4.6618,-4.634,-4.5585,-4.4781,0.0,0.0,0.0,0.0,-4.5864,-4.5864,-4.5864,-4.5864,-4.5864,-4.6061,-4.6145,-4.634,-4.6618,-4.6812,-4.6893,-4.7108,-4.7189,-4.7189,-4.7239,-4.7239,-4.7239,-4.7239,-4.7239,-4.7239,-4.7239,-4.7239,-4.7239,-4.7239,-4.7239,0.0,-4.7239,-4.7239,-4.7239,-4.7239,-4.7239,-4.7239,-4.7239,-4.7239,-4.7239,-4.7239,-4.7239,-4.7239,-4.7239,-4.7239,0.0,0.0,0.0,-4.51,-4.3214,-4.2758,0.0,0.0,0.0,-4.1643,-4.1643,-4.1643,0.0,0.0,-4.1831,-4.2363,0.0,0.0,0.0,0.0,0.0,0.0,0.0,0.0,0.0,0.0,0.0,0.0,0.0,0.0,0.0,0.0,-4.1774,-4.3604,-4.5115,-4.6872,-4.8111,-4.8172,-4.8529,-4.8759,-4.8606,-4.8942,-4.9318,-4.9762,-5.0125,-5.0482,-5.0866,-5.0623,-5.0269,-4.9762,-4.9615,-4.9243,-4.8759,-4.8835,-4.888,-4.888,-4.888,-4.888,-4.8911,-4.8835,-4.8835,-4.8911,-4.8064,-4.735,-4.6834,-4.6228,-4.5585,-4.5042,-4.5528,-4.5754,-4.5754,-4.5809,-4.5864,-4.5864,-4.5864,-4.5864,-4.5864,-4.6145,-4.634,-4.6423,-4.6893,-4.7056,-4.7138,-4.7189,-4.7239,-4.7239,-4.7239,-4.7239,-4.7239,-4.7239,-4.7239,-4.7239,-4.7239,-4.7239,-4.7239,-4.7239,-4.7239,-4.7239,-4.7239,-4.7239,-4.7239,-4.7239,-4.7239,-4.7239,-4.7239,-4.7239,-4.7239,-4.7239,-4.7239,-4.7239,-4.7239,-4.7239,-4.6834,-4.5948,-4.5864,-4.5186,-4.3637,-4.3304,-4.2849,-4.2018,-4.1737,-4.1643,0.0,0.0,0.0,0.0,0.0,0.0,0.0,0.0,0.0,0.0,0.0,0.0,0.0,0.0,0.0,0.0,0.0,0.0,0.0,0.0,0.0,0.0,0.0,0.0,-4.5038,-4.7335,-4.8652,-4.825,-4.8911,-4.9137,-4.8683,-4.8942,-4.9362,-4.9699,-5.0093,-5.0482,-5.0866,-5.0866,-5.0553,-4.9772,-5.0093,-4.9949,-4.9168,-4.9478,-4.9699,-4.9699,-4.9699,-4.9699,-4.9699,-4.9362,-4.9362,-4.9626,-4.8345,-4.7658,-4.736,-4.6529,-4.5923,-4.5329,-4.5725,-4.5894,-4.5894,-4.5864,-4.5864,-4.5864,-4.5864,-4.5864,-4.5864,-4.6145,-4.6423,-4.67,-4.6975,-4.7138,-4.7269,-4.7239,-4.7239,-4.7239,-4.7239,-4.7239,-4.7239,-4.7239,-4.7239,-4.7239,-4.7239,-4.7239,-4.7239,-4.7239,-4.7239,-4.7239,-4.7239,-4.7239,-4.7239,-4.7239,-4.7239,0.0,-4.7239,-4.7239,-4.7239,-4.7239,-4.7239,-4.7239,-4.7239,-4.7239,-4.6834,-4.5948,-4.5864,-4.5442,-4.4493,-4.3637,-4.3123,-4.3123,-4.2111,-4.1643,-4.1643,0.0,0.0,0.0,0.0,0.0,0.0,0.0,0.0,0.0,0.0,0.0,0.0,0.0,0.0,0.0,0.0,0.0,0.0,0.0,0.0,0.0,0.0,0.0,0.0,-4.5269,-4.6829,-4.7864,-4.8375,-4.8683,-4.8942,-4.9093,-4.9467,-5.0093,-5.0237,-5.0482,-5.0866,-5.0967,-5.0726,-5.0165,-5.0237,-5.0093,-4.9552,-4.973,-4.9803,-4.9762,-4.9803,-4.9772,-4.9772,-4.9657,-4.933,-4.8818,-4.7942,-4.723,-4.6611,-4.609,-4.5838,-4.5725,-4.578,-4.5864,-4.5864,-4.5864,-4.5864,-4.5864,-4.5864,-4.5864,-4.5864,-4.6145,-4.6423,-4.67,-4.6975,-4.7138,-4.7239,-4.7239,-4.7239,-4.7239,-4.7239,-4.7239,-4.7239,-4.7239,-4.7239,-4.7239,-4.7239,-4.7239,-4.7239,-4.7239,-4.7239,-4.7239,-4.7239,-4.7239,-4.7239,-4.7239,-4.7239,-4.7239,-4.7239,-4.7239,-4.7239,-4.7239,-4.7239,-4.7239,-4.7239,-4.7239,-4.7078,-4.6804,-4.6723,-4.6394,-4.5442,-4.4581,-4.3815,-4.3214,-4.2111,-4.1643,-4.1643,0.0,0.0,0.0,0.0,0.0,0.0,0.0,0.0,0.0,0.0,0.0,0.0,0.0,0.0,0.0,0.0,0.0,0.0,0.0,0.0,0.0,0.0,0.0,0.0,0.0,0.0,-4.8191,-4.8422,0.0,-4.8942,-4.9212,-4.9584,-5.0093,-5.0411,-5.0623,-5.0866,-5.0967,-5.0726,-5.034,-5.0482,-5.034,-5.0021,-5.0093,-5.0197,-5.0157,-5.0197,-5.0165,-5.0165,-5.0021,-4.9699,-4.9299,-4.8376,-4.7628,-4.6937,-4.6506,-4.609,-4.5864,-4.5864,-4.5864,-4.5864,-4.5864,-4.5864,-4.5864,-4.5864,-4.5864,-4.5864,-4.6061,-4.634,-4.6535,-4.6812,-4.7056,-4.7189,-4.7189,-4.7189,-4.7239,-4.7239,-4.7239,-4.7239,-4.7239,-4.7239,-4.7239,-4.7239,-4.7239,-4.7239,-4.7239,-4.7239,-4.7239,-4.7239,-4.7239,-4.7239,-4.7239,-4.7239,-4.7239,-4.7239,-4.7239,-4.7239,-4.7239,-4.7239,-4.7239,-4.7239,-4.7239,-4.7239,-4.7239,-4.7239,-4.6967,-4.6394,-4.5186,-4.423,-4.3637,-4.227,-4.1432,0.0,0.0,0.0,0.0,0.0,0.0,0.0,0.0,0.0,0.0,0.0,0.0,0.0,0.0,0.0,0.0,0.0,0.0,0.0,0.0,0.0,0.0,0.0,0.0,0.0,0.0,0.0,-4.9006,-4.9013,0.0,0.0,0.0,0.0,-4.9772,-5.0482,-5.0866,-5.0967,-5.0967,-5.0726,-5.0411,-5.0726,-5.0726,-5.0411,-5.0726,-5.0967,-5.0967,-5.0967,-5.0967,-5.0866,-5.0553,-5.0553,-5.0796,-4.9521,-4.8712,-4.8253,-4.7609,-4.6723,-4.5948,-4.5864,-4.5864,-4.5864,-4.5864,-4.5864,-4.5864,-4.5864,-4.5864,-4.5864,-4.5864,-4.6061,-4.6257,-4.6535,-4.6812,0.0,0.0,-4.7138,-4.7269,-4.7239,-4.7239,-4.7239,-4.7239,-4.7239,-4.7239,-4.7239,-4.7239,-4.7239,-4.7239,-4.7239,-4.7239,-4.7239,0.0,-4.7239,-4.7239,-4.7239,-4.7239,-4.7239,-4.7239,-4.7239,-4.7239,-4.7239,-4.7239,-4.7239,-4.7239,-4.7239,-4.7239,-4.7239,-4.7239,-4.7239,-4.5442,-4.4493,-4.4493,-4.2558,0.0,0.0,0.0,0.0,0.0,0.0,0.0,0.0,0.0,0.0,0.0,0.0,0.0,0.0,0.0,0.0,0.0,0.0,0.0,0.0,0.0,0.0,0.0,0.0,0.0,0.0,-4.3167,-4.4861,-4.6541,-4.7763,-4.8606,0.0,0.0,0.0,0.0,0.0,0.0,-5.0866,-5.0967,-5.0898,-5.0796,-5.0866,-5.0898,-5.0796,-5.0866,-5.0967,-5.0967,-5.0967,-5.0967,-5.0967,-5.0796,-5.045,-4.9926,-4.9604,-4.8712,-4.753,-4.7973,-4.7579,-4.6834,-4.6145,-4.5864,-4.5864,-4.5864,-4.5864,-4.5864,-4.5864,-4.5864,-4.5864,-4.5864,-4.5864,-4.6061,-4.6257,0.0,0.0,0.0,0.0,-4.7138,-4.7189,-4.7239,-4.7239,-4.7239,-4.7239,-4.7239,-4.7239,-4.7239,-4.7239,-4.7239,-4.7239,-4.7239,-4.7239,-4.7239,0.0,-4.7239,-4.7239,-4.7239,-4.7239,-4.7239,-4.7239,-4.7239,-4.7239,-4.7239,-4.7239,-4.7239,-4.7239,-4.7239,-4.7239,-4.7239,-4.7239,-4.5442,-4.4493,-4.4493,0.0,0.0,0.0,0.0,0.0,0.0,0.0,0.0,0.0,0.0,0.0,0.0,0.0,0.0,0.0,0.0,0.0,0.0,0.0,0.0,0.0,0.0,0.0,0.0,0.0,0.0,0.0,-4.0587,-4.3536,-4.6079,-4.6877,-4.7656,0.0,0.0,0.0,0.0,0.0,0.0,0.0,0.0,0.0,-5.0967,-5.0796,-5.0553,-5.0347,-5.0726,-5.0726,-5.0347,-5.0694,-5.0967,-5.0967,-5.0967,-5.0694,-5.0173,-5.0173,-4.9268,-4.7767,-4.7846,-4.742,-4.6559,0.0,0.0,0.0,0.0,-4.5864,-4.5864,-4.5864,-4.5864,-4.5864,-4.5864,0.0,0.0,0.0,0.0,0.0,0.0,0.0,-4.7056,-4.7138,-4.7189,-4.7239,-4.7239,-4.7239,-4.7239,-4.7239,-4.7239,-4.7239,-4.7239,-4.7239,-4.7239,-4.7239,-4.7239,0.0,0.0,0.0,-4.7239,-4.7239,-4.7239,-4.7239,-4.7239,-4.7239,-4.7239,-4.7239,-4.7239,-4.7239,-4.7239,-4.7239,-4.7239,-4.7239,-4.5442,-4.4239,0.0,0.0,0.0,0.0,0.0,0.0,0.0,0.0,0.0,0.0,0.0,0.0,0.0,0.0,0.0,0.0,0.0,0.0,0.0,0.0,0.0,0.0,0.0,0.0,0.0,0.0,0.0,0.0,0.0,-4.2328,-4.5766,0.0,0.0,0.0,0.0,0.0,0.0,0.0,0.0,0.0,0.0,0.0,0.0,0.0,-5.0062,-4.9677,-5.0347,-5.0347,-4.9573,-5.0347,-5.0796,-5.0764,-5.0866,-5.0967,-5.0866,-5.0726,0.0,-4.8483,-4.7609,0.0,0.0,0.0,0.0,0.0,0.0,0.0,0.0,0.0,0.0,0.0,0.0,0.0,0.0,0.0,0.0,0.0,0.0,0.0,0.0,0.0,0.0,-4.7269,-4.7239,-4.7239,-4.715,-4.6821,-4.6731,-4.6731,-4.6731,-4.688,-4.7,0.0,0.0,0.0,0.0,0.0,0.0,-4.7269,-4.7239,-4.7239,-4.7269,-4.7239,-4.7239,-4.7239,-4.7239,-4.7239,-4.7239,-4.7239,-4.7159,-4.7078,-4.5354,0.0,0.0,0.0,0.0,0.0,0.0,0.0,0.0,0.0,0.0,0.0,0.0,0.0,0.0,0.0,0.0,0.0,0.0,0.0,0.0,0.0,0.0,0.0,0.0,0.0,0.0,0.0,0.0,0.0,0.0,0.0,0.0,0.0,0.0,0.0,0.0,0.0,0.0,0.0,0.0,0.0,0.0,0.0,0.0,0.0,0.0,0.0,0.0,0.0,0.0,-4.975,-4.9822,-4.9854,-5.0591,-5.0967,-5.0866,-4.9447,-4.9013,-4.9279,-4.7816,0.0,0.0,0.0,0.0,0.0,0.0,0.0,0.0,0.0,0.0,0.0,0.0,0.0,0.0,0.0,0.0,0.0,0.0,0.0,0.0,0.0,0.0,-4.7138,-4.7189,-4.7239,-4.6591,-4.4365,0.0,0.0,0.0,0.0,0.0,0.0,0.0,0.0,0.0,0.0,0.0,-4.754,-4.735,-4.735,-4.754,-4.735,-4.7239,-4.7239,-4.7239,-4.7239,-4.7239,-4.7239,-4.6916,0.0,0.0,0.0,0.0,0.0,0.0,0.0,0.0,0.0,0.0,0.0,0.0,0.0,0.0,0.0,0.0,0.0,0.0,0.0,0.0,0.0,0.0,0.0,0.0,0.0,0.0,0.0,0.0,0.0,0.0,0.0,0.0,0.0,0.0,0.0,0.0,0.0,0.0,0.0,0.0,0.0,0.0,0.0,0.0,0.0,0.0,0.0,0.0,0.0,0.0,0.0,0.0,0.0,0.0,0.0,0.0,0.0,0.0,-4.8697,-4.8051,0.0,0.0,0.0,0.0,0.0,0.0,0.0,0.0,0.0,0.0,0.0,0.0,0.0,0.0,0.0,0.0,0.0,0.0,0.0,0.0,0.0,0.0,0.0,0.0,0.0,0.0,0.0,0.0,0.0,0.0,0.0,0.0,0.0,0.0,0.0,0.0,0.0,0.0,0.0,0.0,-4.743,-4.735,-4.7269,-4.743,-4.735,-4.7239,-4.7239,-4.7239,-4.7239,-4.7239,-4.7189,0.0,0.0,0.0,0.0,0.0,0.0,0.0,0.0,0.0,0.0,0.0,0.0,0.0,0.0,0.0,0.0,0.0,0.0,0.0,0.0,0.0,0.0,0.0,0.0,0.0,0.0,0.0,0.0,0.0,0.0,0.0,0.0,0.0,0.0,0.0,0.0,0.0,0.0,0.0,0.0,0.0,0.0,0.0,0.0,0.0,0.0,0.0,0.0,0.0,0.0,0.0,0.0,0.0,0.0,0.0,0.0,0.0,0.0,0.0,-4.7151,-4.6243,0.0,0.0,0.0,0.0,0.0,0.0,0.0,0.0,0.0,0.0,0.0,0.0,0.0,0.0,0.0,0.0,0.0,0.0,0.0,0.0,0.0,0.0,0.0,0.0,0.0,0.0,0.0,0.0,0.0,0.0,0.0,0.0,0.0,0.0,0.0,0.0,0.0,0.0,0.0,0.0,-4.735,-4.7269,-4.7239,-4.735,-4.7269,-4.7239,-4.7239,-4.7239,-4.7239,-4.7239,-4.7108,0.0,0.0,0.0,0.0,0.0,0.0,0.0,0.0,0.0,0.0,0.0,0.0,0.0,0.0,0.0,0.0,0.0,0.0,0.0,0.0,0.0,0.0,0.0,0.0,0.0,0.0,0.0,0.0,0.0,0.0,0.0,0.0,0.0,0.0,0.0,0.0,0.0,0.0,0.0,0.0,0.0,0.0,0.0,0.0,0.0,0.0,0.0,0.0,0.0,0.0,0.0,0.0,0.0,0.0,0.0,0.0,0.0,0.0,0.0,0.0,0.0,0.0,0.0,0.0,0.0,0.0,0.0,0.0,0.0,0.0,0.0,0.0,0.0,0.0,0.0,0.0,0.0,0.0,0.0,0.0,0.0,0.0,0.0,0.0,0.0,0.0,0.0,0.0,0.0,0.0,0.0,0.0,0.0,0.0,0.0,0.0,0.0,0.0,0.0,0.0,0.0,-4.754,-4.735,-4.735,-4.754,-4.735,-4.7239,-4.7239,-4.7239,-4.7239,-4.7239,0.0,0.0,0.0,0.0,0.0,0.0,0.0,0.0,0.0,0.0,0.0,0.0,0.0,0.0,0.0,0.0,0.0,0.0,0.0,0.0,0.0,0.0,0.0,0.0,0.0,0.0,0.0,0.0,0.0,0.0,0.0,0.0,0.0,0.0,0.0,0.0,0.0,0.0,0.0,0.0,0.0,0.0,0.0,0.0,0.0,0.0,0.0,0.0,0.0,0.0,0.0,0.0,0.0,0.0,0.0,0.0,0.0,0.0,0.0,0.0,0.0,0.0,0.0,0.0,0.0,0.0,0.0,0.0,0.0,0.0,0.0,0.0,0.0,0.0,0.0,0.0,0.0,0.0,0.0,0.0,0.0,0.0,0.0,0.0,0.0,0.0,0.0,0.0,0.0,0.0,0.0,0.0,0.0,0.0,0.0,0.0,0.0,0.0,0.0,0.0,0.0,0.0,-4.735,-4.7269,-4.7269,-4.735,-4.7269,-4.7239,-4.7239,-4.7239,-4.7239,-4.7239,0.0,0.0,0.0,0.0,0.0,0.0,0.0,0.0,0.0,0.0,0.0,0.0,0.0,0.0,0.0,0.0,0.0,0.0,0.0,0.0,0.0,0.0,0.0,0.0,0.0,0.0,0.0,0.0,0.0,0.0,0.0,0.0,0.0,0.0,0.0,0.0,0.0,0.0,0.0,0.0,0.0,0.0,0.0,0.0,0.0,0.0,0.0,0.0,0.0,0.0,0.0,0.0,0.0,0.0,0.0,0.0,0.0,0.0,0.0,0.0,0.0,0.0,0.0,0.0,0.0,0.0,0.0,0.0,0.0,0.0,0.0,0.0,0.0,0.0,0.0,0.0,0.0,0.0,0.0,0.0,0.0,0.0,0.0,0.0,0.0,0.0,0.0,0.0,0.0,0.0,0.0,0.0,0.0,0.0,0.0,0.0,0.0,0.0,0.0,0.0,0.0,0.0,-4.7269,-4.7239,-4.7239,-4.7239,-4.7239,-4.7239,-4.7239,-4.7239,-4.7239,-4.7239,0.0,0.0,0.0,0.0,0.0,0.0,0.0,0.0,0.0,0.0,0.0,0.0,0.0,0.0,0.0,0.0,0.0,0.0,0.0,0.0,0.0,0.0,0.0,0.0,0.0,0.0,0.0,0.0,0.0,0.0,0.0,0.0,0.0,0.0,0.0,0.0,0.0,0.0,0.0,0.0,0.0,0.0,0.0,0.0,0.0,0.0,0.0,0.0,0.0,0.0,0.0,0.0,0.0,0.0,0.0,0.0,0.0,0.0,0.0,0.0,0.0,0.0,0.0,0.0,0.0,0.0,0.0,0.0,0.0,0.0,0.0,0.0,0.0,0.0,0.0,0.0,0.0,0.0,0.0,0.0,0.0,0.0,0.0,0.0,0.0,0.0,0.0,0.0,0.0,0.0,0.0,0.0,0.0,0.0,0.0,0.0,0.0,0.0,0.0,0.0,0.0,0.0,-4.7269,-4.7239,-4.7239,-4.7239,-4.7239,-4.7239,-4.7239,-4.7239,-4.7239,0.0,0.0,0.0,0.0,0.0,0.0,0.0,0.0,0.0,0.0,0.0,0.0,0.0,0.0,0.0,0.0,0.0,0.0,0.0,0.0,0.0,0.0,0.0,0.0,0.0,0.0,0.0,0.0,0.0,0.0,0.0,0.0,0.0,0.0,0.0,0.0,0.0,0.0,0.0,0.0,0.0,0.0,0.0,0.0,0.0,0.0,0.0,0.0,0.0,0.0,0.0,0.0,0.0,0.0,0.0,0.0,0.0,0.0,0.0,0.0,0.0,0.0,0.0,0.0,0.0,0.0,0.0,0.0,0.0,0.0,0.0,0.0,0.0,0.0,0.0,0.0,0.0,0.0,0.0,0.0,0.0,0.0,0.0,0.0,0.0,0.0,0.0,0.0,0.0,0.0,0.0,0.0,0.0,0.0,0.0,0.0,0.0,0.0,0.0,0.0,0.0,0.0,0.0,-4.7056,-4.7189,-4.7239,-4.7239,-4.7239,-4.7239,-4.7239,-4.7239,-4.7239,-4.7239,0.0,0.0,0.0,0.0,0.0,0.0,0.0,0.0,0.0,0.0,0.0,0.0,0.0,0.0,0.0,0.0,0.0,0.0,0.0,0.0,0.0,0.0,0.0,0.0,0.0,0.0,0.0,0.0,0.0,0.0,0.0,0.0,0.0,0.0,0.0,0.0,0.0,0.0,0.0,0.0,0.0,0.0,0.0,0.0,0.0,0.0,0.0,0.0,0.0,0.0,0.0,0.0,0.0,0.0,0.0,0.0,0.0,0.0,0.0,0.0,0.0,0.0,0.0,0.0,0.0,0.0,0.0,0.0,0.0,0.0,0.0,0.0,0.0,0.0,0.0,0.0,0.0,0.0,0.0,0.0,0.0,0.0,0.0,0.0,0.0,0.0,0.0,0.0,0.0,0.0,0.0,0.0,0.0,0.0,0.0,0.0,0.0,0.0,0.0,0.0,0.0,0.0,0.0,-4.7138,-4.7189,-4.7269,-4.7239,-4.7239,-4.7239,-4.7239,-4.7239,-4.7239,0.0,0.0,0.0,0.0,0.0,0.0,0.0,0.0,0.0,0.0,0.0,0.0,0.0,0.0,0.0,0.0,0.0,0.0,0.0,0.0,0.0,0.0,0.0,0.0,0.0,0.0,0.0,0.0,0.0,0.0,0.0,0.0,0.0,0.0,0.0,0.0,0.0,0.0,0.0,0.0,0.0,0.0,0.0,0.0,0.0,0.0,0.0,0.0,0.0,0.0,0.0,0.0,0.0,0.0,0.0,0.0,0.0,0.0,0.0,0.0,0.0,0.0,0.0,0.0,0.0,0.0,0.0,0.0,0.0,0.0,0.0,0.0,0.0,0.0,0.0,0.0,0.0,0.0,0.0,0.0,0.0,0.0,0.0,0.0,0.0,0.0,0.0,0.0,0.0,0.0,0.0,0.0,0.0,0.0,0.0,0.0,0.0,0.0,0.0,0.0,0.0,0.0,0.0,-4.7005,-4.7056,-4.7239,-4.7239,-4.7239,-4.7239,-4.7239,-4.7239,-4.7239,-4.6864,0.0,0.0,0.0,0.0,0.0,0.0,0.0,0.0,0.0,0.0,0.0,0.0,0.0,0.0,0.0,0.0,0.0,0.0,0.0,0.0,0.0,0.0,0.0,0.0,0.0,0.0,0.0,0.0,0.0,0.0,0.0,0.0,0.0,0.0,0.0,0.0,0.0,0.0,0.0,0.0,0.0,0.0,0.0,0.0,0.0,0.0,0.0,0.0,0.0,0.0,0.0,0.0,0.0,0.0,0.0,0.0,0.0,0.0,0.0,0.0,0.0,0.0,0.0,0.0,0.0,0.0,0.0,0.0,0.0,0.0,0.0,0.0,0.0,0.0,0.0,0.0,0.0,0.0,0.0,0.0,0.0,0.0,0.0,0.0,0.0,0.0,0.0,0.0,0.0,0.0,0.0,0.0,0.0,0.0,0.0,0.0,0.0,0.0,0.0,0.0,0.0,0.0,-4.6893,-4.7056,-4.7239,-4.7239,-4.7239,-4.7239,-4.7239,-4.7239,-4.7239,-4.7056,0.0,0.0,0.0,0.0,0.0,0.0,0.0,0.0,0.0,0.0,0.0,0.0,0.0,0.0,0.0,0.0,0.0,0.0,0.0,0.0,0.0,0.0,0.0,0.0,0.0,0.0,0.0,0.0,0.0,0.0,0.0,0.0,0.0,0.0,0.0,0.0,0.0,0.0,0.0,0.0,0.0,0.0,0.0,0.0,0.0,0.0,0.0,0.0,0.0,0.0,0.0,0.0,0.0,0.0,0.0,0.0,0.0,0.0,0.0,0.0,0.0,0.0,0.0,0.0,0.0,0.0,0.0,0.0,0.0,0.0,0.0,0.0,0.0,0.0,0.0,0.0,0.0,0.0,0.0,0.0,0.0,0.0,0.0,0.0,0.0,0.0,0.0,0.0,0.0,0.0,0.0,0.0,0.0,0.0,0.0,0.0,0.0,0.0,0.0,0.0,0.0,0.0,-4.6618,-4.6975,-4.7269,-4.7239,-4.7239,-4.7239,-4.7239,-4.7239,-4.7239,-4.7189,0.0,0.0,0.0,0.0,0.0,0.0,0.0,0.0,0.0,0.0,0.0,0.0,0.0,0.0,0.0,0.0,0.0,0.0,0.0,0.0,0.0,0.0,0.0,0.0,0.0,0.0,0.0,0.0,0.0,0.0,0.0,0.0,0.0,0.0,0.0,0.0,0.0,0.0,0.0,0.0,0.0,0.0,0.0,0.0,0.0,0.0,0.0,0.0,0.0,0.0,0.0,0.0,0.0,0.0,0.0,0.0,0.0,0.0,0.0,0.0,0.0,0.0,0.0,0.0,0.0,0.0,0.0,0.0,0.0,0.0,0.0,0.0,0.0,0.0,0.0,0.0,0.0,0.0,0.0,0.0,0.0,0.0,0.0,0.0,0.0,0.0,0.0,0.0,0.0,0.0,0.0,0.0,0.0,0.0,0.0,0.0,0.0,0.0,0.0,0.0,0.0,0.0,0.0,-4.67,-4.7078,-4.7269,-4.7269,-4.7239,-4.7269,-4.7269,-4.7239,0.0,0.0,0.0,0.0,0.0,0.0,0.0,0.0,0.0,0.0,0.0,0.0,0.0,0.0,0.0,0.0,0.0,0.0,0.0,0.0,0.0,0.0,0.0,0.0,0.0,0.0,0.0,0.0,0.0,0.0,0.0,0.0,0.0,0.0,0.0,0.0,0.0,0.0,0.0,0.0,0.0,0.0,0.0,0.0,0.0,0.0,0.0,0.0,0.0,0.0,0.0,0.0,0.0,0.0,0.0,0.0,0.0,0.0,0.0,0.0,0.0,0.0,0.0,0.0,0.0,0.0,0.0,0.0,0.0,0.0,0.0,0.0,0.0,0.0,0.0,0.0,0.0,0.0,0.0,0.0,0.0,0.0,0.0,0.0,0.0,0.0,0.0,0.0,0.0,0.0,0.0,0.0,0.0,0.0,0.0,0.0,0.0,0.0,0.0,0.0,0.0,0.0,0.0,0.0,-4.6145,-4.67,-4.7189,-4.743,-4.7239,-4.743,-4.743,-4.7239,0.0,0.0,0.0,0.0,0.0,0.0,0.0,0.0,0.0,0.0,0.0,0.0,0.0,0.0]}],[{"header":{"parameterUnit":"kt","parameterCategory":2,"dx":1,"dy":1,"la1":29.285339999999998,"la2":30.599998999999997,"lo1":-89.70041500000002,"lo2":-87.6738589999976,"nx":112,"ny":82,"refTime":"2022-09-22T06:00:00:Z","depth":0,"parameterNumber":2,"parameterNumberName":"V-component_of_WINDS"},"data":[4.8076,4.7296,4.6322,4.4393,4.3299,4.2223,4.0246,3.9786,3.9122,3.6921,3.5633,3.4808,3.4507,3.2351,3.0961,3.191,3.0521,2.9105,0.0,2.823,2.8196,2.8711,3.1102,3.3201,3.4572,3.6332,3.8641,4.1562,4.2188,4.3256,4.5074,4.6403,4.7618,4.866,4.9975,5.1028,5.1882,5.1751,5.1227,5.0408,5.0472,5.0009,4.9122,4.8426,4.7707,4.686,4.6115,4.5329,4.4479,4.4372,4.4217,4.4032,4.411,4.2922,4.0841,3.9265,3.769,3.5976,3.458,3.4067,3.3825,3.2596,3.1888,3.1297,3.0439,2.9719,2.9367,2.9367,2.9367,2.9367,2.9478,2.9455,2.939,2.8836,2.8836,2.8858,2.8119,2.8278,2.8546,2.8636,2.8725,2.8881,2.8947,2.9036,2.9058,2.8991,2.908,2.9499,3.0502,3.0737,3.1079,3.1479,3.1588,3.1756,3.2032,3.2696,3.3106,3.3219,3.4392,3.5375,3.6179,3.6826,3.7707,3.8842,3.8506,3.8506,3.8972,3.8506,3.8274,3.8274,3.8274,3.8274,4.6729,4.58,4.4866,4.2878,4.1794,4.0558,3.7907,3.7335,3.6684,3.4454,3.3068,3.2434,3.3063,3.1272,3.0456,3.268,3.1011,2.9861,0.0,2.9944,2.9372,3.0411,3.312,3.5269,3.6155,3.8367,4.0633,4.2717,4.3279,4.4125,4.5599,4.6834,4.7966,4.9082,4.9884,5.0639,5.1302,5.0722,4.9916,4.8869,4.8932,4.8468,4.7549,4.709,4.6301,4.528,4.4763,4.3874,4.2903,4.2753,4.2496,4.2419,4.2572,4.1514,3.9612,3.8018,3.6618,3.5275,3.3889,3.3432,3.3269,3.2199,3.1636,3.1297,3.0068,2.9543,2.9367,2.9367,2.9367,2.9367,2.9367,2.9367,2.9191,2.8568,2.8411,2.8162,2.7506,2.7394,2.7464,2.7555,2.7716,2.7716,2.7806,2.7262,2.71,2.7939,2.8188,2.8614,2.9411,2.9651,2.9977,3.0518,3.0518,3.0885,3.1564,3.2174,3.2811,3.3572,3.4523,3.5528,3.6605,3.6927,3.7464,3.8233,3.8233,3.8303,3.8274,3.8274,3.8274,3.8274,3.8274,3.8274,4.51,4.3507,4.237,4.2321,4.1081,3.9392,3.772,3.7277,3.6336,3.3129,3.238,3.1812,3.0295,2.9955,3.0931,3.4057,3.1844,0.0,0.0,3.3105,3.1418,3.2624,3.4754,3.6536,3.7588,4.0386,4.2352,4.2824,4.4365,4.5408,4.5668,4.7169,4.8095,4.8197,4.8863,4.913,4.9003,4.8369,4.7814,4.7363,4.7363,4.733,4.7297,4.7115,4.6237,4.4783,4.4715,4.3805,4.2273,4.2273,4.2273,4.2273,4.2273,4.157,4.015,3.7107,3.5352,3.4524,3.3754,3.3432,3.3351,3.2671,3.2032,3.1297,3.0565,2.9871,2.9367,2.9367,2.9279,2.9279,2.9279,2.9279,2.9279,2.9191,2.8747,2.8231,2.8252,2.7667,2.717,2.7464,2.7464,2.7555,2.7716,2.6198,2.5038,2.5416,2.5435,2.5491,2.5694,2.5767,2.6231,2.7464,2.7646,2.8435,3.0518,3.069,3.1516,3.3411,3.4497,3.5528,3.6438,3.7202,3.7836,3.8121,3.8121,3.8191,3.8274,3.8274,3.8274,3.8274,3.8274,3.8274,4.3313,4.2624,4.2092,4.0823,4.0274,3.9522,3.7736,3.6444,3.4998,3.2782,3.2302,0.0,0.0,0.0,3.3631,3.4352,0.0,3.3021,3.404,3.3121,3.4053,3.8811,3.9705,4.0207,4.0999,4.1738,4.2744,4.4048,4.4856,4.5408,4.5668,4.7169,4.8002,4.8048,4.8762,4.915,4.9096,4.8674,4.7632,4.599,4.6228,4.5496,4.4023,4.3525,4.277,4.1889,4.1333,4.0556,3.9536,3.9464,3.9393,3.9393,3.9393,3.8901,3.7903,3.6474,3.5352,3.4524,3.3754,3.3432,3.3269,3.214,3.1273,3.0502,2.9784,2.9455,2.9279,2.8836,2.8568,2.8299,2.7896,2.7555,2.7079,2.6304,2.6139,2.5973,2.5245,2.5076,2.517,2.5471,2.5471,2.5565,2.5752,2.3881,2.3,2.4755,2.5038,2.5674,2.729,2.7472,2.7764,2.8525,2.8614,2.8903,2.9696,2.9696,3.0196,3.1431,3.2564,3.3943,3.5528,3.5934,3.6808,3.8204,3.8204,3.8274,3.8274,3.8274,3.8274,3.8274,3.7707,3.742,4.1616,4.1212,4.1057,4.0105,3.9936,3.9559,3.7805,3.6652,3.5457,3.3684,0.0,0.0,0.0,0.0,0.0,0.0,3.5489,3.5376,3.7238,3.6534,3.7329,4.14,4.153,4.1655,4.2687,4.3222,4.3904,4.4959,4.5189,4.5453,4.581,4.65,4.6893,4.7031,4.7449,4.7616,4.7364,4.7192,4.6439,4.5002,4.4927,4.4278,4.3072,4.2364,4.154,4.0614,4.0197,3.9408,3.8413,3.8344,3.8274,3.8274,3.8204,3.7707,3.6854,3.6187,3.5352,3.4524,3.3754,3.3081,3.2589,3.184,3.0908,3.0045,2.9543,2.9102,2.8657,2.8299,2.7758,2.7282,2.6804,2.6528,2.6159,2.5168,2.5093,2.4905,2.3516,2.3342,2.3456,2.3228,2.3132,2.3342,2.3936,2.2904,2.2676,2.4471,2.4868,2.5413,2.6692,2.6875,2.7058,2.7513,2.7604,2.7896,2.8747,2.8747,2.9169,3.0109,3.1117,3.2325,3.3919,3.4966,3.5988,3.7146,3.7146,3.7218,3.7319,3.7464,3.7607,3.7779,3.7348,3.713,4.009,3.9741,3.9883,3.9843,3.9935,3.9597,3.8112,0.0,3.6905,3.5568,0.0,3.4948,3.5322,0.0,0.0,3.9301,3.8138,3.8254,4.2517,4.1681,4.1142,4.2493,4.2011,4.2187,4.3693,4.4739,4.5395,4.547,4.5395,4.5554,4.6068,4.5678,4.5499,4.5722,4.5757,4.5499,4.5036,4.513,4.4892,4.4401,4.3856,4.3506,4.3452,4.2681,4.1632,4.0421,4.0421,3.9608,3.8274,3.8274,3.8274,3.8274,3.8121,3.7492,3.6651,3.6084,3.5275,3.4261,3.3487,3.2482,3.1455,3.1371,3.0518,2.9476,2.9169,2.8457,2.7758,2.7464,2.6825,2.6178,2.59,2.5993,2.588,2.4961,2.4886,2.4528,2.2676,2.2437,2.2259,2.133,2.1035,2.1133,2.1852,2.2128,2.2693,2.3936,2.4241,2.4431,2.464,2.4735,2.4906,2.53,2.5413,2.6066,2.7485,2.7667,2.8098,2.8991,2.9931,3.0913,3.2077,3.4182,3.5406,3.5582,3.5582,3.5734,3.6036,3.6364,3.6735,3.713,3.713,3.7202,3.9772,3.9814,3.9977,3.9886,3.9864,3.9788,0.0,0.0,0.0,3.8105,3.7233,3.7113,3.9765,4.0232,4.0812,4.2741,4.2432,4.2135,4.2748,4.4369,4.6057,4.7581,4.631,4.5691,4.6833,4.6164,4.5574,4.547,4.5636,4.5886,4.6172,4.6131,4.6124,4.6131,4.6033,4.594,4.5819,4.5633,4.5316,4.4796,4.4065,4.3513,4.3225,4.2511,4.1603,4.0421,4.0421,3.9608,3.8274,3.8162,3.8121,3.8121,3.7908,3.7275,3.6485,3.568,3.4314,3.2899,3.1993,3.1093,3.0173,2.9651,2.8925,2.8102,2.7695,2.717,2.6548,2.588,2.5487,2.5019,2.4508,2.4241,2.4032,2.384,2.3822,2.3744,2.336,2.2683,2.2098,2.2081,2.1362,2.026,1.8702,1.85,1.899,2.026,2.0458,2.0854,2.1721,2.234,2.2842,2.3061,2.3804,2.4431,2.5,2.5507,2.6231,2.7241,2.8925,3.0386,3.1383,3.3517,3.4993,3.5886,3.5886,3.6064,3.6438,3.6513,3.6735,3.713,3.7448,3.7593,3.9786,3.9871,4.0016,3.9974,3.994,0.0,0.0,4.0239,3.9948,4.1399,4.0995,4.085,4.2464,4.272,4.2917,4.3718,4.4181,4.4652,4.5298,4.6568,4.7562,4.7949,4.7151,4.6698,4.6978,4.6418,4.6006,4.6054,4.6054,4.6213,4.6451,4.6213,4.6096,4.6254,4.6207,4.6166,4.6166,4.5819,4.5554,4.5282,4.435,4.3841,4.3612,4.2794,4.187,4.1021,4.0771,4.0102,3.9109,3.8651,3.8191,3.7736,3.7,3.6261,3.5429,3.4549,3.3546,3.2399,3.154,3.0495,2.9541,2.8837,2.7944,2.7332,2.7191,2.6916,2.6324,2.4905,2.4167,2.3516,2.2568,2.2276,2.1983,2.0886,2.1166,2.1362,2.0359,2.0176,2.0207,1.9808,1.8357,1.701,1.6525,1.6525,1.7125,1.8502,1.8889,1.9304,2.0099,2.0526,2.0921,2.1183,2.1607,2.2128,2.2824,2.3385,2.4396,2.5933,2.722,2.8837,3.0923,3.2018,3.3249,3.4654,3.4888,3.5198,3.5734,3.594,3.6167,3.6568,3.6717,3.6864,3.9865,3.9953,4.0054,4.0054,4.0281,0.0,4.2031,4.2364,4.2823,4.4367,4.4254,4.4095,4.4724,4.4485,4.4279,4.4611,4.5473,4.6662,4.8336,4.8495,4.8211,4.76,4.7204,4.6985,4.6924,4.6592,4.6455,4.6722,4.6491,4.6451,4.6683,4.6335,4.6213,4.6376,4.6335,4.6335,4.6335,4.5998,4.574,4.5609,4.4631,4.4114,4.3993,4.2873,4.2016,4.1419,4.0771,4.02,3.9644,3.8828,3.8133,3.7464,3.6355,3.5528,3.4888,3.3786,3.2924,3.2115,3.1079,2.9826,2.857,2.7743,2.6967,2.6291,2.6311,2.6159,2.5655,2.3958,2.2921,2.1983,2.0604,2.0406,2.0191,1.8601,1.8976,1.9363,1.7763,1.7878,1.7878,1.6357,1.492,1.4306,1.5094,1.5151,1.5528,1.6831,1.7109,1.7426,1.8273,1.8488,1.8689,1.9204,1.9403,1.9801,2.0609,2.1493,2.2772,2.4415,2.5748,2.7583,3.015,3.0604,3.1648,3.3188,3.3568,3.4128,3.4915,3.5483,3.6043,3.6643,3.6689,3.6689,3.9854,3.9953,4.0054,4.0054,4.1092,0.0,4.2049,4.301,4.4312,4.5773,4.4835,4.4635,4.7572,4.6846,4.6305,4.7841,4.8158,4.882,5.0404,5.0291,5.0076,4.9984,4.8413,4.7918,4.9253,4.7776,4.6841,4.6988,4.6725,4.6757,4.6984,4.6946,4.6946,4.6946,4.6722,4.6605,4.6605,4.6371,4.5963,4.5509,4.4674,4.4116,4.3765,4.2339,4.1419,4.0834,3.9776,3.9004,3.8454,3.7636,3.7507,3.7806,3.6826,3.6438,3.6139,3.4497,3.2981,3.1336,2.9716,2.7965,2.6231,2.5262,2.4565,2.4145,2.3456,2.307,2.2877,2.2877,2.1852,2.0542,1.9177,1.9091,1.9277,1.9277,1.9563,1.9862,1.9847,1.8458,1.6217,1.2768,1.3488,1.473,1.4824,1.3677,1.2977,1.3375,1.2833,1.2938,1.4219,1.5048,1.5884,1.6947,1.7648,1.8141,1.8242,2.0214,2.1607,2.1802,2.5669,2.8102,2.846,3.0369,3.178,3.2589,3.2646,3.3325,3.4838,3.6242,3.7707,3.9033,3.9274,3.9408,3.9589,3.9888,4.016,4.1143,0.0,0.0,4.4536,4.5289,4.6046,4.7567,4.7152,4.7226,4.9537,4.9363,4.9436,5.1159,5.0606,5.02,5.0827,5.0017,4.9258,4.8982,4.8269,4.7929,4.8348,4.7669,4.7203,4.7379,4.7275,4.7275,4.7486,4.7277,4.7059,4.691,4.6757,4.6644,4.6644,4.6006,4.5574,4.5339,4.4449,4.3908,4.3712,4.2421,4.1688,4.1416,4.0359,3.9608,3.908,3.7291,3.6513,3.6336,3.5222,3.5017,3.5044,3.3244,3.2316,3.1743,2.93,2.7965,2.7038,2.5655,2.5057,2.4545,2.3228,2.242,2.1836,2.0838,1.9832,1.8631,1.6793,1.5848,1.5322,1.4829,1.4921,1.5128,1.5219,1.5197,1.4432,1.1672,1.1167,1.1175,1.0732,1.0167,0.9938,1.0356,1.0136,1.0348,1.1399,1.1812,1.2242,1.2882,1.3291,1.4011,1.5357,1.6653,1.866,2.1411,2.3677,2.6039,2.857,2.989,3.1262,3.2811,3.3137,3.4102,3.5636,3.6587,3.742,3.7892,3.8216,3.8465,3.9508,0.0,0.0,0.0,0.0,0.0,4.6431,4.7183,4.7687,4.881,4.8894,4.9187,5.0687,5.0992,5.1509,5.3271,5.2486,5.1552,5.1056,5.0048,4.9136,4.8371,4.8307,4.8187,4.7911,4.7754,4.776,4.7857,4.776,4.7765,4.7807,4.7581,4.731,4.7024,4.6837,4.6757,4.6757,4.5998,4.553,4.535,4.44,4.3856,4.3712,4.2479,4.1925,4.1866,4.0614,3.9907,3.9488,3.7378,3.6214,3.5636,3.4784,3.4706,3.4733,3.2374,3.1684,3.1468,2.857,2.7423,2.6946,2.498,2.4167,2.3594,2.1672,2.0676,1.9985,1.8474,1.7492,1.6487,1.4508,1.2823,1.1461,1.0985,1.0651,1.074,1.1619,1.0659,0.905,0.6885,0.6702,0.683,0.6507,0.6174,0.6169,0.6702,0.6594,0.6691,0.7306,0.8064,0.8617,0.9156,0.9931,1.1108,1.2892,1.4115,1.6232,1.9771,2.1574,2.398,2.7088,2.8859,3.0511,3.2218,3.3491,3.4811,3.6139,3.6882,3.7174,3.7174,3.7579,3.7863,0.0,0.0,0.0,4.1958,4.3533,4.5072,4.6673,4.8123,4.9146,4.9165,4.9071,4.9428,5.0854,5.1126,5.1656,5.3359,5.3723,5.314,5.1373,5.1271,5.0812,4.9173,4.8987,4.8949,4.8928,4.8593,4.8374,4.8374,4.8158,4.7967,4.7815,4.7941,4.7821,4.7409,4.7133,4.7021,4.7021,4.6644,4.6096,4.547,4.4796,4.4233,4.3712,4.2364,4.1807,4.1688,3.9907,3.9117,3.9035,3.7905,3.7057,3.6513,3.6438,3.6438,3.6084,3.2698,3.1,2.996,2.7067,2.5546,2.4431,2.1917,2.079,1.987,1.7188,1.6487,1.6462,1.5709,1.5105,1.4301,1.2833,1.0618,0.8823,0.9596,0.8584,0.8345,1.1399,0.527,-0.1515,-0.409,-0.0753,0.2589,0.3029,0.2267,0.1616,0.1939,0.1187,0.0755,0.0963,0.3218,0.5266,0.6427,0.9149,1.0929,1.0929,1.3604,1.5345,1.5551,1.9954,2.2579,2.2772,2.6894,2.9516,3.0224,3.3097,3.5068,3.6139,3.6899,3.765,3.8274,3.8651,3.8926,3.9548,4.066,4.192,4.3503,4.5167,4.6798,4.8358,4.8963,4.9183,4.9183,4.9987,5.0812,5.1304,5.1445,5.2026,5.3549,5.2964,5.2093,5.1467,5.0492,4.9641,4.9045,4.897,4.897,4.897,4.887,4.8767,4.8767,4.8722,4.8617,4.8583,4.8357,4.8142,4.7934,4.7515,4.7205,4.7021,4.6172,4.5558,4.5381,4.4611,4.403,4.3712,4.3039,4.2616,4.2332,4.0521,3.9785,3.9888,3.872,3.7206,3.5604,3.5604,3.5171,3.4261,3.249,3.1143,2.9748,2.6894,2.5017,2.3445,2.1215,1.9558,1.8075,1.5914,1.4555,1.3397,1.189,1.1391,1.0756,0.8717,0.7549,0.6589,0.5299,0.4537,0.4096,0.3641,-0.333,-0.8696,-0.5716,-0.3658,-0.2151,-0.1506,-0.1614,-0.1827,-0.172,-0.1616,-0.1402,-0.0968,0.0215,0.1294,0.2045,0.3015,0.4634,0.7222,0.8371,1.1128,1.6444,1.9062,2.1361,2.3605,2.6143,2.8947,3.2028,3.3466,3.4913,3.6308,3.7435,3.8104,3.8344,3.8965,3.9033,4.0288,4.1534,4.291,4.5139,4.6462,4.7639,4.92,4.9424,4.9327,4.9327,5.0101,5.0961,5.1515,5.1711,5.1915,5.2197,5.143,5.0775,5.0775,4.9858,4.9223,4.9223,4.9223,4.9223,4.9223,4.9223,4.9166,4.911,4.911,4.9091,4.9069,4.8797,4.8584,4.842,4.805,4.7715,4.7415,4.6424,4.5859,4.5723,4.4946,4.4499,4.435,4.3723,4.3353,4.3138,4.185,4.1402,4.137,3.9569,3.7954,3.6529,3.5927,3.499,3.3837,3.2407,3.1143,2.9708,2.6825,2.4792,2.2886,1.9318,1.7034,1.5228,1.2992,1.1767,1.061,0.7638,0.689,0.6564,0.3658,0.2903,0.2259,-0.0108,-0.0648,-0.1615,-0.5205,-1.0074,-1.2961,-1.0327,-0.945,-0.8708,-0.7632,-0.7632,-0.7433,-0.6821,-0.6403,-0.5774,-0.4945,-0.3658,-0.2477,-0.1836,-0.0648,0.0971,0.3446,0.4302,0.7183,1.2987,1.6921,1.9656,2.1215,2.4098,2.7262,3.0758,3.2586,3.4547,3.6826,3.7821,3.8274,3.8344,3.8926,3.9033,4.1926,4.2522,4.3409,4.6628,4.7379,4.7747,4.9247,4.9553,4.9567,4.9567,4.9627,5.0068,5.1356,5.1816,5.1427,4.969,4.9491,4.9515,4.9426,4.9521,4.9567,4.9567,4.9567,4.9567,4.9552,4.9552,4.9499,4.9376,4.9376,4.931,4.9204,4.9203,4.9082,4.8816,4.8658,4.8415,4.8036,4.7411,4.6914,4.6491,4.5851,4.5514,4.547,4.4461,4.4065,4.4082,4.3746,4.3628,4.3389,4.0459,3.9257,3.8995,3.7407,3.6179,3.5011,3.2249,3.0654,2.938,2.6101,2.4015,2.1755,1.5745,1.2738,1.0812,0.7958,0.778,0.7572,0.2682,0.1819,0.1493,-0.2028,-0.3099,-0.3846,-0.6181,-0.665,-0.8152,-1.3655,-1.4557,-1.5033,-1.7906,-1.7733,-1.6689,-1.5165,-1.5177,-1.4818,-1.3212,-1.2892,-1.2301,-1.074,-0.8333,-0.6398,-0.5365,-0.2567,-0.0642,-0.0643,0.1068,0.3094,0.5566,1.3845,1.7903,1.6307,2.1151,2.4883,2.7214,3.0368,3.3791,3.742,3.7821,3.8005,3.8104,3.8413,3.8552,4.1913,4.4225,4.6311,4.7083,4.8284,4.9352,4.9636,4.9647,4.9566,4.9566,5.0491,5.1071,5.0255,5.024,5.0151,4.959,4.963,4.9687,4.9669,4.9697,4.9697,4.9697,4.9697,4.9657,4.9579,4.9566,4.9512,4.9392,4.9381,4.9365,4.9327,4.931,4.9204,4.8944,4.8804,4.8583,4.8288,4.8057,4.7614,4.7026,4.6385,4.5971,4.5766,4.5395,4.5601,4.6173,4.5123,4.4685,4.4594,4.3023,4.1799,4.0757,4.0026,3.9041,3.7236,3.0139,2.6759,2.4525,1.6746,1.1895,0.8519,0.5171,0.3217,0.1459,-0.1448,-0.3414,-0.4678,-0.4636,-0.5445,-0.6652,-0.7879,-0.8217,-0.8641,-1.0143,-0.9892,-0.9727,-1.1182,-1.7324,-2.2645,-2.2788,-2.1253,-1.9776,-1.9438,-1.8361,-1.7459,-1.7056,-1.6194,-1.5242,-1.4555,-1.3123,-1.1561,-1.008,-1.0189,-0.9803,-0.8667,-0.927,-0.6573,0.0615,1.2091,1.9814,2.2273,2.285,2.6195,3.3092,2.8353,2.835,3.3683,3.3631,3.4183,3.5267,3.4596,3.4519,4.1868,4.4775,4.7545,4.8255,4.9152,4.9862,4.9851,4.9758,4.965,4.965,5.0354,5.0697,4.9829,4.9765,4.9838,4.9758,4.9787,4.9851,4.9851,4.9787,4.9765,4.9765,4.9765,4.9741,4.9667,4.9657,4.9614,4.9566,4.9563,4.9535,4.9474,4.946,4.9401,4.9235,4.9129,4.8994,4.8826,4.8584,4.8234,4.7802,4.7165,4.6732,4.6495,4.634,4.67,4.7448,4.6762,4.6451,4.6273,4.4886,4.3834,4.302,4.2007,3.8595,3.3696,2.8875,2.1796,1.3573,0.5491,-0.1641,-0.7451,-0.9466,-1.3152,-1.7093,-1.87,-1.8648,-1.7407,-1.5242,-1.5072,-1.5621,-1.5905,-1.6028,-1.6335,-1.7504,-1.7435,-1.7557,-1.9395,-2.4313,-2.8289,-2.8078,-2.703,-2.5798,-2.4895,-2.4003,-2.2754,-2.1155,-2.0205,-1.928,-1.7925,-1.7074,-1.6146,-1.4689,-1.5201,-1.5227,-1.4338,-1.5289,-1.2462,-0.4555,0.4966,1.2308,1.6945,1.8802,2.2918,2.9501,1.5865,1.1008,1.5779,1.5769,1.6176,1.6911,1.6365,1.6321,4.2062,4.4677,4.74,4.9422,4.9856,4.9813,4.9932,4.9867,4.978,4.978,4.9787,4.9794,4.978,4.9872,4.9939,4.997,4.9974,4.9939,4.9939,4.9867,4.9794,4.9794,4.9794,4.9787,4.9773,4.9765,4.975,4.9744,4.9753,4.9684,4.9587,4.9553,4.9566,4.9566,4.946,4.9386,4.9371,4.9053,4.8811,4.8685,4.8124,4.7723,4.7443,4.7349,4.7617,4.8125,4.8216,4.7344,4.581,4.4188,4.2444,4.0683,3.9037,3.3067,2.5247,2.3672,1.378,0.014,-0.697,-1.5362,-2.3169,-2.4424,-3.0255,-3.6799,-3.635,-3.3122,-2.9099,-2.658,-2.5402,-2.4964,-2.4973,-2.4876,-2.4975,-2.6002,-2.7258,-2.9173,-3.2716,-3.3461,-3.3591,-3.3939,-3.3752,-3.2929,-3.0842,-3.0162,-2.8734,-2.5486,-2.4935,-2.4025,-2.1783,-2.1369,-2.0836,-1.947,-1.9255,-1.9046,-1.8524,-1.9175,-1.71,-1.1407,-0.5992,-0.0869,0.3762,0.9984,1.4735,1.7779,-0.0822,-0.8907,-0.5685,-0.5655,-0.5614,-0.5503,-0.5594,-0.5567,4.3584,4.4795,4.5888,4.9036,4.9856,4.9922,4.9962,4.9948,4.992,4.992,4.9908,4.9917,4.9928,4.9951,4.9958,4.9974,4.9953,4.9962,4.9962,4.9921,4.9917,4.9921,4.9915,4.986,4.9781,4.9763,4.9754,4.9779,4.9649,4.9602,4.9574,4.956,4.9553,4.9566,4.9553,4.9503,4.9377,4.9309,4.9189,4.9073,4.8979,4.8792,4.8535,4.8632,4.8723,4.8798,4.8486,4.3395,3.5249,3.4402,2.7545,1.7567,1.6926,1.4426,0.9971,0.0359,-0.4904,-0.8741,-1.9106,-2.649,-3.1265,-3.0552,-3.4603,-3.9251,-3.6542,-3.5452,-3.4765,-3.2758,-3.2773,-3.3161,-3.2546,-3.1825,-3.1288,-3.1494,-3.652,-4.1341,-4.177,-4.1954,-4.18,-4.1014,-3.9634,-3.787,-3.5601,-3.3146,-3.1363,-3.0888,-3.0281,-2.9723,-2.9276,-2.8537,-2.717,-2.4785,-2.5548,-2.4995,-2.2014,-2.4525,-2.6019,-2.5288,-1.9024,-1.5328,-1.512,-0.5541,-0.1973,-0.5579,-0.9459,-1.029,-0.7978,-0.8492,-0.8465,-0.7967,-0.8507,-0.8274,4.3922,4.479,4.5577,4.8854,4.9818,4.9957,4.9963,4.9961,4.9955,4.9955,4.9961,4.9962,4.9957,4.9963,4.9957,4.9962,4.9913,4.9853,4.9853,4.9856,4.9867,4.9957,4.9915,4.9845,4.9875,4.9847,4.9847,4.9864,4.981,4.9763,4.9754,4.9762,4.9773,4.9779,4.9695,4.9666,4.9568,4.9554,4.95,4.9387,4.9251,4.9084,4.8848,4.7412,4.4445,4.0211,3.5403,3.0409,2.5505,2.3818,1.9334,1.3404,1.1657,0.6847,0.0155,-0.5944,-1.3973,-2.2649,-2.8617,-3.4758,-3.9937,-3.9974,-4.1598,-4.3205,-4.1611,-4.0857,-4.0423,-3.9471,-3.9098,-3.8894,-3.8462,-3.8073,-3.7811,-3.7752,-4.1778,-4.563,-4.5623,-4.5281,-4.4646,-4.3556,-4.2245,-4.0627,-3.8624,-3.6199,-3.4178,-3.313,-3.2662,-3.2435,-3.2435,-3.2049,-3.1303,-3.0011,-3.0602,-3.0346,-2.8583,-2.9394,-2.9588,-2.8625,-2.7042,-2.4096,-1.9421,-2.2049,-2.4818,-2.7349,-2.8103,-2.8001,-2.7011,-2.7101,-2.7002,-2.6688,-2.6502,-2.6166,4.3434,4.4543,4.5531,4.8408,4.9515,4.9932,4.9962,4.9963,4.9963,4.9963,4.9963,4.9963,4.9963,4.9955,4.9939,4.9974,4.9856,4.9773,4.9818,4.978,4.9807,4.9932,4.9877,4.9848,4.9923,4.9948,4.9902,4.9917,4.9883,4.9885,4.9925,4.9917,4.9943,4.9974,4.9521,4.9255,4.9256,4.8909,4.8663,4.8507,4.8303,4.7341,4.554,4.1511,3.627,2.9842,2.24,1.7656,1.4988,1.2729,1.0024,0.7079,0.4397,-0.2137,-1.0301,-1.2493,-2.2102,-3.4309,-3.6226,-4.0877,-4.6129,-4.7076,-4.7099,-4.6776,-4.6763,-4.6046,-4.5162,-4.5043,-4.4308,-4.3491,-4.3361,-4.333,-4.3429,-4.3646,-4.5534,-4.7337,-4.7597,-4.6995,-4.6078,-4.4852,-4.3637,-4.2287,-4.0624,-3.8717,-3.6811,-3.5111,-3.4907,-3.4935,-3.491,-3.4941,-3.4818,-3.454,-3.4598,-3.4511,-3.4227,-3.3243,-3.1977,-3.0424,-3.2751,-3.0851,-2.3471,-3.4846,-4.1431,-4.1641,-4.2628,-4.3285,-4.3523,-4.304,-4.288,-4.2949,-4.2133,-4.1625,4.2131,4.3649,4.5196,4.7151,4.8719,4.9813,4.9922,4.9963,4.9963,4.9963,4.9962,4.9962,4.9963,4.9961,4.9953,4.9946,4.9829,4.9794,4.9932,4.9856,4.9781,4.9943,4.9939,4.9951,4.9948,4.9824,4.98,4.9768,4.9673,4.9659,4.9797,4.9773,4.9839,4.9962,4.8459,4.7652,4.764,4.609,4.5255,4.5161,4.5139,4.1581,3.4734,2.7053,2.3162,2.2409,1.9564,1.2145,0.1854,0.1259,-0.644,-1.8011,-1.9605,-2.2401,-2.6253,-3.2045,-3.5218,-3.7232,-4.1586,-4.4476,-4.626,-4.6514,-4.737,-4.8379,-4.8372,-4.8226,-4.7988,-4.7871,-4.7516,-4.714,-4.7153,-4.6811,-4.6819,-4.8372,-4.9033,-4.9228,-4.9031,-4.8929,-4.8345,-4.6576,-4.4817,-4.3132,-4.1555,-4.003,-3.9009,-3.8773,-3.9064,-3.9238,-3.913,-3.9114,-3.8662,-3.7455,-3.7255,-3.671,-3.5526,-3.5182,-3.5518,-3.6625,-3.6976,-3.7288,-3.7745,-3.8651,-3.9623,-4.056,-4.07,-4.1218,-4.2161,-4.154,-4.1432,-4.1753,-4.1179,-4.046,4.1856,4.3514,4.5216,4.6888,4.8621,4.9905,4.9923,4.9963,4.9963,4.9963,4.9962,4.9962,4.9963,4.9915,4.9848,4.9829,4.9741,4.9657,4.9705,4.9735,4.9753,4.9733,4.9741,4.9765,4.9838,4.9724,4.9697,4.978,4.972,4.9311,4.841,4.8354,4.791,4.695,4.628,4.3762,3.928,3.8585,3.5735,3.0908,3.089,2.567,1.5956,1.6244,1.1365,0.2896,0.6108,0.1434,-0.8689,-1.152,-1.5991,-2.1255,-2.4017,-2.69,-2.9892,-3.2974,-3.5143,-3.6882,-3.9578,-4.1848,-4.3556,-4.422,-4.6042,-4.7852,-4.7609,-4.7562,-4.7593,-4.7691,-4.7672,-4.7741,-4.8101,-4.8121,-4.8156,-4.8757,-4.8947,-4.9015,-4.916,-4.8368,-4.7153,-4.5476,-4.3762,-4.2092,-4.0618,-3.9863,-3.9481,-3.951,-3.9548,-3.9577,-3.9446,-3.9407,-3.9218,-3.8684,-3.8678,-3.8479,-3.7972,-3.8003,-3.8266,-3.8764,-3.8663,-3.873,-3.9048,-3.8811,-3.8849,-3.9244,-3.8979,-3.8871,-3.9059,-3.8546,-3.8247,-3.806,-3.721,-3.6591,4.1224,4.2799,4.4437,4.5537,4.7521,4.9196,4.9202,4.9581,4.9962,4.9962,4.9962,4.9963,4.9962,4.9864,4.9781,4.9756,4.9697,4.964,4.964,4.9711,4.9722,4.9647,4.9636,4.9647,4.9744,4.9625,4.9602,4.9687,4.9234,4.8487,4.737,4.6882,4.6075,4.4884,4.208,3.8082,3.2828,2.9908,2.5626,2.011,1.9772,1.2779,0.0287,0.4407,0.0338,-0.9654,-0.5449,-0.7675,-1.4635,-1.8666,-2.0621,-2.1419,-2.4552,-2.7038,-2.907,-3.0921,-3.2842,-3.4823,-3.6529,-3.8578,-4.0613,-4.1618,-4.363,-4.569,-4.5932,-4.5997,-4.6201,-4.6744,-4.7118,-4.7503,-4.7958,-4.8085,-4.8114,-4.8157,-4.8269,-4.8339,-4.8209,-4.7283,-4.5859,-4.3843,-4.2518,-4.1231,-3.9748,-3.9485,-3.9496,-3.9546,-3.9476,-3.9402,-3.9386,-3.9326,-3.9326,-3.9311,-3.9361,-3.9381,-3.9399,-3.9522,-3.9545,-3.9425,-3.9233,-3.8917,-3.8424,-3.8296,-3.8198,-3.8136,-3.7756,-3.7339,-3.6955,-3.6487,-3.6083,-3.5739,-3.4705,-3.4072,3.9908,4.1116,4.2415,4.2425,4.4975,4.7458,4.7453,4.874,4.9948,4.9955,4.9963,4.9961,4.9957,4.9856,4.9781,4.9756,4.9758,4.9779,4.9758,4.975,4.9753,4.9771,4.9782,4.9753,4.9771,4.964,4.9566,4.9566,4.8006,4.707,4.7033,4.559,4.4742,4.4721,3.5439,3.0431,3.0372,2.0756,1.5994,1.6178,1.5152,0.6127,-0.9626,-0.9523,-0.9785,-1.0392,-1.2307,-1.3692,-1.4782,-1.7934,-2.0269,-2.193,-2.3806,-2.4541,-2.4999,-2.8603,-3.0414,-3.128,-3.3637,-3.5906,-3.7929,-3.8831,-4.0183,-4.1753,-4.3446,-4.3864,-4.4025,-4.532,-4.626,-4.6828,-4.6897,-4.6668,-4.6627,-4.7131,-4.7524,-4.7484,-4.6191,-4.6,-4.5167,-4.2056,-4.1514,-4.1034,-3.9362,-3.9058,-3.9111,-3.9232,-3.9263,-3.9357,-3.9624,-3.9525,-3.9458,-3.9458,-3.9351,-3.9255,-3.928,-3.9135,-3.903,-3.8899,-3.8899,-3.8536,-3.7723,-3.759,-3.7451,-3.7358,-3.7199,-3.6935,-3.6558,-3.5905,-3.5665,-3.5739,-3.4719,-3.3866,3.9861,4.1078,4.2363,4.2355,4.4937,4.6828,4.4513,4.7093,4.9639,4.8441,4.9127,4.9963,4.9958,4.9844,4.978,4.9758,4.9674,4.9641,4.9616,4.9628,4.959,4.9498,4.9628,4.97,4.9506,4.9563,4.9063,4.7917,4.7338,4.3878,3.667,3.5829,3.2475,2.5786,2.259,1.8434,1.3083,1.0142,0.5723,-0.0073,-0.1246,-0.4581,-0.9906,-1.0988,-1.2142,-1.3294,-1.434,-1.5915,-1.7857,-1.8814,-2.0418,-2.2313,-2.3712,-2.5308,-2.7034,-2.8214,-2.9556,-3.0919,-3.1787,-3.3832,-3.6004,-3.6251,-3.7859,-3.9794,-4.0413,-4.0445,-4.0466,-4.1518,-4.271,-4.3381,-4.2217,-4.309,-4.4446,-4.4844,-4.5266,-4.5523,-4.5379,-4.3639,-4.1802,-4.0902,-3.9968,-3.9211,-3.8753,-3.8816,-3.8951,-3.899,-3.891,-3.8885,-3.8984,-3.8869,-3.8769,-3.8668,-3.8536,-3.8462,-3.8447,-3.849,-3.8527,-3.8477,-3.8125,-3.7804,-3.7436,-3.709,-3.6861,-3.6792,-3.6383,-3.5984,-3.5603,-3.5198,-3.4814,-3.4425,-3.3976,-3.3559,3.9756,4.0594,4.1406,4.1433,4.3477,4.4951,4.2847,4.533,4.7742,4.6696,4.7835,4.9013,4.9004,4.9407,4.9758,4.975,4.9711,4.9628,4.9498,4.9502,4.9464,4.9301,4.9446,4.9512,4.9452,4.9529,4.773,4.3235,4.2123,3.7346,2.7603,2.6028,2.2819,1.7105,1.3357,0.9196,0.4602,0.1439,-0.312,-0.8976,-0.9662,-1.0411,-1.1249,-1.2496,-1.3729,-1.4962,-1.607,-1.738,-1.8927,-1.9969,-2.1178,-2.2529,-2.3827,-2.5357,-2.6906,-2.706,-2.8188,-2.9681,-2.9971,-3.1504,-3.3378,-3.3567,-3.4913,-3.6528,-3.7291,-3.7486,-3.7683,-3.9083,-4.0132,-4.0561,-3.8877,-4.0142,-4.197,-4.2155,-4.2675,-4.3026,-4.2638,-4.1235,-3.9882,-3.9352,-3.8617,-3.8111,-3.8259,-3.8354,-3.8506,-3.8653,-3.8587,-3.8542,-3.8594,-3.8497,-3.838,-3.8308,-3.8186,-3.81,-3.8111,-3.8113,-3.8125,-3.806,-3.7548,-3.7193,-3.7102,-3.6798,-3.6523,-3.6347,-3.6018,-3.5558,-3.5033,-3.489,-3.4764,-3.4676,-3.4421,-3.425,3.9635,3.9772,3.9836,3.9836,4.113,4.2342,4.2229,4.3601,4.4857,4.476,4.6085,4.7303,4.739,4.8632,4.9614,4.9712,4.982,4.9749,4.9402,4.9337,4.9333,4.9215,4.9215,4.9285,4.9536,4.891,4.5004,3.6509,3.32,2.7928,1.9553,1.6492,1.5166,1.5571,0.6798,0.225,0.2736,-0.5268,-1.0,-1.1333,-1.1239,-1.1999,-1.344,-1.4082,-1.4814,-1.5621,-1.7335,-1.8115,-1.8484,-2.1178,-2.2313,-2.2457,-2.4059,-2.475,-2.4999,-2.5563,-2.662,-2.7896,-2.8318,-2.9276,-3.0453,-3.1187,-3.1798,-3.2537,-3.4323,-3.4988,-3.556,-3.7546,-3.8322,-3.8092,-3.6656,-3.7802,-3.9283,-3.929,-3.9981,-4.0236,-3.8744,-3.893,-3.8925,-3.7479,-3.7375,-3.7642,-3.7764,-3.77,-3.7748,-3.8133,-3.8205,-3.822,-3.8331,-3.8259,-3.8222,-3.8222,-3.8122,-3.8045,-3.8039,-3.7903,-3.7843,-3.7893,-3.7315,-3.6941,-3.6801,-3.6765,-3.648,-3.5855,-3.5918,-3.5595,-3.4884,-3.4983,-3.5473,-3.6287,-3.5789,-3.5794,3.9609,3.9655,3.9692,3.9692,4.1058,4.2035,4.0726,4.2783,4.4548,4.3238,4.4305,4.5899,4.7184,4.7722,4.8303,4.9315,5.0374,5.0663,4.9391,4.9204,4.9259,4.9295,4.9414,4.9461,4.9435,4.2551,3.668,3.3292,2.579,1.7595,0.891,0.8194,0.5262,-0.0849,-0.3213,-0.4987,-0.6272,-0.813,-0.9897,-1.1572,-1.187,-1.2519,-1.3608,-1.4259,-1.5626,-1.7492,-1.7821,-1.8886,-2.0531,-2.1219,-2.1606,-2.2086,-2.3639,-2.4129,-2.4152,-2.6219,-2.7467,-2.8215,-2.8796,-2.9508,-3.0228,-3.076,-3.1144,-3.1747,-3.2856,-3.3051,-3.3164,-3.4501,-3.4517,-3.4128,-3.4182,-3.5931,-3.7669,-3.7658,-3.8131,-3.8518,-3.8136,-3.7155,-3.6273,-3.5898,-3.5949,-3.6207,-3.6627,-3.6694,-3.6792,-3.7181,-3.7153,-3.7122,-3.7149,-3.7405,-3.7466,-3.7273,-3.7489,-3.7584,-3.7375,-3.7344,-3.7948,-3.9392,-3.9242,-3.8564,-3.7402,-3.7069,-3.6268,-3.4923,-3.5629,-3.5862,-3.5673,-3.6675,-3.7284,-3.7535,-3.7201,-3.6952,3.9221,3.94,3.9514,3.9549,4.0342,4.0919,4.006,4.1321,4.2398,4.1417,4.2553,4.425,4.5864,4.744,4.8732,4.9364,5.0094,5.0251,4.9255,4.9126,4.9203,4.9278,4.5494,4.2764,4.2536,3.3884,2.5854,1.9999,1.4751,0.795,-0.0828,-0.1363,-0.3256,-0.7283,-0.8125,-0.8976,-1.0159,-1.1386,-1.2649,-1.4067,-1.4718,-1.5318,-1.5758,-1.6759,-1.7861,-1.9067,-1.9983,-2.0821,-2.1616,-2.2147,-2.2347,-2.2478,-2.3687,-2.4175,-2.4429,-2.6244,-2.7085,-2.7467,-2.8338,-2.9031,-2.9651,-2.9942,-3.0285,-3.0763,-3.1389,-3.1603,-3.1815,-3.2686,-3.2785,-3.2736,-3.3194,-3.4494,-3.5707,-3.5649,-3.6007,-3.6353,-3.6225,-3.5642,-3.5198,-3.5157,-3.5171,-3.5378,-3.5981,-3.6095,-3.6483,-3.7638,-3.7778,-3.7953,-3.8615,-3.8827,-3.8898,-3.8754,-3.8863,-3.8863,-3.8681,-3.8645,-3.9034,-3.9971,-3.9984,-3.9524,-3.8626,-3.8315,-3.7709,-3.6686,-3.7065,-3.7162,-3.6943,-3.7631,-3.8285,-3.8872,-3.841,-3.8271,3.8825,3.9026,3.9265,3.942,3.9563,3.9702,3.9792,3.9909,3.9978,3.9856,4.1183,4.2837,4.4395,4.5933,4.7061,4.7477,4.6004,4.4719,4.4487,4.4514,4.4567,4.4614,3.754,3.2455,3.195,2.3592,1.4368,0.5186,0.3146,-0.0946,-0.837,-0.9365,-0.9443,-0.8682,-1.009,-1.1208,-1.1951,-1.4485,-1.616,-1.7097,-1.8073,-1.861,-1.861,-1.9936,-2.0634,-2.0808,-2.2476,-2.2988,-2.2535,-2.3481,-2.374,-2.3662,-2.4471,-2.4987,-2.5498,-2.6253,-2.6659,-2.6968,-2.7977,-2.8698,-2.9125,-2.9178,-2.9477,-2.9913,-3.0343,-3.0737,-3.1237,-3.2036,-3.258,-3.302,-3.3479,-3.4053,-3.4453,-3.4325,-3.472,-3.51,-3.484,-3.5169,-3.5444,-3.5291,-3.5291,-3.5463,-3.6088,-3.6162,-3.6769,-3.8697,-3.8943,-3.9393,-4.0599,-4.0725,-4.0712,-4.0671,-4.0622,-4.0538,-4.0411,-4.0411,-4.0442,-4.0558,-4.0558,-4.0478,-4.042,-4.0045,-3.9562,-3.8847,-3.8928,-3.867,-3.8179,-3.8349,-3.9028,-4.0119,-3.9482,-3.947,3.8762,3.8881,3.8993,3.9355,3.9561,3.9701,3.981,3.9852,3.985,3.9845,4.1121,4.2738,4.4403,3.8873,3.5057,3.7905,2.9903,2.3529,2.3905,2.3861,2.3836,2.3972,2.2906,2.1779,2.0814,1.1966,0.535,0.3037,-0.4226,-0.8864,-0.9788,-0.9836,-0.9915,-1.0018,-1.1158,-1.3151,-1.5989,-1.6273,-1.6916,-1.8073,-1.9319,-1.9936,-1.9919,-2.1345,-2.2324,-2.2815,-2.3003,-2.3657,-2.4742,-2.472,-2.5095,-2.5831,-2.6496,-2.6826,-2.6979,-2.751,-2.8578,-2.9733,-2.9785,-2.9861,-2.9905,-2.9483,-2.936,-2.9653,-3.0707,-3.0959,-3.1402,-3.3424,-3.4465,-3.4942,-3.5001,-3.5834,-3.6659,-3.6605,-3.7115,-3.7528,-3.7528,-3.7579,-3.7629,-3.7597,-3.7477,-3.7579,-3.7995,-3.7914,-3.811,-3.9196,-3.9196,-3.9204,-3.9623,-3.9984,-4.0117,-4.0029,-4.03,-4.0393,-4.0265,-4.0265,-4.1033,-4.2883,-4.2891,-4.2838,-4.2838,-4.1546,-3.9852,-3.7996,-3.8901,-3.908,-3.8442,-3.9531,-4.015,-4.0366,-4.0083,-3.9983,3.855,3.868,3.8803,3.9326,3.954,3.971,3.9818,3.9863,3.8719,3.4659,3.398,3.3362,3.102,2.7466,2.5383,2.6928,2.335,2.0064,1.9313,1.8755,1.848,1.8743,1.4013,1.0459,0.9804,0.1125,-0.4882,-0.6018,-1.0048,-1.2421,-1.2318,-1.2393,-1.2542,-1.2649,-1.298,-1.487,-1.8477,-1.9254,-1.9822,-2.0386,-2.1891,-2.2644,-2.2644,-2.3534,-2.4074,-2.4431,-2.5249,-2.5747,-2.6047,-2.6275,-2.6522,-2.6794,-2.6895,-2.7232,-2.7675,-2.8744,-2.9417,-2.9882,-3.0702,-3.0813,-3.0602,-3.0545,-3.0835,-3.1371,-3.2026,-3.221,-3.2407,-3.3454,-3.4531,-3.5392,-3.5392,-3.622,-3.7125,-3.7038,-3.756,-3.8049,-3.7838,-3.7838,-3.7859,-3.7699,-3.7624,-3.7699,-3.8089,-3.8101,-3.8463,-3.988,-4.0147,-4.0545,-4.1539,-4.2005,-4.2215,-4.2167,-4.2325,-4.2339,-4.2277,-4.2036,-4.2372,-4.3378,-4.3368,-4.3313,-4.3236,-4.2153,-4.0995,-3.9846,-3.9921,-3.981,-3.9531,-4.0177,-4.0421,-4.0421,-3.9907,-3.9614,3.8558,0.0,3.9182,4.0225,4.032,3.9767,0.0,3.7405,3.4846,2.7177,2.5285,2.3491,1.8621,1.6448,1.5314,1.5162,1.4144,1.2857,1.1455,1.0778,1.0537,1.0952,0.4012,-0.0968,-0.1404,-0.7767,-1.2491,-1.3897,-1.3981,-1.397,-1.4273,-1.4636,-1.4929,-1.5116,-1.5228,-1.6843,-2.0161,-2.128,-2.2081,-2.2471,-2.3954,-2.464,-2.4811,-2.5319,-2.5674,-2.586,-2.7282,-2.7713,-2.7461,-2.7952,-2.8093,-2.8081,-2.7864,-2.8024,-2.866,-2.9829,-3.0111,-3.0086,-3.1433,-3.157,-3.1288,-3.164,-3.2043,-3.2539,-3.282,-3.3572,-3.4156,-3.4156,-3.5047,-3.6067,-3.6067,-3.6809,-3.755,-3.7492,-3.7953,-3.8434,-3.8298,-3.8354,-3.8466,-3.8442,-3.8354,-3.841,-3.8718,-3.8718,-3.9266,-4.0733,-4.1242,-4.1901,-4.317,-4.3679,-4.3941,-4.3804,-4.3941,-4.3941,-4.3818,-4.328,-4.2948,-4.2948,-4.2915,-4.2803,-4.2722,-4.2133,-4.1747,-4.1479,-4.0708,-4.0262,-4.0197,-4.0002,-3.9937,-3.9872,-3.9311,-3.9012,0.0,3.9928,4.079,4.2906,4.2519,3.994,3.3399,3.0234,0.0,1.8017,1.7386,1.7643,1.5323,0.8548,0.3201,0.2555,-0.551,-1.1668,-1.1777,-1.1353,-1.0929,-1.0622,-1.1259,-1.2027,-1.2955,-1.3636,-1.4481,-1.567,-1.4805,-1.4284,-1.4503,-1.5071,-1.5769,-1.6895,-1.8359,-1.9687,-2.1032,-2.0933,-2.1706,-2.3474,-2.4068,-2.4603,-2.5206,-2.5973,-2.6733,-2.7464,-2.7555,-2.8503,-2.9867,-2.9629,-3.0104,-3.0781,-3.055,-3.0488,-3.0488,-3.0488,-3.0951,-3.1574,-3.2177,-3.2017,-3.1577,-3.2161,-3.1878,-3.1367,-3.1993,-3.4317,-3.6876,-3.6876,-3.7421,-3.8052,-3.8052,-3.8533,-3.8938,-3.8909,-3.9342,-3.9925,-4.0461,-4.0585,-4.08,-4.1529,-4.1438,-4.1287,-4.1347,-4.1227,-4.135,-4.201,-4.2126,-4.2242,-4.2592,-4.3105,-4.3269,-4.2873,-4.3269,-4.3498,-4.3422,-4.2371,-4.1692,-4.1692,-4.1632,-4.154,-4.154,-4.1479,-4.1327,-4.1081,-4.0392,-3.9876,-3.9488,-3.8769,-3.8483,-3.8483,-3.8384,-3.8413,3.892,4.0588,4.216,4.3813,4.3867,4.1075,3.183,2.8786,2.3667,0.865,0.5301,0.3492,-0.184,-0.5838,-0.8088,-0.7446,-1.0608,-1.3226,-1.3516,-1.3488,-1.3649,-1.449,-1.5181,-1.5531,-1.5531,-1.5531,-1.5945,-1.6858,-1.6653,-1.6755,-1.7356,-1.7864,-1.8587,-1.9607,-2.0107,-2.0818,-2.1919,-2.2603,-2.3281,-2.4068,-2.5076,-2.5713,-2.5973,-2.6271,-2.6548,-2.6733,-2.7896,-2.8703,0.0,-3.0219,-3.076,-3.1079,-3.0784,-3.0869,-3.1235,-3.1672,-3.2091,-3.2506,-3.3163,-3.3127,-3.2717,-3.2955,-3.2831,-3.2703,-3.3437,-3.4952,-3.6513,-3.678,-3.7391,-3.795,-3.795,-3.8355,-3.8847,-3.8847,-3.9318,-3.9846,-3.9946,-4.0362,-4.074,-4.099,-4.1237,-4.1482,-4.1482,-4.1421,-4.1482,-4.1695,-4.1962,-4.2197,-4.2313,-4.2681,-4.2873,-4.2568,-4.2714,-4.2803,-4.2746,-4.2106,-4.172,-4.172,-4.154,-4.1358,-4.1297,-4.0802,-4.0487,-4.0295,-3.9512,-3.8974,-3.8838,-3.8454,-3.8274,-3.8274,-3.8274,-3.8274,3.983,3.9693,3.9138,4.0721,3.8139,3.2673,2.2831,1.9505,1.3979,-0.1949,-0.5961,-0.8365,-1.4051,-1.5219,-1.5186,-1.4366,-1.4169,-1.4182,-1.4768,-1.4601,-1.4921,-1.6201,-1.6648,-1.6685,-1.6485,-1.6678,-1.7075,-1.7573,-1.7891,-1.8399,-1.9177,-1.9492,-2.0306,-2.1706,-2.1624,-2.2017,-2.2973,-2.3858,-2.4431,-2.4603,-2.562,-2.6178,-2.6476,-2.6641,-2.6825,-2.6988,-2.8525,-2.9235,-2.9323,-3.0479,-3.1017,-3.1017,-3.0955,-3.1126,-3.1551,-3.215,-3.2424,-3.2614,-3.3244,-3.3325,-3.3163,-3.3351,-3.3593,-3.3889,-3.4445,-3.4811,-3.5198,-3.5858,-3.6633,-3.7376,-3.7664,-3.8005,-3.8297,-3.8297,-3.8642,-3.9012,-3.905,-3.9548,-3.9907,-4.0068,-4.0454,-4.074,-4.074,-4.0927,-4.1114,-4.1114,-4.1543,-4.1902,-4.1902,-4.2281,-4.2511,-4.2255,-4.2339,-4.2165,-4.1479,-4.1236,-4.1051,-4.1051,-4.0865,-4.074,-4.0645,-4.0132,-3.9806,-3.9638,-3.9033,-3.8622,-3.8483,-3.8413,-3.8344,-3.8274,-3.8274,-3.8274,4.1732,3.6872,3.0828,3.303,2.4245,1.2937,0.4698,0.0359,-0.461,-1.3879,-1.5712,-1.6237,-1.8308,-1.7866,-1.7369,-1.8196,-1.7817,-1.7713,-1.8199,-1.7526,-1.7036,-1.7472,-1.674,-1.6324,-1.6716,-1.7484,-1.7905,-1.7905,-1.8399,-1.889,-1.9463,-1.9463,-2.0573,-2.3088,-2.3088,-2.3474,-2.4259,-2.4259,-2.4603,-2.53,-2.53,-2.5694,-2.6476,-2.7282,-2.7987,-2.8592,-2.9367,-3.0114,-3.0697,-3.0697,-3.0697,-3.0784,-3.1297,-3.149,-3.1466,-3.1648,-3.1708,-3.1792,-3.2316,-3.2482,-3.2589,-3.3188,-3.3969,-3.4576,-3.4576,-3.3889,-3.3269,-3.4208,-3.5429,-3.6735,-3.7521,-3.7593,-3.7521,-3.7521,-3.7275,-3.7348,-3.8133,-3.8274,-3.8454,-3.9147,-3.9281,-3.9281,-3.9281,-3.9907,-4.0421,-4.0421,-4.099,-4.136,-4.136,-4.1875,-4.2111,-4.1966,-4.2313,-4.172,-3.9638,-3.9468,-3.9468,-3.9468,-3.9468,-3.9468,-3.9468,-3.9468,-3.9334,-3.9072,-3.9072,-3.8897,-3.8483,-3.8483,-3.8413,-3.8274,-3.8274,-3.8274,1.9682,1.77,1.5382,1.6789,1.4329,0.9088,-0.0525,-0.3553,-0.7438,-1.804,-2.0201,-2.0131,-2.0049,-1.9528,-1.8861,-1.8343,-1.8024,-1.8096,-1.8831,-1.9072,-1.9272,-1.9101,-1.8938,-1.8915,-1.9235,-1.9321,-1.9622,-2.0421,-2.0322,-2.0521,-2.1395,-2.1886,-2.2374,-2.3088,-2.3666,-2.4068,-2.4259,-2.4774,-2.5038,-2.53,-2.6528,-2.7191,-2.7282,-2.8166,-2.8435,-2.8346,-2.9301,-2.9742,-2.9807,-3.0352,-3.0611,-3.0697,-3.0588,-3.1249,-3.2341,-3.2233,-3.2893,-3.3835,-3.3648,-3.3568,-3.3568,-3.3432,-3.3593,-3.3889,-3.4445,-3.4811,-3.5198,-3.5831,-3.6355,-3.6826,-3.7521,-3.7664,-3.7664,-3.7521,-3.7448,-3.7448,-3.7492,-3.7892,-3.8344,-3.8523,-3.8974,-3.9281,-3.9281,-3.9481,-3.9644,-3.9644,-4.0002,-4.0421,-4.0675,-4.0864,-4.0927,-4.0864,-4.1237,-4.1237,-4.0612,-4.0033,-3.9704,-3.9704,-3.9602,-3.9468,-3.9468,-3.9468,-3.9401,-3.9334,-3.9169,-3.9004,-3.8897,-3.8622,-3.8483,-3.8413,-3.8344,-3.8274,0.6164,0.3903,0.1286,0.2289,-0.1076,-0.6005,-1.1549,-1.3588,-1.6238,-2.2768,-2.3968,-2.3648,-2.2976,-2.2002,-2.1115,-2.0296,-1.9673,-1.9432,-1.9857,-2.0026,-2.019,-2.0126,-1.9791,-1.9808,-2.0007,-1.9708,-2.0007,-2.123,-2.123,-2.1821,-2.3088,-2.3474,-2.3744,-2.4013,-2.4394,-2.4887,-2.5189,-2.5526,-2.5787,-2.5787,-2.6825,-2.7464,-2.7646,-2.8435,-2.8792,-2.8836,-2.9742,-3.0004,-2.9894,-3.0352,-3.0869,-3.1273,-3.1164,-3.1983,-3.3137,-3.3056,-3.3648,-3.4418,-3.3915,-3.3809,-3.3729,-3.3513,-3.3432,-3.3513,-3.3969,-3.4445,-3.4888,-3.5094,-3.5348,-3.5577,-3.5961,-3.6214,-3.6513,-3.6808,-3.691,-3.691,-3.7057,-3.7492,-3.785,-3.785,-3.8145,-3.8395,-3.8395,-3.8671,-3.8906,-3.8906,-3.9542,-4.0163,-4.0421,-4.0675,-4.0802,-4.0802,-4.0802,-4.0739,-4.0548,-4.0098,-3.9836,-3.9704,-3.9505,-3.9468,-3.9468,-3.9468,-3.9468,-3.9468,-3.9304,-3.9169,-3.9072,-3.8828,-3.8691,-3.8651,-3.8582,-3.8845,-0.3121,-0.7426,-1.2595,-1.171,-1.9612,-2.7244,-2.5752,-2.6775,-2.8004,-2.7367,-2.6926,-2.6471,-2.6399,-2.4932,-2.3723,-2.3463,-2.2232,-2.1331,-2.107,-2.0698,-2.0529,-2.0577,-2.0067,-1.9663,-1.9663,-1.9478,-1.9792,-2.0834,-2.1624,-2.2683,-2.4259,-2.4355,-2.4698,-2.5206,-2.5394,-2.5694,-2.6476,-2.6476,-2.6456,-2.6364,-2.6641,-2.71,-2.7646,-2.8414,-2.9146,-2.9852,-3.0439,-3.0784,-3.0869,-3.0784,-3.1358,-3.2199,-3.2564,-3.3219,-3.4049,-3.3969,-3.4049,-3.4049,-3.3674,-3.3513,-3.3513,-3.3432,-3.3508,-3.3584,-3.3584,-3.3289,-3.305,-3.2968,-3.3325,-3.3677,-3.3648,-3.4128,-3.4888,-3.581,-3.6064,-3.6289,-3.6983,-3.713,-3.713,-3.713,-3.713,-3.713,-3.713,-3.7707,-3.8175,-3.8175,-3.9341,-4.0228,-4.0228,-4.0802,-4.1269,-4.1457,-4.0918,-4.0367,-4.0066,-3.9969,-3.9835,-3.9624,-3.9624,-3.9692,-3.976,-3.976,-3.976,-3.9828,-3.9828,-3.9692,-3.9458,-3.9458,-3.9389,-3.9241,-3.9241,-3.9861,-2.5522,-2.8448,-3.1577,-3.0586,-3.2254,-3.3728,-3.2305,-3.1432,-3.0462,-2.9254,-2.8124,-2.7326,-2.7194,-2.5734,-2.4809,-2.5431,-2.4,-2.2957,-2.3067,-2.2663,-2.2212,-2.1704,-2.1509,-2.1395,-2.1395,-2.1411,-2.1411,-2.1723,-2.2408,-2.3281,-2.4259,-2.4774,-2.5132,-2.53,-2.588,-2.6271,-2.6476,-2.7008,-2.6916,-2.6178,-2.8346,-2.8903,-2.8098,-2.9761,-3.0565,-3.0525,-3.0697,-3.1103,-3.178,-3.1588,-3.215,-3.3081,-3.2761,-3.3193,-3.3969,-3.3758,-3.4128,-3.4576,-3.4049,-3.3889,-3.3809,-3.3513,-3.4067,-3.4803,-3.4584,-3.3811,-3.3131,-3.3674,-3.3809,-3.4102,-3.468,-3.4886,-3.5298,-3.6187,-3.6808,-3.713,-3.713,-3.713,-3.713,-3.713,-3.713,-3.713,-3.713,-3.7275,-3.742,-3.742,-3.7921,-3.8413,-3.876,-3.9311,-4.0331,-4.198,-4.1808,-4.1437,-4.1391,-4.1107,-4.0879,-4.0831,-4.0831,-4.1136,-4.1719,-4.1748,-4.1941,-4.2483,-4.2483,-4.2483,-4.241,-4.2294,-4.2251,-4.2251,-4.2,-4.2074,-3.9211,-3.9811,-4.0288,-3.8898,-3.8689,-3.8297,-3.6652,-3.5375,-3.4157,-3.2892,-3.1354,-3.0008,-2.926,-2.8124,-2.7141,-2.6728,-2.5185,-2.413,-2.3988,-2.3186,-2.2651,-2.2539,-2.2213,-2.2017,-2.2017,-2.2293,-2.2505,-2.2505,-2.3281,-2.4378,-2.5942,-2.6749,-2.714,-2.714,-2.7917,-2.8418,-2.8418,-2.916,-2.9255,-2.878,-3.0194,-3.0681,-3.0495,-3.1508,-3.2052,-3.2166,-3.2166,-3.2526,-3.2948,-3.3253,-3.4064,-3.5032,-3.5209,-3.5737,-3.626,-3.5877,-3.5903,-3.5982,-3.5538,-3.5345,-3.526,-3.5117,-3.5353,-3.5659,-3.5547,-3.4995,-3.4545,-3.4777,-3.4862,-3.5007,-3.5794,-3.6017,-3.6263,-3.7181,-3.7949,-3.8551,-3.8395,-3.8677,-3.8907,-3.8907,-3.8907,-3.8907,-3.8907,-3.8907,-3.8907,-3.8907,-3.9287,-3.9633,-3.9856,-4.0267,-4.0911,-4.1957,-4.2073,-4.2073,-4.1794,-4.156,-4.1375,-4.1218,-4.1218,-4.1375,-4.1823,-4.1823,-4.1948,-4.2361,-4.2693,-4.2874,-4.2874,-4.3128,-4.3276,-4.3202,-4.2949,-4.3199,-4.6677,-4.5397,-4.3828,-4.2088,-4.1908,-4.1643,-3.9783,-3.8653,-3.7611,-3.6614,-3.4749,-3.2994,-3.169,-3.0793,-2.9551,-2.791,-2.6419,-2.5264,-2.4669,-2.3449,-2.2894,-2.3281,-2.278,-2.2408,-2.2408,-2.2991,-2.3431,-2.3555,-2.4494,-2.6025,-2.8114,-2.8826,-2.9254,-2.9457,-3.0142,-3.0621,-3.072,-3.151,-3.1826,-3.1608,-3.1902,-3.2313,-3.2819,-3.2915,-3.3299,-3.3846,-3.3846,-3.394,-3.4128,-3.5196,-3.6107,-3.7114,-3.8015,-3.8532,-3.8676,-3.8222,-3.7729,-3.7342,-3.6937,-3.676,-3.681,-3.7217,-3.7036,-3.6704,-3.6704,-3.6397,-3.6001,-3.5819,-3.5728,-3.591,-3.6492,-3.667,-3.6912,-3.7763,-3.8564,-3.9099,-3.9294,-3.9849,-4.0394,-4.0556,-4.0717,-4.0826,-4.0826,-4.0826,-4.0826,-4.0826,-4.1196,-4.1482,-4.1482,-4.1963,-4.2171,-4.1903,-4.2322,-4.248,-4.2063,-4.1983,-4.1903,-4.1552,-4.1552,-4.1633,-4.1714,-4.1714,-4.1794,-4.1874,-4.2567,-4.2909,-4.2909,-4.3449,-4.3753,-4.3858,-4.3601,-4.4165,-4.7123,-4.656,-4.5815,-4.4031,-4.4048,-4.4077,-4.26,-4.0793,-3.9295,-3.8306,-3.581,-3.3752,-3.3907,-3.2309,-3.0768,-3.0351,-2.8276,-2.6501,-2.5861,-2.478,-2.4068,-2.4164,-2.405,-2.3954,-2.3954,-2.4068,-2.4439,-2.5135,-2.7251,-2.8688,-2.903,-2.9152,-2.9659,-3.0642,-3.0521,-3.0819,-3.1532,-3.2313,-3.2216,-3.139,-3.287,-3.318,-3.2484,-3.3371,-3.3751,-3.3846,-3.3846,-3.4292,-3.5128,-3.6107,-3.7114,-3.8015,-3.8532,-3.8591,-3.8109,-3.7755,-3.7317,-3.6849,-3.6734,-3.676,-3.7064,-3.914,-3.9046,-3.8166,-3.7929,-3.7207,-3.6387,-3.591,-3.5728,-3.5728,-3.5636,-3.5545,-3.5819,-3.6581,-3.6849,-3.7177,-3.7937,-3.8195,-3.8537,-3.9434,-4.0259,-4.0826,-4.0826,-4.0826,-4.0826,-4.0826,-4.0877,-4.0877,-4.0877,-4.2379,-4.3255,-4.2989,-4.305,-4.305,-4.2989,-4.2989,-4.2989,-4.29,-4.29,-4.3139,-4.3725,-4.3725,-4.4072,-4.4727,-4.4812,-4.4897,-4.4897,-4.4981,-4.5316,-4.5894,-4.5812,-4.6257,-4.7779,-4.6983,-4.6278,-4.5842,-4.5193,-4.4689,-4.5092,-4.3274,-4.1281,-4.0509,-3.8539,-3.6581,-3.5193,-3.3793,-3.2287,-3.0557,-2.9208,-2.8028,-2.7001,-2.6211,-2.5867,-2.6286,-2.5968,-2.5767,-2.5767,-2.6068,-2.6519,-2.6899,-2.9065,-3.0621,-3.1133,-3.1767,-3.2374,-3.2811,-3.279,-3.31,-3.384,-3.4752,-3.4953,-3.4427,-3.5253,-3.5376,-3.4953,-3.5353,-3.5575,-3.5575,-3.6243,-3.6609,-3.719,-3.8801,-3.9566,-3.9723,-4.0564,-4.0385,-3.9632,-3.9408,-3.9131,-3.8665,-3.8665,-3.8665,-3.8911,-3.993,-3.9615,-3.8897,-3.88,-3.8283,-3.7623,-3.7407,-3.7311,-3.7407,-3.7885,-3.798,-3.8263,-3.9146,-3.9788,-4.0151,-4.0034,-4.0421,-4.0806,-4.069,-4.0929,-4.1457,-4.2033,-4.1659,-4.1659,-4.2744,-4.2318,-4.2033,-4.2489,-4.3264,-4.3664,-4.3394,-4.3394,-4.3304,-4.3214,-4.3123,-4.3123,-4.3123,-4.3123,-4.3304,-4.3519,-4.3547,-4.3726,-4.4082,-4.4434,-4.487,-4.5329,-4.5669,-4.6007,-4.6257,-4.6145,-4.5977,-4.8741,-4.7804,-4.6938,-4.7656,-4.6454,-4.5501,-4.6784,-4.512,-4.3175,-4.266,-4.0965,-3.8927,-3.6696,-3.5108,-3.3373,-3.0913,-2.9946,-2.9162,-2.805,-2.7661,-2.7637,-2.8172,-2.7656,-2.7223,-2.7223,-2.7656,-2.8263,-2.871,-3.0313,-3.1645,-3.265,-3.3196,-3.3912,-3.4768,-3.4448,-3.4874,-3.5973,-3.6598,-3.6908,-3.6908,-3.6908,-3.6908,-3.6908,-3.6908,-3.6908,-3.701,-3.7702,-3.8184,-3.8585,-4.0281,-4.0954,-4.0902,-4.1711,-4.1549,-4.0814,-4.0718,-4.0526,-4.0235,-4.0235,-4.0235,-4.0261,-4.0164,-3.9846,-3.9453,-3.9329,-3.9008,-3.8685,-3.8609,-3.8609,-3.8809,-3.9476,-3.9672,-3.9868,-4.0589,-4.1376,-4.1751,-4.0876,-4.1281,-4.1658,-4.1161,-4.0945,-4.135,-4.2336,-4.2151,-4.2401,-4.411,-4.3574,-4.3214,-4.3754,-4.3843,-4.3754,-4.3485,-4.3485,-4.3394,-4.3214,-4.3123,-4.3123,-4.3123,-4.3123,-4.3123,-4.3123,-4.3123,-4.3123,-4.3123,-4.3637,-4.4142,-4.4724,-4.5214,-4.5556,-4.5725,-4.5696,-4.5556,-5.0033,-4.9562,-4.8892,-4.9215,-4.8469,-4.7562,-4.712,-4.5856,-4.4785,-4.4756,-4.2186,-3.9783,-3.8981,-3.6113,-3.3482,-3.2492,-3.0951,-2.9782,-2.9274,-2.9112,-2.8948,-2.8724,-2.8724,-2.8519,-2.8108,-2.8127,-2.8912,-3.068,-3.0836,-3.1434,-3.2581,-3.1697,-3.265,-3.5973,-3.4661,-3.498,-3.716,-3.7034,-3.6908,-3.6908,-3.6908,-3.6908,-3.6908,-3.6908,-3.6908,-3.6908,-3.701,-3.7601,-3.8485,-3.9107,-3.9965,-4.0807,-4.0858,-4.0884,-4.0814,-4.0429,-4.0235,-4.0235,-4.0235,-4.0235,-4.0164,-3.9969,-3.9871,-3.9773,-3.9329,-3.923,-3.9131,-3.8958,-3.8858,-3.8833,-3.8609,-3.8585,-3.8585,-3.8685,-3.8685,-3.8685,-3.8309,-3.8309,-3.8585,-3.923,-3.9426,-3.972,-4.0807,-4.1684,-4.2758,-4.3754,-4.396,-4.3754,-4.3574,-4.3574,-4.3485,-4.3214,-4.3214,-4.3214,-4.3123,-4.3123,-4.3123,-4.3123,-4.3123,-4.3123,-4.3123,-4.3123,-4.3123,-4.3123,-4.3214,-4.3214,-4.3304,-4.3304,-4.3637,-4.423,-4.4956,-4.5669,-4.9689,-4.8951,-4.815,-4.9456,-4.8489,-4.73,-4.7318,-4.647,-4.5357,-4.3732,-4.2439,-4.1135,-3.9255,-3.7247,-3.5401,-3.418,-3.3301,-3.2546,-3.1636,-3.2121,-3.2503,-3.2377,-3.1784,-3.1164,-3.1057,-2.9886,-2.9588,-3.0836,-3.1767,-3.243,-3.2869,-3.4148,-3.532,-3.6598,-3.6159,-3.6286,-3.7034,-3.6931,-3.6908,-3.6908,-3.6908,-3.6908,-3.6908,-3.6908,-3.6908,-3.701,-3.8385,-3.8983,-3.9107,-4.0641,-4.1049,-4.0763,-4.0788,-4.0718,-4.0429,-4.0332,-4.0235,-4.0261,-4.0066,-3.9969,-3.9969,-3.9551,-3.9354,-3.9181,-3.9032,-3.8933,-3.8709,-3.8609,-3.8609,-3.8609,-3.8485,-3.8485,-3.8485,-3.8485,-3.8983,-3.9279,-3.8509,-3.8884,-3.9181,-3.8884,-3.9255,-3.9842,-4.0062,-4.1496,-4.2941,-4.3754,-4.3664,-4.3394,-4.3304,-4.3304,-4.3214,-4.3214,-4.3123,-4.3123,-4.3123,-4.3123,-4.3123,-4.3123,-4.3123,-4.3123,-4.3123,-4.3123,-4.3123,-4.3123,-4.3123,-4.3367,-4.3787,-4.3787,-4.3876,-4.4114,-4.4406,-4.423,-4.9515,-4.8978,-4.8387,-4.963,-4.8812,-4.7685,-4.7434,-4.6775,-4.5641,-4.3937,-4.2923,-4.1818,-4.0159,-3.8083,-3.6263,-3.5265,-3.4559,-3.391,-3.3178,-3.3843,-3.4234,-3.3567,-3.2978,-3.2451,-3.212,-3.1119,-3.0895,-3.1434,-3.252,-3.3175,-3.3609,-3.498,-3.6159,-3.6908,-3.6574,-3.6471,-3.6908,-3.6908,-3.6908,-3.6908,-3.6908,-3.6908,-3.6908,-3.6908,-3.6931,-3.6931,-3.8309,-3.9008,-3.9206,-4.0449,-4.0858,-4.0814,-4.0718,-4.0429,-4.0235,-4.0235,-4.0164,-4.0066,-3.9871,-3.9773,-3.9551,-3.923,-3.9057,-3.8858,-3.8734,-3.8609,-3.8485,-3.8485,-3.8485,-3.8485,-3.8409,-3.8409,-3.8309,-3.8208,-3.8809,-3.9008,-3.8208,-3.8609,-3.8908,-3.8107,-3.8485,-3.8983,-3.8809,-4.0134,-4.159,-4.252,-4.2639,-4.2455,-4.2151,-4.2058,-4.2243,-4.2574,-4.2666,-4.2758,-4.3123,-4.3123,-4.3123,-4.3123,-4.3123,-4.3123,-4.3123,-4.3123,-4.3123,-4.3123,-4.3123,-4.3367,-4.3787,-4.3787,-4.3787,-4.3787,-4.3849,-4.3402,-4.9664,-4.9846,-4.9771,-4.9981,-4.9489,-4.8739,-4.7694,-4.6582,-4.5698,-4.5613,-4.3671,-4.1911,-4.1631,-3.8586,-3.6009,-3.5741,-3.4661,-3.3912,-3.3912,-3.4212,-3.3783,-3.2018,-3.2169,-3.1989,-3.108,-3.1989,-3.2691,-3.2671,-3.2978,-3.3609,-3.4683,-3.3998,-3.4639,-3.6908,-3.5823,-3.5823,-3.6908,-3.6908,-3.6908,-3.6908,-3.6908,-3.6908,-3.6908,-3.6908,-3.6828,-3.654,-3.654,-3.7421,-3.8859,-3.8409,-3.923,-4.0814,-4.0429,-4.0235,-4.0235,-4.0235,-4.0066,-3.9871,-3.9773,-3.9551,-3.923,-3.8958,-3.8858,-3.8858,-3.8609,-3.8485,-3.8485,-3.8485,-3.8485,-3.8409,-3.8107,-3.8131,-3.803,-3.775,-3.775,-3.7648,-3.7366,-3.7389,-3.7263,-3.7034,-3.701,-3.701,-3.701,-3.7905,-3.8884,-3.9868,-4.0858,-4.1144,-4.0159,-4.0062,-4.0474,-4.1455,-4.1549,-4.1991,-4.3032,-4.3123,-4.3123,-4.3123,-4.3123,-4.3123,-4.3123,-4.3123,-4.3123,-4.3123,-4.3123,-4.3123,-4.3123,-4.3123,-4.3123,-4.3123,-4.3222,-4.3312,-5.0764,-4.9953,-4.9219,-5.1735,-5.0563,-4.8748,-4.8279,-4.73,-4.6115,-4.4581,-4.3581,-4.2649,-4.1818,-3.9792,-3.8336,-3.8236,-3.7043,-3.6055,-3.6055,-3.6159,-3.595,-3.532,-3.4577,-3.3696,-3.2786,-3.252,-3.265,-3.3154,-3.3459,-3.3912,-3.4448,-3.5214,-3.6077,-3.6908,-3.6598,-3.6574,-3.6908,-3.6908,-3.6908,-3.6908,-3.6908,-3.6908,-3.6908,-3.6724,-3.6517,-3.6286,-3.7679,-3.8284,-3.8409,-3.9599,-4.021,-4.0429,-4.0235,-4.0235,-4.0261,-4.0066,-3.9871,-3.9773,-3.9255,-3.9057,-3.8933,-3.8709,-3.8609,-3.8609,-3.8485,-3.8485,-3.8485,-3.8208,-3.8208,-3.8107,-3.7828,-3.7852,-3.7852,-3.775,-3.775,-3.7648,-3.7648,-3.757,-3.7546,-3.7546,-3.8083,-3.856,-3.836,-3.9156,-3.9965,-4.0062,-3.9672,-3.9476,-3.9965,-4.0062,-4.0159,-4.0449,-4.0449,-4.0954,-4.1925,-4.2018,-4.2363,-4.3123,-4.3123,-4.3123,-4.3123,-4.3123,-4.3123,-4.3123,-4.3123,-4.3123,-4.3123,-4.3123,-4.2941,-4.2574,-4.2639,-4.2243,-4.9842,-4.903,-4.8534,-5.0481,-4.9428,-4.7778,-4.7204,-4.6409,-4.5525,-4.4526,-4.3787,-4.2859,-4.1538,-4.0205,-3.9032,-3.836,-3.7499,-3.6908,-3.6908,-3.6828,-3.6517,-3.5763,-3.5342,-3.4918,-3.4234,-3.3718,-3.3609,-3.4127,-3.447,-3.4683,-3.5024,-3.5868,-3.6413,-3.6598,-3.6724,-3.6828,-3.6828,-3.6931,-3.6908,-3.6908,-3.6908,-3.6931,-3.6724,-3.6644,-3.6436,-3.6182,-3.7499,-3.8006,-3.803,-3.9403,-4.0113,-4.0235,-4.0235,-4.0235,-4.0164,-3.9969,-3.9675,-3.9354,-3.8958,-3.8833,-3.8734,-3.8509,-3.8485,-3.8485,-3.8485,-3.8485,-3.8485,-3.8309,-3.8208,-3.803,-3.775,-3.7648,-3.7546,-3.7444,-3.7342,-3.7342,-3.7342,-3.7342,-3.7342,-3.7342,-3.7881,-3.826,-3.8083,-3.8585,-3.8884,-3.8784,-3.8208,-3.8107,-3.8685,-3.8784,-3.8784,-3.8784,-3.9181,-3.977,-4.0858,-4.0954,-4.1428,-4.2455,-4.2455,-4.2758,-4.3123,-4.3123,-4.3123,-4.3123,-4.3123,-4.3123,-4.3123,-4.3123,-4.3032,-4.2666,-4.227,-4.1643,-4.7984,-4.7875,-4.8068,-4.8258,-4.7557,-4.659,0.0,-4.511,-4.4638,-4.5039,-4.395,-4.2506,-4.0889,-3.9828,-3.876,-3.7231,-3.694,-3.6908,-3.6908,-3.6724,-3.61,-3.4661,-3.5259,-3.5598,-3.5259,-3.5153,-3.5153,-3.5047,-3.5493,-3.5703,-3.5681,-3.5996,-3.6077,-3.6182,-3.6413,-3.654,-3.654,-3.6724,-3.6804,-3.6804,-3.6804,-3.6724,-3.654,-3.6436,-3.6332,-3.6182,-3.6598,-3.7113,-3.775,-3.8685,-3.9501,-4.0235,-4.0235,-4.0261,-4.0164,-3.9871,-3.9379,-3.8858,-3.8858,-3.8734,-3.8485,-3.8485,-3.8485,-3.8485,-3.8485,-3.8485,-3.8485,-3.8409,-3.8208,-3.803,-3.7648,-3.7468,-3.7263,-3.7034,-3.6908,-3.6908,-3.6908,-3.6908,-3.6908,-3.6908,-3.6908,-3.6908,-3.6908,-3.6908,-3.6908,-3.6908,-3.6908,-3.6908,-3.6908,-3.6908,-3.6908,-3.6908,-3.7804,-3.8685,-3.9574,-3.977,-4.0352,-4.136,-4.1549,-4.2018,-4.2941,-4.3123,-4.3123,-4.3123,-4.3123,-4.3123,-4.3123,-4.3123,-4.3123,-4.3032,-4.2111,-4.136,0.0,0.0,0.0,0.0,0.0,0.0,0.0,-4.7321,-4.5359,-4.3968,-4.2623,-4.1176,-3.9806,-3.9212,-3.8546,-3.7456,-3.7053,-3.6908,-3.6908,-3.6724,-3.6332,-3.5576,-3.5364,-3.5259,-3.5153,-3.5153,-3.5047,-3.4642,-3.5047,-3.5259,-3.5024,-3.5576,-3.5891,-3.6182,-3.6205,-3.6182,-3.6182,-3.6286,-3.6286,-3.6286,-3.6286,-3.6286,-3.6182,-3.6018,-3.5914,-3.5786,-3.5576,-3.6309,-3.7852,-3.9329,-4.0041,-4.0235,-4.0235,-4.0066,-3.9871,-3.9255,-3.8958,-3.8858,-3.8609,-3.8509,-3.8485,-3.8485,-3.8485,-3.8485,-3.8485,-3.8485,-3.8409,-3.803,-3.7852,-3.7625,-3.7216,-3.7034,-3.701,-3.6931,-3.6908,-3.6908,-3.6908,-3.6908,-3.6908,-3.6908,-3.6908,-3.6908,-3.6908,-3.6908,-3.6908,-3.6908,-3.6908,-3.6908,-3.6908,-3.6908,-3.6908,-3.6908,-3.7113,-3.7318,-3.7499,-3.8284,-3.9279,-4.0256,-4.1144,-4.1737,-4.1925,-4.2758,-4.3123,-4.3123,-4.3123,-4.3123,-4.3123,-4.3123,-4.2941,-4.2455,-4.1925,-4.1549,0.0,0.0,0.0,0.0,0.0,0.0,0.0,0.0,0.0,0.0,0.0,-4.0773,-3.9353,0.0,-3.7922,-3.7203,-3.6556,-3.6323,-3.6655,-3.6517,-3.6205,-3.5809,-3.5387,-3.5153,-3.5153,-3.494,-3.462,-3.4428,-3.4299,-3.4277,-3.417,-3.4727,-3.5153,-3.5259,-3.5681,-3.5996,-3.5996,-3.6077,-3.6182,-3.6182,-3.6182,-3.6077,-3.5996,-3.5809,-3.5703,-3.547,-3.5259,-3.61,-3.775,-3.8658,-3.9453,-4.0261,-4.0066,-3.9773,-3.9379,-3.8958,-3.8833,-3.8609,-3.8509,-3.8485,-3.8485,-3.8485,-3.8485,-3.8485,-3.8309,-3.8309,-3.8208,-3.7852,-3.7648,-3.7468,-3.7137,-3.7034,-3.6908,-3.6908,-3.6908,-3.6908,-3.6908,-3.6908,-3.6908,-3.6908,-3.6908,-3.6908,-3.6908,-3.6908,-3.6908,-3.6908,-3.6908,-3.6908,-3.6908,-3.6908,-3.6908,-3.6908,-3.6908,-3.6908,-3.6908,-3.7397,-3.8208,-3.9181,-4.0763,-4.1831,-4.2363,-4.2849,-4.3123,-4.3123,-4.3123,-4.3123,-4.3123,-4.3123,-4.3032,-4.2758,-4.2177,-4.1831,0.0,0.0,0.0,0.0,0.0,0.0,0.0,0.0,0.0,0.0,0.0,0.0,0.0,0.0,0.0,-3.6689,-3.5958,-3.5662,-3.6505,-3.6309,-3.61,-3.5809,-3.5387,-3.5153,-3.5153,-3.4856,-3.4428,-3.4192,-3.3868,-3.3544,-3.3305,-3.3868,-3.4321,-3.4428,-3.5175,-3.5598,-3.5703,-3.5891,-3.5973,-3.5973,-3.5973,0.0,-3.5703,-3.5703,-3.5493,-3.5153,-3.5153,-3.61,-3.775,-3.775,-3.8758,-4.0164,-3.9871,-3.9354,-3.8858,-3.8833,-3.8609,-3.8485,-3.8485,-3.8485,-3.8485,-3.8485,-3.8485,-3.8409,-3.8107,-3.803,0.0,-3.775,-3.7468,-3.7263,-3.7263,-3.7034,-3.6908,-3.6908,-3.6908,-3.6908,-3.6908,-3.6908,-3.6908,-3.6908,-3.6908,-3.6908,-3.6908,-3.6908,-3.6908,-3.6908,-3.6908,-3.6908,-3.6908,-3.6908,-3.6908,-3.6908,-3.6908,-3.6908,-3.6908,-3.6908,-3.7421,-3.8385,-4.0062,-4.1523,-4.2849,-4.3032,-4.3123,-4.3123,-4.3123,-4.3123,-4.3123,-4.3123,-4.3123,-4.3123,-4.2666,-4.2111,0.0,0.0,0.0,0.0,0.0,0.0,0.0,0.0,0.0,0.0,0.0,0.0,0.0,0.0,0.0,0.0,-3.5624,-3.5885,-3.6505,-3.6309,-3.61,-3.5809,-3.5387,-3.5153,-3.5153,-3.5153,-3.462,-3.3631,-3.3976,-3.3868,-3.278,-3.3347,0.0,0.0,0.0,-3.4749,-3.5259,-3.5259,-3.5259,-3.5259,-3.5259,-3.5259,-3.5259,-3.5259,-3.5259,-3.5153,-3.5153,-3.61,-3.775,-3.775,-3.8758,-4.0164,-3.9551,-3.9156,-3.8858,-3.8609,-3.8485,-3.8485,-3.8485,0.0,0.0,-3.8485,-3.8309,-3.8107,-3.8131,-3.7929,-3.7648,-3.7468,-3.7389,-3.7263,-3.7034,-3.6908,-3.6908,-3.6908,-3.6908,-3.6908,-3.6908,-3.6908,-3.6908,-3.6908,-3.6908,-3.6908,-3.6908,-3.6908,-3.6908,-3.6908,-3.6908,-3.6908,-3.6908,-3.6908,-3.6908,-3.6908,-3.6908,0.0,-3.6908,-3.6908,-3.7421,-3.8385,-3.8685,-3.977,-4.1737,-4.2666,-4.3123,-4.3123,-4.3123,-4.3123,-4.3123,-4.3123,-4.3123,-4.3123,-4.2666,-4.2111,0.0,0.0,0.0,0.0,0.0,0.0,0.0,0.0,0.0,0.0,0.0,0.0,0.0,0.0,0.0,0.0,-3.5517,-3.5092,-3.5802,-3.6021,-3.61,-3.5809,-3.5387,-3.5153,-3.5153,-3.4962,-3.4406,-3.3565,-3.3456,-3.302,-3.2271,-3.2801,-3.3347,-3.389,-3.4213,-3.4642,-3.5153,-3.5153,-3.5153,-3.5153,-3.5153,-3.5153,-3.5153,-3.5153,-3.5153,-3.5259,-3.5786,-3.6621,-3.775,-3.803,-3.8933,-3.9969,0.0,0.0,0.0,0.0,-3.8485,-3.8485,-3.8485,-3.8485,-3.8485,-3.8309,-3.8208,-3.803,-3.775,-3.757,-3.7468,-3.7137,-3.7034,-3.7034,-3.6908,-3.6908,-3.6908,-3.6908,-3.6908,-3.6908,-3.6908,-3.6908,-3.6908,-3.6908,-3.6908,0.0,-3.6908,-3.6908,-3.6908,-3.6908,-3.6908,-3.6908,-3.6908,-3.6908,-3.6908,-3.6908,-3.6908,-3.6908,-3.6908,-3.6908,0.0,0.0,0.0,-3.9378,-4.1549,-4.2018,0.0,0.0,0.0,-4.3123,-4.3123,-4.3123,0.0,0.0,-4.2941,-4.2363,0.0,0.0,0.0,0.0,0.0,0.0,0.0,0.0,0.0,0.0,0.0,0.0,0.0,0.0,0.0,0.0,-3.5208,-3.4529,-3.5248,-3.5643,-3.5763,-3.5809,-3.5259,-3.494,-3.5153,-3.4749,-3.4213,-3.3565,-3.302,-3.2471,-3.1939,-3.2251,-3.2801,-3.3565,-3.3782,-3.4321,-3.494,-3.4834,-3.4705,-3.4705,-3.4705,-3.4705,-3.4727,-3.4834,-3.4834,-3.4727,-3.5891,-3.6828,-3.7421,-3.8107,-3.8933,-3.9675,-3.9057,-3.8734,-3.8734,-3.8609,-3.8485,-3.8485,-3.8485,-3.8485,-3.8485,-3.8208,-3.803,-3.7929,-3.7468,-3.7263,-3.716,-3.7034,-3.6908,-3.6908,-3.6908,-3.6908,-3.6908,-3.6908,-3.6908,-3.6908,-3.6908,-3.6908,-3.6908,-3.6908,-3.6908,-3.6908,-3.6908,-3.6908,-3.6908,-3.6908,-3.6908,-3.6908,-3.6908,-3.6908,-3.6908,-3.6908,-3.6908,-3.6908,-3.6908,-3.6908,-3.7421,-3.8385,-3.8485,-3.9279,-4.1049,-4.1455,-4.1925,-4.2758,-4.3032,-4.3123,0.0,0.0,0.0,0.0,0.0,0.0,0.0,0.0,0.0,0.0,0.0,0.0,0.0,0.0,0.0,0.0,0.0,0.0,0.0,0.0,0.0,0.0,0.0,0.0,-3.5346,-3.5026,-3.5024,-3.5703,-3.4727,-3.4406,-3.5047,-3.4749,-3.4084,-3.3522,-3.2999,-3.2471,-3.1939,-3.1939,-3.2361,-3.3414,-3.2999,-3.3217,-3.4428,-3.3847,-3.3522,-3.3522,-3.3522,-3.3522,-3.3522,-3.4084,-3.4084,-3.3631,-3.5448,-3.624,-3.6505,-3.7679,-3.8534,-3.923,-3.8709,-3.8509,-3.8509,-3.8485,-3.8485,-3.8485,-3.8485,-3.8485,-3.8485,-3.8208,-3.7929,-3.7648,-3.7366,-3.716,-3.6931,-3.6908,-3.6908,-3.6908,-3.6908,-3.6908,-3.6908,-3.6908,-3.6908,-3.6908,-3.6908,-3.6908,-3.6908,-3.6908,-3.6908,-3.6908,-3.6908,-3.6908,-3.6908,-3.6908,-3.6908,0.0,-3.6908,-3.6908,-3.6908,-3.6908,-3.6908,-3.6908,-3.6908,-3.6908,-3.7421,-3.8385,-3.8485,-3.8983,-4.0062,-4.1049,-4.1643,-4.1643,-4.2666,-4.3123,-4.3123,0.0,0.0,0.0,0.0,0.0,0.0,0.0,0.0,0.0,0.0,0.0,0.0,0.0,0.0,0.0,0.0,0.0,0.0,0.0,0.0,0.0,0.0,0.0,0.0,-3.5051,-3.5449,-3.5905,-3.547,-3.5047,-3.4749,-3.4535,-3.3998,-3.2999,-3.278,-3.2471,-3.1939,-3.1848,-3.216,-3.289,-3.278,-3.2999,-3.3739,-3.3544,-3.3435,-3.3565,-3.3435,-3.3414,-3.3414,-3.3652,-3.4062,-3.4661,-3.58,-3.6734,-3.7577,-3.8333,-3.8634,-3.8709,-3.8585,-3.8485,-3.8485,-3.8485,-3.8485,-3.8485,-3.8485,-3.8485,-3.8485,-3.8208,-3.7929,-3.7648,-3.7366,-3.716,-3.6908,-3.6908,-3.6908,-3.6908,-3.6908,-3.6908,-3.6908,-3.6908,-3.6908,-3.6908,-3.6908,-3.6908,-3.6908,-3.6908,-3.6908,-3.6908,-3.6908,-3.6908,-3.6908,-3.6908,-3.6908,-3.6908,-3.6908,-3.6908,-3.6908,-3.6908,-3.6908,-3.6908,-3.6908,-3.6908,-3.7113,-3.7397,-3.7499,-3.7905,-3.8983,-3.9965,-4.0858,-4.1549,-4.2666,-4.3123,-4.3123,0.0,0.0,0.0,0.0,0.0,0.0,0.0,0.0,0.0,0.0,0.0,0.0,0.0,0.0,0.0,0.0,0.0,0.0,0.0,0.0,0.0,0.0,0.0,0.0,0.0,0.0,-3.5335,-3.5342,0.0,-3.4749,-3.4299,-3.376,-3.2999,-3.2581,-3.2251,-3.1939,-3.1848,-3.216,-3.2691,-3.2471,-3.2691,-3.3108,-3.2999,-3.2911,-3.3041,-3.2911,-3.289,-3.289,-3.3108,-3.3522,-3.4041,-3.5147,-3.6217,-3.7169,-3.7828,-3.8333,-3.8485,-3.8485,-3.8485,-3.8485,-3.8485,-3.8485,-3.8485,-3.8485,-3.8485,-3.8485,-3.8309,-3.803,-3.7852,-3.757,-3.7263,-3.7034,-3.7034,-3.7034,-3.6908,-3.6908,-3.6908,-3.6908,-3.6908,-3.6908,-3.6908,-3.6908,-3.6908,-3.6908,-3.6908,-3.6908,-3.6908,-3.6908,-3.6908,-3.6908,-3.6908,-3.6908,-3.6908,-3.6908,-3.6908,-3.6908,-3.6908,-3.6908,-3.6908,-3.6908,-3.6908,-3.6908,-3.6908,-3.6908,-3.7192,-3.7905,-3.9279,-4.0352,-4.1049,-4.2455,-4.2904,0.0,0.0,0.0,0.0,0.0,0.0,0.0,0.0,0.0,0.0,0.0,0.0,0.0,0.0,0.0,0.0,0.0,0.0,0.0,0.0,0.0,0.0,0.0,0.0,0.0,0.0,0.0,-3.3997,-3.4319,0.0,0.0,0.0,0.0,-3.3414,-3.2471,-3.1939,-3.1848,-3.1848,-3.216,-3.2581,-3.216,-3.216,-3.2581,-3.216,-3.1848,-3.1848,-3.1848,-3.1848,-3.1939,-3.2361,-3.2361,-3.205,-3.3718,-3.4746,-3.538,-3.6367,-3.7499,-3.8385,-3.8485,-3.8485,-3.8485,-3.8485,-3.8485,-3.8485,-3.8485,-3.8485,-3.8485,-3.8485,-3.8309,-3.8131,-3.7852,-3.757,0.0,0.0,-3.716,-3.6931,-3.6908,-3.6908,-3.6908,-3.6908,-3.6908,-3.6908,-3.6908,-3.6908,-3.6908,-3.6908,-3.6908,-3.6908,-3.6908,0.0,-3.6908,-3.6908,-3.6908,-3.6908,-3.6908,-3.6908,-3.6908,-3.6908,-3.6908,-3.6908,-3.6908,-3.6908,-3.6908,-3.6908,-3.6908,-3.6908,-3.6908,-3.8983,-4.0062,-4.0062,-4.2004,0.0,0.0,0.0,0.0,0.0,0.0,0.0,0.0,0.0,0.0,0.0,0.0,0.0,0.0,0.0,0.0,0.0,0.0,0.0,0.0,0.0,0.0,0.0,0.0,0.0,0.0,-3.3424,-3.3959,-3.4439,-3.5021,-3.5153,0.0,0.0,0.0,0.0,0.0,0.0,-3.1939,-3.1848,-3.1959,-3.205,-3.1939,-3.1959,-3.205,-3.1939,-3.1848,-3.1848,-3.1848,-3.1848,-3.1848,-3.205,-3.2451,-3.3045,-3.3459,-3.4746,-3.6471,-3.5823,-3.6344,-3.7421,-3.8208,-3.8485,-3.8485,-3.8485,-3.8485,-3.8485,-3.8485,-3.8485,-3.8485,-3.8485,-3.8485,-3.8309,-3.8131,0.0,0.0,0.0,0.0,-3.716,-3.7034,-3.6908,-3.6908,-3.6908,-3.6908,-3.6908,-3.6908,-3.6908,-3.6908,-3.6908,-3.6908,-3.6908,-3.6908,-3.6908,0.0,-3.6908,-3.6908,-3.6908,-3.6908,-3.6908,-3.6908,-3.6908,-3.6908,-3.6908,-3.6908,-3.6908,-3.6908,-3.6908,-3.6908,-3.6908,-3.6908,-3.8983,-4.0062,-4.0062,0.0,0.0,0.0,0.0,0.0,0.0,0.0,0.0,0.0,0.0,0.0,0.0,0.0,0.0,0.0,0.0,0.0,0.0,0.0,0.0,0.0,0.0,0.0,0.0,0.0,0.0,0.0,-3.2284,-3.3256,-3.3786,-3.4687,-3.5103,0.0,0.0,0.0,0.0,0.0,0.0,0.0,0.0,0.0,-3.1848,-3.205,-3.2361,-3.254,-3.216,-3.216,-3.254,-3.214,-3.1848,-3.1848,-3.1848,-3.214,-3.2739,-3.2739,-3.4019,-3.6159,-3.6055,-3.6551,-3.7702,0.0,0.0,0.0,0.0,-3.8485,-3.8485,-3.8485,-3.8485,-3.8485,-3.8485,0.0,0.0,0.0,0.0,0.0,0.0,0.0,-3.7263,-3.716,-3.7034,-3.6908,-3.6908,-3.6908,-3.6908,-3.6908,-3.6908,-3.6908,-3.6908,-3.6908,-3.6908,-3.6908,-3.6908,0.0,0.0,0.0,-3.6908,-3.6908,-3.6908,-3.6908,-3.6908,-3.6908,-3.6908,-3.6908,-3.6908,-3.6908,-3.6908,-3.6908,-3.6908,-3.6908,-3.8983,-3.9833,0.0,0.0,0.0,0.0,0.0,0.0,0.0,0.0,0.0,0.0,0.0,0.0,0.0,0.0,0.0,0.0,0.0,0.0,0.0,0.0,0.0,0.0,0.0,0.0,0.0,0.0,0.0,0.0,0.0,-3.1896,-3.2795,0.0,0.0,0.0,0.0,0.0,0.0,0.0,0.0,0.0,0.0,0.0,0.0,0.0,-3.2978,-3.335,-3.254,-3.254,-3.3437,-3.254,-3.205,-3.2029,-3.1939,-3.1848,-3.1939,-3.216,0.0,-3.5064,-3.6367,0.0,0.0,0.0,0.0,0.0,0.0,0.0,0.0,0.0,0.0,0.0,0.0,0.0,0.0,0.0,0.0,0.0,0.0,0.0,0.0,0.0,0.0,-3.6931,-3.6908,-3.6908,-3.6837,-3.658,-3.651,-3.651,-3.651,-3.6627,-3.6721,0.0,0.0,0.0,0.0,0.0,0.0,-3.6931,-3.6908,-3.6908,-3.6931,-3.6908,-3.6908,-3.6908,-3.6908,-3.6908,-3.6908,-3.6908,-3.701,-3.7113,-3.8736,0.0,0.0,0.0,0.0,0.0,0.0,0.0,0.0,0.0,0.0,0.0,0.0,0.0,0.0,0.0,0.0,0.0,0.0,0.0,0.0,0.0,0.0,0.0,0.0,0.0,0.0,0.0,0.0,0.0,0.0,0.0,0.0,0.0,0.0,0.0,0.0,0.0,0.0,0.0,0.0,0.0,0.0,0.0,0.0,0.0,0.0,0.0,0.0,0.0,0.0,-3.3242,-3.3133,-3.3154,-3.223,-3.1848,-3.1939,-3.3825,-3.4319,-3.3869,-3.6032,0.0,0.0,0.0,0.0,0.0,0.0,0.0,0.0,0.0,0.0,0.0,0.0,0.0,0.0,0.0,0.0,0.0,0.0,0.0,0.0,0.0,0.0,-3.716,-3.7034,-3.6908,-3.6565,-3.4974,0.0,0.0,0.0,0.0,0.0,0.0,0.0,0.0,0.0,0.0,0.0,-3.6644,-3.6828,-3.6828,-3.6644,-3.6828,-3.6908,-3.6908,-3.6908,-3.6908,-3.6908,-3.6908,-3.7318,0.0,0.0,0.0,0.0,0.0,0.0,0.0,0.0,0.0,0.0,0.0,0.0,0.0,0.0,0.0,0.0,0.0,0.0,0.0,0.0,0.0,0.0,0.0,0.0,0.0,0.0,0.0,0.0,0.0,0.0,0.0,0.0,0.0,0.0,0.0,0.0,0.0,0.0,0.0,0.0,0.0,0.0,0.0,0.0,0.0,0.0,0.0,0.0,0.0,0.0,0.0,0.0,0.0,0.0,0.0,0.0,0.0,0.0,-3.4896,-3.5718,0.0,0.0,0.0,0.0,0.0,0.0,0.0,0.0,0.0,0.0,0.0,0.0,0.0,0.0,0.0,0.0,0.0,0.0,0.0,0.0,0.0,0.0,0.0,0.0,0.0,0.0,0.0,0.0,0.0,0.0,0.0,0.0,0.0,0.0,0.0,0.0,0.0,0.0,0.0,0.0,-3.6724,-3.6828,-3.6931,-3.6724,-3.6828,-3.6908,-3.6908,-3.6908,-3.6908,-3.6908,-3.7034,0.0,0.0,0.0,0.0,0.0,0.0,0.0,0.0,0.0,0.0,0.0,0.0,0.0,0.0,0.0,0.0,0.0,0.0,0.0,0.0,0.0,0.0,0.0,0.0,0.0,0.0,0.0,0.0,0.0,0.0,0.0,0.0,0.0,0.0,0.0,0.0,0.0,0.0,0.0,0.0,0.0,0.0,0.0,0.0,0.0,0.0,0.0,0.0,0.0,0.0,0.0,0.0,0.0,0.0,0.0,0.0,0.0,0.0,0.0,-3.5209,-3.6455,0.0,0.0,0.0,0.0,0.0,0.0,0.0,0.0,0.0,0.0,0.0,0.0,0.0,0.0,0.0,0.0,0.0,0.0,0.0,0.0,0.0,0.0,0.0,0.0,0.0,0.0,0.0,0.0,0.0,0.0,0.0,0.0,0.0,0.0,0.0,0.0,0.0,0.0,0.0,0.0,-3.6828,-3.6931,-3.6908,-3.6828,-3.6931,-3.6908,-3.6908,-3.6908,-3.6908,-3.6908,-3.7137,0.0,0.0,0.0,0.0,0.0,0.0,0.0,0.0,0.0,0.0,0.0,0.0,0.0,0.0,0.0,0.0,0.0,0.0,0.0,0.0,0.0,0.0,0.0,0.0,0.0,0.0,0.0,0.0,0.0,0.0,0.0,0.0,0.0,0.0,0.0,0.0,0.0,0.0,0.0,0.0,0.0,0.0,0.0,0.0,0.0,0.0,0.0,0.0,0.0,0.0,0.0,0.0,0.0,0.0,0.0,0.0,0.0,0.0,0.0,0.0,0.0,0.0,0.0,0.0,0.0,0.0,0.0,0.0,0.0,0.0,0.0,0.0,0.0,0.0,0.0,0.0,0.0,0.0,0.0,0.0,0.0,0.0,0.0,0.0,0.0,0.0,0.0,0.0,0.0,0.0,0.0,0.0,0.0,0.0,0.0,0.0,0.0,0.0,0.0,0.0,0.0,-3.6644,-3.6828,-3.6828,-3.6644,-3.6828,-3.6908,-3.6908,-3.6908,-3.6908,-3.6908,0.0,0.0,0.0,0.0,0.0,0.0,0.0,0.0,0.0,0.0,0.0,0.0,0.0,0.0,0.0,0.0,0.0,0.0,0.0,0.0,0.0,0.0,0.0,0.0,0.0,0.0,0.0,0.0,0.0,0.0,0.0,0.0,0.0,0.0,0.0,0.0,0.0,0.0,0.0,0.0,0.0,0.0,0.0,0.0,0.0,0.0,0.0,0.0,0.0,0.0,0.0,0.0,0.0,0.0,0.0,0.0,0.0,0.0,0.0,0.0,0.0,0.0,0.0,0.0,0.0,0.0,0.0,0.0,0.0,0.0,0.0,0.0,0.0,0.0,0.0,0.0,0.0,0.0,0.0,0.0,0.0,0.0,0.0,0.0,0.0,0.0,0.0,0.0,0.0,0.0,0.0,0.0,0.0,0.0,0.0,0.0,0.0,0.0,0.0,0.0,0.0,0.0,-3.6828,-3.6931,-3.6931,-3.6828,-3.6931,-3.6908,-3.6908,-3.6908,-3.6908,-3.6908,0.0,0.0,0.0,0.0,0.0,0.0,0.0,0.0,0.0,0.0,0.0,0.0,0.0,0.0,0.0,0.0,0.0,0.0,0.0,0.0,0.0,0.0,0.0,0.0,0.0,0.0,0.0,0.0,0.0,0.0,0.0,0.0,0.0,0.0,0.0,0.0,0.0,0.0,0.0,0.0,0.0,0.0,0.0,0.0,0.0,0.0,0.0,0.0,0.0,0.0,0.0,0.0,0.0,0.0,0.0,0.0,0.0,0.0,0.0,0.0,0.0,0.0,0.0,0.0,0.0,0.0,0.0,0.0,0.0,0.0,0.0,0.0,0.0,0.0,0.0,0.0,0.0,0.0,0.0,0.0,0.0,0.0,0.0,0.0,0.0,0.0,0.0,0.0,0.0,0.0,0.0,0.0,0.0,0.0,0.0,0.0,0.0,0.0,0.0,0.0,0.0,0.0,-3.6931,-3.6908,-3.6908,-3.6908,-3.6908,-3.6908,-3.6908,-3.6908,-3.6908,-3.6908,0.0,0.0,0.0,0.0,0.0,0.0,0.0,0.0,0.0,0.0,0.0,0.0,0.0,0.0,0.0,0.0,0.0,0.0,0.0,0.0,0.0,0.0,0.0,0.0,0.0,0.0,0.0,0.0,0.0,0.0,0.0,0.0,0.0,0.0,0.0,0.0,0.0,0.0,0.0,0.0,0.0,0.0,0.0,0.0,0.0,0.0,0.0,0.0,0.0,0.0,0.0,0.0,0.0,0.0,0.0,0.0,0.0,0.0,0.0,0.0,0.0,0.0,0.0,0.0,0.0,0.0,0.0,0.0,0.0,0.0,0.0,0.0,0.0,0.0,0.0,0.0,0.0,0.0,0.0,0.0,0.0,0.0,0.0,0.0,0.0,0.0,0.0,0.0,0.0,0.0,0.0,0.0,0.0,0.0,0.0,0.0,0.0,0.0,0.0,0.0,0.0,0.0,-3.6931,-3.6908,-3.6908,-3.6908,-3.6908,-3.6908,-3.6908,-3.6908,-3.6908,0.0,0.0,0.0,0.0,0.0,0.0,0.0,0.0,0.0,0.0,0.0,0.0,0.0,0.0,0.0,0.0,0.0,0.0,0.0,0.0,0.0,0.0,0.0,0.0,0.0,0.0,0.0,0.0,0.0,0.0,0.0,0.0,0.0,0.0,0.0,0.0,0.0,0.0,0.0,0.0,0.0,0.0,0.0,0.0,0.0,0.0,0.0,0.0,0.0,0.0,0.0,0.0,0.0,0.0,0.0,0.0,0.0,0.0,0.0,0.0,0.0,0.0,0.0,0.0,0.0,0.0,0.0,0.0,0.0,0.0,0.0,0.0,0.0,0.0,0.0,0.0,0.0,0.0,0.0,0.0,0.0,0.0,0.0,0.0,0.0,0.0,0.0,0.0,0.0,0.0,0.0,0.0,0.0,0.0,0.0,0.0,0.0,0.0,0.0,0.0,0.0,0.0,0.0,-3.7263,-3.7034,-3.6908,-3.6908,-3.6908,-3.6908,-3.6908,-3.6908,-3.6908,-3.6908,0.0,0.0,0.0,0.0,0.0,0.0,0.0,0.0,0.0,0.0,0.0,0.0,0.0,0.0,0.0,0.0,0.0,0.0,0.0,0.0,0.0,0.0,0.0,0.0,0.0,0.0,0.0,0.0,0.0,0.0,0.0,0.0,0.0,0.0,0.0,0.0,0.0,0.0,0.0,0.0,0.0,0.0,0.0,0.0,0.0,0.0,0.0,0.0,0.0,0.0,0.0,0.0,0.0,0.0,0.0,0.0,0.0,0.0,0.0,0.0,0.0,0.0,0.0,0.0,0.0,0.0,0.0,0.0,0.0,0.0,0.0,0.0,0.0,0.0,0.0,0.0,0.0,0.0,0.0,0.0,0.0,0.0,0.0,0.0,0.0,0.0,0.0,0.0,0.0,0.0,0.0,0.0,0.0,0.0,0.0,0.0,0.0,0.0,0.0,0.0,0.0,0.0,0.0,-3.716,-3.7034,-3.6931,-3.6908,-3.6908,-3.6908,-3.6908,-3.6908,-3.6908,0.0,0.0,0.0,0.0,0.0,0.0,0.0,0.0,0.0,0.0,0.0,0.0,0.0,0.0,0.0,0.0,0.0,0.0,0.0,0.0,0.0,0.0,0.0,0.0,0.0,0.0,0.0,0.0,0.0,0.0,0.0,0.0,0.0,0.0,0.0,0.0,0.0,0.0,0.0,0.0,0.0,0.0,0.0,0.0,0.0,0.0,0.0,0.0,0.0,0.0,0.0,0.0,0.0,0.0,0.0,0.0,0.0,0.0,0.0,0.0,0.0,0.0,0.0,0.0,0.0,0.0,0.0,0.0,0.0,0.0,0.0,0.0,0.0,0.0,0.0,0.0,0.0,0.0,0.0,0.0,0.0,0.0,0.0,0.0,0.0,0.0,0.0,0.0,0.0,0.0,0.0,0.0,0.0,0.0,0.0,0.0,0.0,0.0,0.0,0.0,0.0,0.0,0.0,-3.7389,-3.7263,-3.6908,-3.6908,-3.6908,-3.6908,-3.6908,-3.6908,-3.6908,-3.7444,0.0,0.0,0.0,0.0,0.0,0.0,0.0,0.0,0.0,0.0,0.0,0.0,0.0,0.0,0.0,0.0,0.0,0.0,0.0,0.0,0.0,0.0,0.0,0.0,0.0,0.0,0.0,0.0,0.0,0.0,0.0,0.0,0.0,0.0,0.0,0.0,0.0,0.0,0.0,0.0,0.0,0.0,0.0,0.0,0.0,0.0,0.0,0.0,0.0,0.0,0.0,0.0,0.0,0.0,0.0,0.0,0.0,0.0,0.0,0.0,0.0,0.0,0.0,0.0,0.0,0.0,0.0,0.0,0.0,0.0,0.0,0.0,0.0,0.0,0.0,0.0,0.0,0.0,0.0,0.0,0.0,0.0,0.0,0.0,0.0,0.0,0.0,0.0,0.0,0.0,0.0,0.0,0.0,0.0,0.0,0.0,0.0,0.0,0.0,0.0,0.0,0.0,-3.7468,-3.7263,-3.6908,-3.6908,-3.6908,-3.6908,-3.6908,-3.6908,-3.6908,-3.7263,0.0,0.0,0.0,0.0,0.0,0.0,0.0,0.0,0.0,0.0,0.0,0.0,0.0,0.0,0.0,0.0,0.0,0.0,0.0,0.0,0.0,0.0,0.0,0.0,0.0,0.0,0.0,0.0,0.0,0.0,0.0,0.0,0.0,0.0,0.0,0.0,0.0,0.0,0.0,0.0,0.0,0.0,0.0,0.0,0.0,0.0,0.0,0.0,0.0,0.0,0.0,0.0,0.0,0.0,0.0,0.0,0.0,0.0,0.0,0.0,0.0,0.0,0.0,0.0,0.0,0.0,0.0,0.0,0.0,0.0,0.0,0.0,0.0,0.0,0.0,0.0,0.0,0.0,0.0,0.0,0.0,0.0,0.0,0.0,0.0,0.0,0.0,0.0,0.0,0.0,0.0,0.0,0.0,0.0,0.0,0.0,0.0,0.0,0.0,0.0,0.0,0.0,-3.775,-3.7366,-3.6931,-3.6908,-3.6908,-3.6908,-3.6908,-3.6908,-3.6908,-3.7034,0.0,0.0,0.0,0.0,0.0,0.0,0.0,0.0,0.0,0.0,0.0,0.0,0.0,0.0,0.0,0.0,0.0,0.0,0.0,0.0,0.0,0.0,0.0,0.0,0.0,0.0,0.0,0.0,0.0,0.0,0.0,0.0,0.0,0.0,0.0,0.0,0.0,0.0,0.0,0.0,0.0,0.0,0.0,0.0,0.0,0.0,0.0,0.0,0.0,0.0,0.0,0.0,0.0,0.0,0.0,0.0,0.0,0.0,0.0,0.0,0.0,0.0,0.0,0.0,0.0,0.0,0.0,0.0,0.0,0.0,0.0,0.0,0.0,0.0,0.0,0.0,0.0,0.0,0.0,0.0,0.0,0.0,0.0,0.0,0.0,0.0,0.0,0.0,0.0,0.0,0.0,0.0,0.0,0.0,0.0,0.0,0.0,0.0,0.0,0.0,0.0,0.0,0.0,-3.7648,-3.7113,-3.6931,-3.6931,-3.6908,-3.6931,-3.6931,-3.6908,0.0,0.0,0.0,0.0,0.0,0.0,0.0,0.0,0.0,0.0,0.0,0.0,0.0,0.0,0.0,0.0,0.0,0.0,0.0,0.0,0.0,0.0,0.0,0.0,0.0,0.0,0.0,0.0,0.0,0.0,0.0,0.0,0.0,0.0,0.0,0.0,0.0,0.0,0.0,0.0,0.0,0.0,0.0,0.0,0.0,0.0,0.0,0.0,0.0,0.0,0.0,0.0,0.0,0.0,0.0,0.0,0.0,0.0,0.0,0.0,0.0,0.0,0.0,0.0,0.0,0.0,0.0,0.0,0.0,0.0,0.0,0.0,0.0,0.0,0.0,0.0,0.0,0.0,0.0,0.0,0.0,0.0,0.0,0.0,0.0,0.0,0.0,0.0,0.0,0.0,0.0,0.0,0.0,0.0,0.0,0.0,0.0,0.0,0.0,0.0,0.0,0.0,0.0,0.0,-3.8208,-3.7648,-3.7034,-3.6724,-3.6908,-3.6724,-3.6724,-3.6908,0.0,0.0,0.0,0.0,0.0,0.0,0.0,0.0,0.0,0.0,0.0,0.0,0.0,0.0]}]]]